     2.11           OBSERVATION DATA    G (GPS)             RINEX VERSION / TYPE
teqc 2010Oct21 OPUS Account 20111027 14:03:53UTC            PGM / RUN BY / DATE
Q 1522                                                      MARKER NAME
1170                                                        MARKER NUMBER
DBPROUTY NGS                                                OBSERVER / AGENCY
4624K01634 TRIMBLE NETR5 NP 70.55 / SP 451.54               REC # / TYPE / VERS
12668881 TRM41249.00 NONE                                   ANT # / TYPE
  -738054.2760 -5496299.6545  3140268.1093                  APPROX POSITION XYZ
        2.0000        0.0000        0.0000                  ANTENNA: DELTA H/E/N
     1     1                                                WAVELENGTH FACT L1/2
     5    L1    L2    C1    P1    P2                        # / TYPES OF OBSERV
    30.0000                                                 INTERVAL
  2011     8    13     0     0    0.0000000     GPS         TIME OF FIRST OBS
                                                            END OF HEADER
 11  8 13  0  0  0.0000000  0  8G10G28G09G17G12G05G04G02
 -15934733.30948 -12332325.29145  21500092.5234                   21500094.5124
  -5728184.43746  -4426624.06443  23573390.1954                   23573392.5434
  -9827000.61047  -7215616.00344  22479078.7344                   22479080.6844
 -12099264.861 7  -9378999.047 7  22248977.875
 -10345885.242 7  -8041179.009 7  22801114.336
  -4099717.681 6  -3158233.677 6  23969840.891
 -22788958.89548 -17708980.23246  20408213.8444                   20408214.9454
 -20560811.42848 -15973789.24046  20927369.0164                   20927367.9224
 11  8 13  0  0 30.0000000  0  8G10G28G09G17G12G05G04G02
 -15993969.76647 -12378483.52845  21488820.3754                   21488822.2304
  -5634827.88246  -4353878.74443  23591155.5164                   23591157.7814
  -9778331.34147  -7177691.95344  22488339.9614                   22488342.0864
 -12057700.746 8  -9346611.455 7  22256887.188
 -10434881.476 7  -8110526.692 7  22784178.695
  -4205868.344 6  -3240948.303 6  23949641.609
 -22738418.87748 -17669598.39846  20417831.5864                   20417832.3874
 -20596080.51148 -16001271.61846  20920657.4614                   20920656.4104
 11  8 13  0  1  0.0000000  0  8G10G28G09G17G12G05G04G02
 -16052742.13947 -12424280.13245  21477636.1254                   21477638.2734
  -5541211.83546  -4280931.25043  23608970.3204                   23608972.7974
  -9729188.35047  -7139398.75944  22497691.8204                   22497693.4344
 -12016033.020 8  -9314143.119 7  22264816.398
 -10523686.104 7  -8179725.077 7  22767280.367
  -4312014.855 7  -3323659.677 6  23929442.523
 -22687509.20748 -17629928.51246  20427519.5784                   20427520.0594
 -20630986.47048 -16028471.05846  20914014.8364                   20914013.8284
 11  8 13  0  1 30.0000000  0  8G10G28G09G17G12G05G04G02
 -16111045.35848 -12469711.17645  21466541.5554                   21466543.3634
  -5447335.81746  -4207781.24843  23626834.3594                   23626836.8634
  -9679571.81047  -7100736.55244  22507133.3444                   22507134.8204
 -11974259.072 7  -9281592.005 7  22272765.797
 -10612294.219 7  -8248770.318 7  22750418.063
  -4418151.900 6  -3406363.620 6  23909244.813
 -22636229.62048 -17589970.38846  20437277.3204                   20437278.0594
 -20665527.58548 -16055386.18546  20907441.9924                   20907440.3054
 11  8 13  0  2  0.0000000  0  8G10G28G09G17G12G05G04G02
 -16168875.58247 -12514773.64045  21455536.9304                   21455538.4144
  -5353200.50146  -4134429.06443  23644747.9064                   23644749.1914
  -9629483.97247  -7061707.11844  22516664.6484                   22516666.0084
 -11932377.358 7  -9248956.933 7  22280735.477
 -10700702.320 7  -8317659.726 7  22733595.008
  -4524276.085 7  -3489057.632 6  23889050.289
 -22584581.77148 -17549725.29946  20447105.9144                   20447106.3164
 -20699703.13448 -16082016.46946  20900939.0164                   20900937.5394
 11  8 13  0  2 30.0000000  0  8G10G28G09G17G12G05G04G02
 -16226231.48647 -12559466.50945  21444622.0234                   21444623.6914
  -5258808.98646  -4060877.35643  23662710.3524                   23662711.9534
  -9578928.58647  -7022313.33844  22526285.3054                   22526286.5474
 -11890388.908 7  -9216238.665 7  22288725.352
 -10788909.833 7  -8386392.796 7  22716809.641
  -4630386.026 6  -3571740.551 6  23868857.688
 -22532569.28448 -17509196.08146  20457003.3524                   20457004.3834
 -20733514.78948 -16108363.19046  20894504.4844                   20894503.0704
 11  8 13  0  3  0.0000000  0  8G10G28G09G17G12G05G04G02
 -16283108.70148 -12603786.36645  21433798.7424                   21433800.1844
  -5164161.54847  -3987126.18043  23680721.1724                   23680723.1604
  -9527907.11046  -6982556.39444  22535994.2974                   22535995.9064
 -11848291.467 7  -9183435.485 7  22296736.070
 -10876912.301 7  -8454966.107 7  22700063.484
  -4736477.436 6  -3654408.971 6  23848669.234
 -22480192.78448 -17468383.22246  20466970.0474                   20466971.2664
 -20766961.02348 -16134425.17446  20888139.8984                   20888138.4884
 11  8 13  0  3 30.0000000  0  8G10G28G09G17G12G05G04G02
 -16339505.93348 -12647732.21745  21423066.8134                   21423068.2624
  -5069261.43246  -3913178.09143  23698779.4844                   23698781.1994
  -9476423.67047  -6942439.45744  22545791.3054                   22545793.1684
 -11806086.176 7  -9150548.266 7  22304768.055
 -10964708.411 7  -8523378.649 6  22683356.070
  -4842548.552 7  -3737061.574 6  23828484.305
 -22427456.04748 -17427289.66546  20477005.4064                   20477006.8014
 -20800043.42748 -16160203.65146  20881844.3524                   20881843.3834
 11  8 13  0  4  0.0000000  0  8G10G28G09G17G12G05G04G02
 -16395419.31348 -12691301.04345  21412427.1254                   21412428.0004
  -4974108.57946  -3839033.06343  23716887.0554                   23716889.4884
  -9424479.71847  -6901963.69844  22555676.0234                   22555677.6254
 -11763770.783 7  -9117575.250 7  22312820.383
 -11052294.508 7  -8591627.519 6  22666689.000
  -4948595.222 7  -3819695.152 6  23808303.977
 -22374359.65248 -17385915.85246  20487109.6954                   20487110.2734
 -20832761.04148 -16185697.87946  20875618.4534                   20875616.9104
 11  8 13  0  4 30.0000000  0  8G10G28G09G17G12G05G04G02
 -16450848.88748 -12734492.86545  21401878.9534                   21401879.9804
  -4878708.04046  -3764695.05043  23735039.6644                   23735043.6414
  -9372081.14647  -6861133.68244  22565647.8364                   22565648.8054
 -11721347.737 7  -9084518.361 7  22320893.297
 -11139670.049 7  -8659712.354 6  22650062.305
  -5054617.762 7  -3902309.947 6  23788129.117
 -22320909.40348 -17344266.30146  20497280.9614                   20497281.5084
 -20865117.19848 -16210910.45246  20869461.5314                   20869459.8164
 11  8 13  0  5  0.0000000  0  8G10G28G09G17G12G05G04G02
 -16505788.13847 -12777302.63145  21391424.3054                   21391425.1294
  -4783057.36846  -3690162.16243  23753242.5234                   23753245.0824
  -9319226.65247  -6819948.41145  22575705.1254                   22575706.5004
 -11678812.619 7  -9051374.107 7  22328987.633
 -11226830.091 7  -8727629.258 7  22633475.969
  -5160609.003 7  -3984900.323 6  23767959.016
 -22267103.24348 -17302339.41046  20507520.1024                   20507520.6884
 -20897107.97648 -16235838.31546  20863373.9844                   20863372.5664
 11  8 13  0  5 30.0000000  0  8G10G28G09G17G12G05G04G02
 -16560236.57847 -12819729.92145  21381063.2114                   21381064.3014
  -4687160.59246  -3615437.50143  23771491.6724                   23771493.3134
  -9265921.65347  -6778412.08945  22585849.3364                   22585850.4884
 -11636166.889 7  -9018143.678 7  22337102.469
 -11313773.650 7  -8795377.449 7  22616931.398
  -5266568.331 7  -4067465.841 6  23747795.563
 -22212945.94348 -17260138.91946  20517825.8914                   20517826.6294
 -20928735.98148 -16260483.50246  20857355.2974                   20857353.8634
 11  8 13  0  6  0.0000000  0  8G10G28G09G17G12G05G04G02
 -16614191.87648 -12861772.97145  21370795.5084                   21370796.6954
  -4591019.97946  -3540522.80443  23789785.7274                   23789788.3404
  -9212169.50447  -6736527.34444  22596077.4144                   22596079.5664
 -11593410.835 8  -8984827.284 7  22345238.961
 -11400498.493 7  -8862955.220 7  22600427.703
  -5372493.359 7  -4150004.632 6  23727638.273
 -22158439.95348 -17217666.72946  20528197.6334                   20528198.9184
 -20960001.72848 -16284846.41246  20851405.2584                   20851404.0784
 11  8 13  0  6 30.0000000  0  8G10G28G09G17G12G05G04G02
 -16667650.70648 -12903429.16245  21360622.7584                   21360624.1724
  -4494636.45346  -3465418.85143  23808128.1334                   23808130.2384
  -9157972.26947  -6694295.77844  22606390.9064                   22606392.5164
 -11550542.548 8  -8951423.434 7  22353396.539
 -11487000.863 7  -8930359.631 7  22583967.156
  -5478380.392 7  -4232513.836 6  23707488.844
 -22103586.91048 -17174924.10346  20538636.1724                   20538636.9734
 -20990904.86648 -16308926.76146  20845525.0554                   20845523.7304
 11  8 13  0  7  0.0000000  0  8G10G28G09G17G12G05G04G02
 -16720610.97248 -12944696.85945  21350544.6414                   21350546.0044
  -4398012.37446  -3390127.39743  23826514.8984                   23826517.2274
  -9103333.37947  -6651720.08244  22616788.9384                   22616789.9804
 -11507562.860 8  -8917932.749 7  22361575.547
 -11573279.259 7  -8997589.525 7  22567548.766
  -5584227.331 7  -4314991.805 6  23687346.805
 -22048389.72148 -17131913.30946  20549139.6954                   20549140.8054
 -21021446.29648 -16332725.26446  20839712.9304                   20839711.5124
 11  8 13  0  7 30.0000000  0  8G10G28G09G17G12G05G04G02
 -16773069.67948 -12985573.72345  21340561.8444                   21340563.2154
  -4301148.65046  -3314649.26743  23844946.9844                   23844949.7464
  -9048255.17747  -6608802.07744  22627269.9534                   22627270.5984
 -11464470.396 8  -8884354.236 7  22369775.547
 -11659330.456 7  -9064642.359 7  22551173.609
  -5690030.707 7  -4397435.791 6  23667213.375
 -21992850.24148 -17088635.79746  20559708.5634                   20559709.4654
 -21051625.57048 -16356241.56546  20833969.7664                   20833968.4494
 11  8 13  0  8  0.0000000  0  8G10G28G09G17G12G05G04G02
 -16825023.82248 -13026057.42645  21330675.4614                   21330676.8284
  -4204047.29346  -3238985.97743  23863424.9454                   23863427.6054
  -8992740.15047  -6565543.67345  22637834.0634                   22637836.1414
 -11421264.060 7  -8850686.971 7  22377997.516
 -11745151.304 7  -9131515.705 7  22534842.781
  -5795786.948 7  -4479843.070 6  23647087.938
 -21936970.20548 -17045092.92346  20570342.2734                   20570343.3204
 -21081442.98048 -16379475.88946  20828295.9774                   20828294.5514
 11  8 13  0  8 30.0000000  0  8G10G28G09G17G12G05G04G02
 -16876474.45448 -13066148.78345  21320884.6804                   21320886.2894
  -4106713.50046  -3163141.54543  23881946.7424                   23881948.8204
  -8936794.70847  -6521949.89045  22648479.4304                   22648481.5864
 -11377946.823 7  -8816933.296 7  22386240.352
 -11830742.980 7  -9198210.507 7  22518555.070
  -5901496.914 7  -4562214.310 6  23626972.016
 -21880755.64748 -17001289.37746  20581039.2664                   20581040.1724
 -21110902.21748 -16402431.12346  20822689.9924                   20822688.8204
 11  8 13  0  9  0.0000000  0  8G10G28G09G17G12G05G04G02
 -16927412.58748 -13105840.80446  21311191.6094                   21311193.0474
  -4009142.31746  -3087112.17243  23900513.8284                   23900516.8714
  -8880415.50047  -6478018.12345  22659209.4694                   22659211.0784
 -11334511.702 7  -8783087.783 7  22394505.836
 -11916096.221 7  -9264719.485 6  22502313.016
  -6007151.126 7  -4644542.069 6  23606866.344
 -21824202.19548 -16957221.76146  20591801.1644                   20591801.6484
 -21139997.10248 -16425102.44646  20817153.5084                   20817151.9694
 11  8 13  0  9 30.0000000  0  8G10G28G09G17G12G05G04G02
 -16977840.94848 -13145135.58245  21301595.0554                   21301596.4654
  -3911340.85146  -3010903.33343  23919125.4614                   23919128.4064
  -8823610.88247  -6433754.85945  22670017.4064                   22670020.6844
 -11290963.202 7  -8749153.903 7  22402793.188
 -12001213.709 7  -9331044.787 6  22486115.531
  -6112751.825 7  -4726828.137 6  23586771.250
 -21767317.51148 -16912896.03546  20602625.9304                   20602627.0824
 -21168733.47748 -16447494.40046  20811685.1174                   20811683.7854
 11  8 13  0 10  0.0000000  0  8G10G28G09G17G12G05G04G02
 -17027754.80347 -13184029.46545  21292097.0944                   21292098.4264
  -3813309.56446  -2934515.38643  23937779.7664                   23937782.9064
  -8766381.99647  -6389160.95845  22680909.0634                   22680910.7704
 -11247299.464 7  -8715130.231 7  22411101.672
 -12086091.036 7  -9397182.943 6  22469963.617
  -6218294.540 7  -4809069.060 6  23566687.195
 -21710101.94848 -16868312.49646  20613513.8364                   20613514.8914
 -21197109.86448 -16469605.86346  20806285.1484                   20806283.7544
 11  8 13  0 10 30.0000000  0  8G10G28G09G17G12G05G04G02
 -17077152.54448 -13222521.17045  21282696.9224                   21282697.7624
  -3715050.34946  -2857949.89243  23956478.6414                   23956480.5824
  -8708732.20847  -6344239.11545  22691878.6094                   22691881.9844
 -11203519.750 7  -8681016.180 7  22419432.633
 -12170726.267 7  -9463132.412 7  22453858.398
  -6323776.695 7  -4891262.796 6  23546614.172
 -21652558.40348 -16823473.37446  20624463.6954                   20624465.0864
 -21225126.92448 -16491437.31146  20800953.7114                   20800951.9104
 11  8 13  0 11  0.0000000  0  8G10G28G09G17G12G05G04G02
 -17126031.61148 -13260608.71345  21273395.5394                   21273396.4534
  -3616564.42346  -2781207.71143  23975219.6954                   23975221.9494
  -8650664.33147  -6298991.50045  22702928.7664                   22702932.1214
 -11159622.891 7  -8646810.872 7  22427785.641
 -12255116.220 7  -9528890.786 7  22437799.578
  -6429194.831 7  -4973406.634 6  23526553.266
 -21594688.80248 -16778380.18546  20635476.1334                   20635477.1294
 -21252784.70648 -16512988.80946  20795690.6334                   20795688.9064
 11  8 13  0 11 30.0000000  0  8G10G28G09G17G12G05G04G02
 -17174390.06948 -13298290.58345  21264193.1024                   21264194.5124
  -3517854.74546  -2704291.13843  23994003.3524                   23994005.4184
  -8592182.13447  -6253421.00244  22714057.6804                   22714060.1414
 -11115610.135 7  -8612515.249 7  22436161.477
 -12339259.182 7  -9594456.694 7  22421787.359
  -6534546.908 7  -5055498.986 6  23506506.203
 -21536496.43948 -16733035.49046  20646549.7034                   20646550.5164
 -21280084.34248 -16534261.23346  20790495.5164                   20790493.8484
 11  8 13  0 12  0.0000000  0  8G10G28G09G17G12G05G04G02
 -17222224.72248 -13335564.29746  21255090.5164                   21255091.5554
  -3418922.59146  -2627201.32343  24012829.4224                   24012832.3244
  -8533287.87747  -6207529.41945  22725265.1414                   22725267.9734
 -11071479.661 7  -8578127.895 7  22444559.156
 -12423151.282 7  -9659827.122 6  22405823.406
  -6639829.457 7  -5137537.193 6  23486471.297
 -21477982.62248 -16687440.31546  20657684.1884                   20657685.6374
 -21307025.64148 -16555254.43246  20785368.9534                   20785367.6174
 11  8 13  0 12 30.0000000  0  8G10G28G09G17G12G05G04G02
 -17269533.59448 -13372428.30746  21246087.8674                   21246088.9304
  -3319770.44046  -2549940.01743  24031697.6884                   24031700.3834
  -8473985.16747  -6161319.58344  22736549.7894                   22736552.3364
 -11027231.330 7  -8543648.708 7  22452979.469
 -12506791.427 7  -9725001.237 7  22389907.211
  -6745039.808 7  -5219519.136 6  23466450.063
 -21419150.38448 -16641597.04246  20668880.0634                   20668880.7114
 -21333609.64348 -16575969.22446  20780310.2424                   20780308.6334
 11  8 13  0 13  0.0000000  0  8G10G28G09G17G12G05G04G02
 -17316315.34448 -13408881.56246  21237185.4844                   21237186.6134
  -3220400.61446  -2472509.06843  24050606.7584                   24050609.7854
  -8414277.85747  -6114794.45044  22747911.8444                   22747914.5904
 -10982865.154 7  -8509077.680 7  22461422.320
 -12590177.248 7  -9789977.153 7  22374039.063
  -6850175.819 7  -5301443.151 6  23446443.375
 -21360002.53748 -16595507.82546  20680135.3674                   20680136.4304
 -21359837.57848 -16596406.54946  20775318.8834                   20775317.4264
 11  8 13  0 13 30.0000000  0  8G10G28G09G17G12G05G04G02
 -17362564.98148 -13444920.20246  21228384.5474                   21228385.5004
  -3120812.39046  -2394908.01842  24069558.1954                   24069561.2974
  -8354166.05347  -6067954.15544  22759350.6484                   22759353.4144
 -10938378.424 7  -8474412.721 7  22469887.688
 -12673303.258 7  -9854750.654 7  22358220.883
  -6955231.720 7  -5383304.735 6  23426451.445
 -21300538.72448 -16549172.40046  20691451.2584                   20691452.0234
 -21385706.93948 -16616564.48046  20770396.2114                   20770394.3874
 11  8 13  0 14  0.0000000  0  8G10G28G09G17G12G05G04G02
 -17408282.82748 -13480544.45146  21219684.8594                   21219685.7384
  -3021010.62746  -2317140.60543  24088550.6804                   24088552.7664
  -8293655.94547  -6020803.46744  22770865.3594                   22770868.4264
 -10893772.854 7  -8439655.187 7  22478375.672
 -12756170.238 7  -9919322.275 7  22342451.414
  -7060207.575 7  -5465103.968 6  23406475.914
 -21240764.43548 -16502595.02146  20702825.7894                   20702826.6294
 -21411221.55048 -16636445.97546  20765540.6334                   20765539.5124
 11  8 13  0 14 30.0000000  0  8G10G28G09G17G12G05G04G02
 -17453465.95948 -13515752.05746  21211086.8524                   21211087.8674
  -2920996.64446  -2239207.71743  24107583.0864                   24107585.6954
  -8232750.23947  -5973344.52644  22782456.2344                   22782458.5664
 -10849047.917 7  -8404804.591 7  22486886.539
 -12838774.738 7  -9983689.383 7  22326732.781
  -7165100.138 7  -5546838.321 6  23386514.406
 -21180681.20748 -16455776.91546  20714259.1334                   20714260.0474
 -21436380.91848 -16656050.66046  20760753.0164                   20760751.7344
 11  8 13  0 15  0.0000000  0  8G10G28G09G17G12G05G04G02
 -17498112.35948 -13550541.41545  21202590.6094                   21202591.5944
  -2820772.42546  -2161111.03343  24126654.6094                   24126657.2584
  -8171452.31547  -5925579.98844  22794120.3914                   22794122.7234
 -10804202.501 7  -8369860.130 7  22495420.586
 -12921113.988 7 -10047849.803 7  22311064.242
  -7269906.530 7  -5628505.495 6  23366570.594
 -21120291.71548 -16408720.17946  20725750.9224                   20725752.6334
 -21461185.83048 -16675379.16346  20756032.7504                   20756031.4884
 11  8 13  0 15 30.0000000  0  8G10G28G09G17G12G05G04G02
 -17542218.35148 -13584909.68346  21194197.2974                   21194198.5704
  -2720338.39246  -2082850.86243  24145766.1024                   24145770.1254
  -8109763.66147  -5877510.97944  22805859.4694                   22805862.1684
 -10759235.110 7  -8334820.638 7  22503977.969
 -13003184.190 8 -10111800.572 7  22295447.039
  -7374622.110 7  -5710101.918 6  23346643.781
 -21059596.53848 -16361425.24346  20737301.1644                   20737301.8164
 -21485635.20548 -16694430.60446  20751380.5474                   20751378.9884
 11  8 13  0 16  0.0000000  0  8G10G28G09G17G12G05G04G02
 -17585782.46248 -13618855.71146  21185907.6804                   21185908.9104
  -2619697.56346  -2004429.53843  24164917.8984                   24164921.7894
  -8047688.44847  -5829140.73644  22817671.9144                   22817674.8984
 -10714145.818 7  -8299686.144 7  22512558.180
 -13084983.835 7 -10175540.523 7  22279880.719
  -7479244.864 7  -5791626.035 6  23326734.898
 -20998599.11548 -16313894.78546  20748908.1884                   20748909.2934
 -21509730.51448 -16713206.16246  20746795.2664                   20746793.8204
 11  8 13  0 16 30.0000000  0  8G10G28G09G17G12G05G04G02
 -17628803.36248 -13652378.45446  21177721.1334                   21177721.7894
  -2518852.42546  -1925848.99943  24184108.3134                   24184111.3914
  -7985230.33246  -5780472.13844  22829556.6644                   22829559.6604
 -10668934.669 7  -8264456.685 7  22521160.813
 -13166510.732 7 -10239067.956 7  22264366.359
  -7583772.543 7  -5873076.081 6  23306843.227
 -20937302.27948 -16266131.03446  20760572.8524                   20760573.6994
 -21533472.95248 -16731706.74946  20742277.1724                   20742275.8054
 11  8 13  0 17  0.0000000  0  8G10G28G09G17G12G05G04G02
 -17671278.21248 -13685475.71346  21169638.0864                   21169639.2344
  -2417804.62646  -1847110.58943  24203337.7424                   24203340.8794
  -7922391.86346  -5731507.18144  22841515.2814                   22841518.2034
 -10623600.627 7  -8229131.461 7  22529787.453
 -13247761.841 7 -10302380.488 7  22248905.125
  -7688201.580 7  -5954449.257 6  23286971.383
 -20875708.07148 -16218135.55846  20772293.9844                   20772294.4924
 -21556862.68248 -16749932.50946  20737826.4144                   20737824.2854
 11  8 13  0 17 30.0000000  0  8G10G28G09G17G12G05G04G02
 -17713204.98948 -13718145.90146  21161659.2504                   21161660.7234
  -2316556.07346  -1768215.68443  24222604.2664                   24222606.8204
  -7859176.59547  -5682248.58744  22853543.9844                   22853547.2544
 -10578143.607 7  -8193710.404 7  22538438.227
 -13328734.803 7 -10365476.264 7  22233495.906
  -7792529.401 7  -6035743.557 6  23267118.648
 -20813818.70648 -16169910.07346  20784070.7114                   20784071.8054
 -21579900.41548 -16767883.98146  20733442.1564                   20733440.6334
 11  8 13  0 18  0.0000000  0  8G10G28G09G17G12G05G04G02
 -17754580.35148 -13750386.40846  21153786.3054                   21153787.0204
  -2215107.45846  -1689164.93043  24241909.7584                   24241911.8284
  -7795586.30147  -5632697.78644  22865645.0164                   22865648.0594
 -10532561.358 7  -8158191.788 7  22547112.352
 -13409425.632 7 -10428352.206 7  22218141.055
  -7896751.600 7  -6116955.575 7  23247284.953
 -20751635.44248 -16121455.59946  20795904.0314                   20795904.7194
 -21602585.24648 -16785560.45646  20729125.6724                   20729123.8134
 11  8 13  0 18 30.0000000  0  8G10G28G09G17G12G05G04G02
 -17795404.51848 -13782197.41446  21146017.1564                   21146019.0354
  -2113463.24346  -1609961.76443  24261252.5394                   24261255.0234
  -7731626.81547  -5582859.29644  22877816.2814                   22877819.2034
 -10486855.680 7  -8122576.982 7  22555810.148
 -13489833.993 7 -10491008.020 7  22202839.945
  -8000867.634 7  -6198084.842 7  23227473.023
 -20689162.90048 -16072775.70746  20807792.1414                   20807793.4104
 -21624920.20448 -16802964.31446  20724875.2664                   20724873.9064
 11  8 13  0 19  0.0000000  0  8G10G28G09G17G12G05G04G02
 -17835674.17448 -13813576.35045  21138354.4384                   21138355.7304
  -2011624.01646  -1530606.64143  24280630.8674                   24280634.3634
  -7667299.81247  -5532734.44344  22890057.6724                   22890060.5594
 -10441024.604 7  -8086864.463 7  22564531.273
 -13569955.883 7 -10553440.647 7  22187593.398
  -8104873.118 7  -6279127.970 7  23207680.977
 -20626401.82048 -16023870.97646  20819735.2344                   20819736.3484
 -21646904.54548 -16820094.94846  20720691.4614                   20720690.3364
 11  8 13  0 19 30.0000000  0  8G10G28G09G17G12G05G04G02
 -17875387.84848 -13844522.04246  21130797.1644                   21130798.6884
  -1909592.25845  -1451101.47542  24300046.5474                   24300050.6214
  -7602609.34647  -5482326.36344  22902367.9694                   22902370.8874
 -10395068.087 7  -8051054.190 6  22573276.164
 -13649789.514 8 -10615648.627 7  22172401.672
  -8208765.670 7  -6360083.096 7  23187910.758
 -20563355.46648 -15974743.95446  20831732.5554                   20831733.3754
 -21668539.44748 -16836953.30546  20716574.9224                   20716573.1994
 11  8 13  0 20  0.0000000  0  8G10G28G09G17G12G05G04G02
 -17914538.15248 -13875028.73846  21123346.7034                   21123347.9454
  -1807364.89045  -1371443.90342  24319500.7504                   24319504.6214
  -7537553.16547  -5431633.31544  22914747.1414                   22914750.5514
 -10348980.843 7  -8015142.039 6  22582046.250
 -13729327.190 8 -10677626.006 7  22157266.477
  -8312536.861 7  -6440943.670 7  23168163.852
 -20500020.68248 -15925392.18046  20843784.5704                   20843785.6684
 -21689820.21448 -16853535.70946  20712524.9144                   20712523.5904
 11  8 13  0 20 30.0000000  0  7G10G09G17G12G05G04G02
 -17953132.56048 -13905102.29146  21116002.5234                   21116004.1294
  -7472144.11446  -5380665.28344  22927195.0084                   22927197.7624
 -10302771.544 7  -7979134.807 7  22590839.117
 -13808575.496 7 -10739377.931 7  22142185.641
  -8416193.931 7  -6521715.283 7  23148438.625
 -20436409.55748 -15875825.08746  20855889.4304                   20855890.6134
 -21710757.02348 -16869850.10346  20708541.0234                   20708539.3554
 11  8 13  0 21  0.0000000  0  7G10G09G17G12G05G04G02
 -17991164.05848 -13934737.20246  21108765.8594                   21108766.7234
  -7406380.33846  -5329420.82844  22939708.6024                   22939711.7974
 -10256434.336 7  -7943027.880 7  22599657.227
 -13887526.810 8 -10800898.411 7  22127161.250
  -8519728.308 7  -6602391.297 7  23128736.305
 -20372519.14348 -15826040.35146  20868047.4304                   20868048.2424
 -21731345.44048 -16885893.02346  20704623.5394                   20704621.3834
 11  8 13  0 21 30.0000000  0  7G10G09G17G12G05G04G02
 -18028631.20748 -13963932.35746  21101636.0704                   21101636.8754
  -7340265.73947  -5277903.01944  22952289.4844                   22952292.9804
 -10209969.429 7  -7906821.474 7  22608499.461
 -13966179.175 7 -10862185.920 7  22112194.320
  -8623137.664 7  -6682969.906 7  23109058.063
 -20308352.44948 -15776040.35346  20880257.9614                   20880259.1054
 -21751586.73648 -16901665.45846  20700771.4304                   20700769.8324
 11  8 13  0 22  0.0000000  0  7G10G09G17G12G05G04G02
 -18065532.51948 -13992686.59846  21094613.9774                   21094615.1484
  -7273803.96847  -5226114.68744  22964937.9844                   22964940.8164
 -10163376.690 7  -7870515.458 6  22617365.609
 -14044530.175 8 -10923238.629 7  22097284.922
  -8726419.504 7  -6763449.120 7  23089403.898
 -20243912.05648 -15725827.09446  20892520.7114                   20892521.9924
 -21771482.07648 -16917168.31146  20696985.6644                   20696984.0664
 11  8 13  0 22 30.0000000  0  7G10G09G17G12G05G04G02
 -18101864.88848 -14020997.51846  21087699.8054                   21087701.0984
  -7206996.76547  -5174057.19844  22977650.5394                   22977653.6954
 -10116654.186 7  -7834108.327 7  22626256.656
 -14122576.286 8 -10984053.750 7  22082433.125
  -8829569.395 7  -6843825.536 6  23069775.734
 -20179199.12648 -15675401.45046  20904835.1094                   20904836.3484
 -21791030.54648 -16932400.87546  20693265.7664                   20693263.5274
 11  8 13  0 23  0.0000000  0  7G10G09G17G12G05G04G02
 -18137627.72048 -14048864.61346  21080894.1954                   21080895.6484
  -7139849.00647  -5121734.33744  22990428.2114                   22990431.2774
 -10069802.773 7  -7797600.744 7  22635172.430
 -14200316.449 8 -11044630.473 7  22067640.281
  -8932586.032 7  -6924098.152 7  23050171.586
 -20114217.40148 -15624766.36446  20917200.5084                   20917201.5234
 -21810234.41048 -16947364.91946  20689611.1804                   20689609.6844
 11  8 13  0 23 30.0000000  0  7G10G09G17G12G05G04G02
 -18172818.78548 -14076286.19546  21074197.9224                   21074198.7774
  -7072363.48047  -5069148.22744  23003270.2194                   23003273.5634
 -10022821.216 7  -7760991.771 7  22644112.461
 -14277747.324 8 -11104966.204 7  22052904.805
  -9035466.023 7  -7004264.263 6  23030594.688
 -20048968.73648 -15573923.26546  20929617.3134                   20929618.1914
 -21829093.93048 -16962060.64746  20686022.5554                   20686021.0124
 11  8 13  0 24  0.0000000  0  7G10G09G17G12G05G04G02
 -18207435.36148 -14103260.11646  21067610.4144                   21067611.6174
  -7004542.99347  -5016301.18544  23016176.3284                   23016179.9344
  -9975708.702 7  -7724280.755 7  22653077.336
 -14354865.810 8 -11165058.518 7  22038230.039
  -9138205.437 7  -7084320.837 7  23011043.586
 -19983454.68348 -15522873.37546  20942083.9064                   20942085.1764
 -21847609.04948 -16976487.99846  20682499.0004                   20682497.2664
 11  8 13  0 24 30.0000000  0  7G10G09G17G12G05G04G02
 -18241476.27048 -14129785.47146  21061133.0084                   21061134.0434
  -6936391.48547  -4963196.20444  23029145.9454                   23029148.9304
  -9928464.864 7  -7687467.420 7  22662067.891
 -14431669.898 7 -11224905.812 7  22023614.688
  -9240802.118 7  -7164266.222 7  22991519.922
 -19917678.16248 -15471618.97146  20954600.7734                   20954601.5354
 -21865781.21048 -16990648.10746  20679041.1174                   20679039.3714
 11  8 13  0 25  0.0000000  0  7G10G09G17G12G05G04G02
 -18274941.02648 -14155861.87246  21054764.4304                   21054765.3634
  -6867913.43147  -4909836.72544  23042176.2974                   23042179.1524
  -9881090.269 7  -7650552.185 7  22671083.172
 -14508158.006 8 -11284506.906 7  22009059.055
  -9343254.301 7  -7244099.010 7  22972024.305
 -19851642.49048 -15420162.63046  20967167.5394                   20967167.8014
 -21883612.02648 -17004542.24146  20675647.7424                   20675646.4224
 11  8 13  0 25 30.0000000  0  7G10G09G17G12G05G04G02
 -18307824.81648 -14181485.57346  21048507.0084                   21048507.9804
  -6799109.05046  -4856222.99044  23055268.8204                   23055273.4654
  -9833581.649 7  -7613532.532 7  22680124.078
 -14584324.687 8 -11343857.531 7  21994565.188
  -9445555.861 7  -7323814.380 7  22952556.445
 -19785347.18848 -15368503.96446  20979782.8984                   20979783.3594
 -21901099.31048 -17018168.68646  20672319.7424                   20672318.3954
 11  8 13  0 26  0.0000000  0  7G10G09G17G12G05G04G02
 -18340127.69848 -14206656.62046  21042359.6564                   21042361.0634
  -6729983.90347  -4802359.29144  23068423.3594                   23068426.5904
  -9785940.427 7  -7576409.542 7  22689189.422
 -14660169.426 7 -11402957.296 7  21980132.438
  -9547705.720 7  -7403411.576 7  22933118.258
 -19718796.59648 -15316646.37446  20992446.6804                   20992447.8484
 -21918245.98948 -17031529.72646  20669057.3054                   20669055.8954
 11  8 13  0 26 30.0000000  0  7G10G09G17G12G05G04G02
 -18371848.69048 -14231374.24846  21036323.7344                   21036324.6484
  -6660541.73547  -4748248.60944  23081638.0314                   23081641.1844
  -9738166.381 7  -7539183.048 7  22698280.789
 -14735690.097 8 -11461804.552 7  21965761.344
  -9649701.526 7  -7482888.703 7  22913709.133
 -19651993.52948 -15264592.06846  21005159.0314                   21005160.2934
 -21935053.15248 -17044626.20346  20665858.7664                   20665857.4344
 11  8 13  0 27  0.0000000  0  7G10G09G17G12G05G04G02
 -18402984.57148 -14255635.93446  21030398.8914                   21030399.0984
  -6590784.06047  -4693892.04144  23094912.1334                   23094915.8164
  -9690257.576 7  -7501851.568 7  22707397.750
 -14810882.679 8 -11520396.131 7  21951452.414
  -9751538.792 7  -7562242.321 7  22894329.555
 -19584938.54748 -15212341.45046  21017919.2814                   21017920.3134
 -21951519.94848 -17057457.45946  20662725.5704                   20662723.7734
 11  8 13  0 27 30.0000000  0  7G10G09G17G12G05G04G02
 -18433535.48848 -14279441.80946  21024584.8134                   21024585.7894
  -6520716.28547  -4639293.86844  23108245.8524                   23108249.4694
  -9642214.918 7  -7464415.771 7  22716539.773
 -14885746.076 8 -11578731.255 7  21937206.492
  -9853216.131 7  -7641471.310 7  22874980.813
 -19517635.94048 -15159897.88746  21030726.6884                   21030727.7584
 -21967648.95248 -17070025.50146  20659656.0704                   20659654.8054
 11  8 13  0 28  0.0000000  0  7G10G09G17G12G05G04G02
 -18463498.05448 -14302789.22746  21018883.0864                   21018883.9144
  -6450340.12147  -4584455.37544  23121638.5474                   23121641.4844
  -9594036.271 7  -7426873.999 7  22725708.039
 -14960275.862 7 -11636806.382 7  21923024.094
  -9954729.389 7  -7720572.472 7  22855663.977
 -19450086.17448 -15107261.73046  21043580.6094                   21043581.7194
 -21983439.29748 -17082329.65746  20656651.3054                   20656649.5164
 11  8 13  0 28 30.0000000  0  7G10G09G17G12G05G04G02
 -18492872.05648 -14325678.04446  21013293.2504                   21013294.0514
  -6379660.15347  -4529380.16144  23135088.5164                   23135091.4144
  -9545722.501 7  -7389226.944 7  22734901.844
 -15034471.605 7 -11694621.218 7  21908904.922
 -10056076.838 7  -7799544.371 7  22836377.234
 -19382292.85248 -15054435.77546  21056481.2114                   21056482.3134
 -21998893.35448 -17094371.76646  20653710.6484                   20653709.2034
 11  8 13  0 29  0.0000000  0  7G10G09G17G12G05G04G02
 -18521654.38148 -14348105.78446  21007816.6174                   21007817.2734
  -6308678.44747  -4474069.81244  23148595.2274                   23148599.4614
  -9497271.743 7  -7351473.150 7  22744121.375
 -15108329.137 7 -11752172.500 7  21894850.180
 -10157253.651 7  -7878383.361 7  22817124.133
 -19314256.99348 -15001420.82446  21069428.5394                   21069429.2734
 -22014010.25248 -17106151.14846  20650833.9304                   20650832.3714
 11  8 13  0 29 30.0000000  0  7G10G09G17G12G05G04G02
 -18549845.21748 -14370072.63946  21002451.9614                   21002452.7194
  -6237399.50847  -4418527.84444  23162159.6804                   23162162.7934
  -9448684.362 7  -7313612.864 6  22753367.086
 -15181847.012 7 -11809459.130 7  21880860.266
 -10258258.193 7  -7957088.105 6  22797904.203
 -19245982.13848 -14948219.65946  21082420.7114                   21082422.0004
 -22028792.02248 -17117669.39246  20648021.1254                   20648019.6214
 11  8 13  0 30  0.0000000  0  7G10G09G17G12G05G04G02
 -18577442.10548 -14391576.67046  20997200.2504                   20997201.1174
  -6165826.06446  -4362756.42944  23175779.3364                   23175783.0634
  -9399959.342 7  -7275645.342 6  22762639.492
 -15255021.889 7 -11866478.478 7  21866935.352
 -10359086.767 7  -8035655.733 7  22778716.703
 -19177469.57948 -14894833.28146  21095458.2344                   21095459.4694
 -22043238.51248 -17128926.38246  20645271.6484                   20645269.8014
 11  8 13  0 30 30.0000000  0  7G10G09G17G12G05G04G02
 -18604445.37648 -14412618.15346  20992061.7274                   20992062.4144
  -6093963.45447  -4306759.65844  23189454.6414                   23189457.7624
  -9351097.751 7  -7237571.396 6  22771937.703
 -15327853.017 7 -11923230.004 7  21853076.414
 -10459738.287 7  -8114085.387 7  22759563.633
 -19108723.60048 -14841265.00846  21108540.2504                   21108541.1994
 -22057352.91348 -17139924.59546  20642585.6334                   20642584.1214
 11  8 13  0 31  0.0000000  0  7G10G09G17G12G05G04G02
 -18630850.16848 -14433193.28946  20987037.0864                   20987037.9694
  -6021811.80147  -4250537.67144  23203184.8914                   23203188.4614
  -9302096.103 7  -7199388.303 6  22781262.789
 -15400334.955 7 -11979709.405 7  21839282.984
 -10560206.916 7  -8192372.537 7  22740444.508
 -19039743.50648 -14787514.30146  21121666.5084                   21121667.9384
 -22071132.64148 -17150662.01646  20639963.6564                   20639962.4804
 11  8 13  0 31 30.0000000  0  7G10G09G17G12G05G04G02
 -18656657.82248 -14453303.13846  20982126.1024                   20982126.7704
  -5949377.32646  -4194095.32244  23216968.9454                   23216972.2974
  -9252956.584 7  -7161097.791 7  22790613.273
 -15472467.767 7 -12035916.771 7  21825556.961
 -10660492.431 7  -8270517.042 7  22721361.453
 -18970533.94448 -14733584.78946  21134836.9224                   21134837.7234
 -22084581.44548 -17161141.57546  20637404.4534                   20637402.9614
 11  8 13  0 32  0.0000000  0  7G10G09G17G12G05G04G02
 -18681865.63948 -14472945.56646  20977329.5394                   20977329.9654
  -5876661.55647  -4137433.78044  23230806.0394                   23230809.5354
  -9203676.840 7  -7122698.006 7  22799991.336
 -15544247.331 7 -12091848.869 7  21811897.852
 -10760589.863 7  -8348514.938 7  22702313.227
 -18901095.90448 -14679477.24346  21148050.2194                   21148051.5004
 -22097698.08948 -17171362.30546  20634908.6334                   20634907.2274
 11  8 13  0 32 30.0000000  0  7G10G09G17G12G05G04G02
 -18706471.19748 -14492118.71846  20972646.7814                   20972647.0234
  -5803667.38947  -4080555.26044  23244696.0864                   23244699.6374
  -9154255.626 7  -7084187.966 7  22809395.523
 -15615670.201 7 -12147503.052 7  21798305.891
 -10860495.584 7  -8426363.489 7  22683301.102
 -18831430.75548 -14625192.71546  21161307.1254                   21161308.2074
 -22110483.19748 -17181324.70146  20632475.7504                   20632473.8874
 11  8 13  0 33  0.0000000  0  7G10G09G17G12G05G04G02
 -18730474.92748 -14510822.91446  20968079.1094                   20968079.5704
  -5730400.12547  -4023463.97344  23258638.6024                   23258641.7854
  -9104694.303 7  -7045568.776 7  22818826.648
 -15686735.648 8 -12202878.699 7  21784782.883
 -10960208.340 7  -8504061.658 7  22664326.789
 -18761542.37448 -14570734.23646  21174606.6334                   21174607.6484
 -22122939.14848 -17191030.60846  20630105.5004                   20630103.8364
 11  8 13  0 33 30.0000000  0  7G10G09G17G12G05G04G02
 -18753875.46848 -14529057.08946  20963626.2274                   20963627.0204
  -5656862.85647  -3966162.28044  23272632.6414                   23272635.5704
  -9054992.021 7  -7006839.753 7  22828284.641
 -15757441.223 8 -12257973.926 7  21771328.266
 -11059725.138 7  -8581607.142 7  22645389.539
 -18691432.99448 -14516103.55146  21187947.7194                   21187948.9924
 -22135066.52948 -17200480.49746  20627797.5704                   20627795.8204
 11  8 13  0 34  0.0000000  0  8G10G25G09G17G12G05G04G02
 -18776669.39648 -14546818.58746  20959288.4144                   20959289.1094
   -234619.520 6   -169895.943 6  24654438.125
  -5583057.11847  -3908651.40444  23286677.3364                   23286681.0204
  -9005146.478 7  -6967999.108 6  22837770.742
 -15827782.546 8 -12312785.331 7  21757942.734
 -11159041.267 7  -8658996.262 7  22626489.688
 -18621103.06148 -14461301.01446  21201331.1094                   21201332.2154
 -22146864.51948 -17209673.71846  20625552.5704                   20625550.4774
 11  8 13  0 34 30.0000000  0  8G10G25G09G17G12G05G04G02
 -18798861.63848 -14564111.23746  20955065.4144                   20955066.2114
   -337938.977 6   -250404.540 6  24634777.328
  -5508992.31647  -3850938.67144  23300771.3444                   23300774.5664
  -8955162.874 7  -6929050.875 7  22847281.523
 -15897762.693 8 -12367315.300 7  21744626.055
 -11258159.412 7  -8736231.094 7  22607628.078
 -18550560.47248 -14406332.77546  21214755.0394                   21214756.0864
 -22158339.89148 -17218615.54746  20623368.6564                   20623367.1094
 11  8 13  0 35  0.0000000  0  8G10G25G09G17G12G05G04G02
 -18820442.78648 -14580927.71046  20950958.6024                   20950959.4884
   -441147.634 6   -330826.856 5  24615138.063
  -5434663.67647  -3793020.33444  23314915.4924                   23314919.3954
  -8905032.729 7  -6889988.461 7  22856820.648
 -15967371.393 8 -12421555.816 7  21731379.781
 -11357068.248 7  -8813302.808 7  22588806.250
 -18479799.51748 -14351194.37846  21228220.4224                   21228221.5664
 -22169485.52548 -17227300.43646  20621247.7894                   20621246.1994
 11  8 13  0 35 30.0000000  0  8G10G25G09G17G12G05G04G02
 -18841414.52148 -14597269.31846  20946967.5634                   20946968.8364
   -544246.261 6   -411163.452 5  24595518.156
  -5360077.46947  -3734901.32744  23329109.2274                   23329112.5164
  -8854758.368 7  -6850813.680 6  22866387.898
 -16036609.129 8 -12475507.293 7  21718204.289
 -11455768.457 7  -8890211.984 7  22570024.359
 -18408825.38748 -14295889.87046  21241726.3364                   21241727.0824
 -22180305.22448 -17235731.35946  20619188.7274                   20619187.1644
 11  8 13  0 36  0.0000000  0  8G10G25G09G17G12G05G04G02
 -18861776.82548 -14613136.03546  20943093.0784                   20943094.0664
   -647233.285 6   -491413.046 6  24575920.328
  -5285238.23847  -3676585.18344  23343350.6954                   23343354.5474
  -8804340.208 7  -6811526.848 6  22875982.039
 -16105474.289 7 -12529168.453 7  21705099.672
 -11554257.700 7  -8966956.767 7  22551282.289
 -18337641.39848 -14240421.82846  21255272.3444                   21255273.3554
 -22190800.93348 -17243909.82946  20617191.3834                   20617190.0664
 11  8 13  0 36 30.0000000  0  8G10G25G09G17G12G05G04G02
 -18881527.10648 -14628525.84746  20939334.9774                   20939335.1094
   -750105.182 6   -571572.935 6  24556344.555
  -5210148.58247  -3618073.86144  23357639.6724                   23357642.9574
  -8753776.621 7  -6772126.696 6  22885604.031
 -16173963.428 8 -12582536.592 7  21692066.664
 -11652532.008 7  -9043534.088 7  22532581.227
 -18266248.62048 -14184791.08646  21268857.7894                   21268858.6604
 -22200972.39648 -17251835.63246  20615256.1484                   20615254.5434
 11  8 13  0 37  0.0000000  0  8G10G25G09G17G12G05G04G02
 -18900664.74248 -14643438.27946  20935692.8134                   20935693.4184
   -852860.028 6   -651641.648 6  24536790.438
  -5134812.18547  -3559370.34444  23371976.7504                   23371979.6764
  -8703067.754 7  -6732613.322 6  22895254.156
 -16242074.414 8 -12635610.089 7  21679105.234
 -11750588.982 7  -9119942.021 7  22513922.203
 -18194649.84748 -14128999.83746  21282482.4534                   21282483.4614
 -22210821.16648 -17259509.98846  20613381.7114                   20613380.2154
 11  8 13  0 37 30.0000000  0  8G10G25G09G17G12G05G04G02
 -18919189.25648 -14657872.95146  20932167.7584                   20932168.6454
   -955495.550 6   -731617.337 6  24517259.641
  -5059232.92647  -3500477.53444  23386358.7274                   23386361.7274
  -8652213.398 7  -6692986.579 6  22904930.516
 -16309805.221 8 -12688387.333 7  21666216.766
 -11848425.808 7  -9196178.441 7  22495303.977
 -18122847.34248 -14073049.83446  21296146.0704                   21296147.3244
 -22220348.23948 -17266933.66946  20611568.9924                   20611567.3594
 11  8 13  0 38  0.0000000  0  8G10G25G09G17G12G05G04G02
 -18937099.50048 -14671828.96346  20928759.7194                   20928760.2424
  -1058009.165 6   -811498.114 6  24497752.578
  -4983414.04647  -3441397.99144  23400786.5314                   23400790.4574
  -8601212.442 7  -6653245.622 6  22914636.109
 -16377153.568 8 -12740866.564 7  21653400.930
 -11946039.751 7  -9272241.167 7  22476728.672
 -18050843.54948 -14016943.00446  21309848.0394                   21309849.2664
 -22229554.71848 -17274107.54146  20609816.8834                   20609815.0124
 11  8 13  0 38 30.0000000  0  8G10G25G09G17G12G05G04G02
 -18954394.96048 -14685305.92046  20925468.5474                   20925469.3284
  -1160398.964 6   -891282.362 6  24478267.969
  -4907359.25247  -3382134.46744  23415259.1024                   23415262.6334
  -8550065.416 7  -6613390.815 6  22924369.219
 -16444116.961 8 -12793045.829 7  21640658.164
 -12043428.081 7  -9348128.110 7  22458196.531
 -17978640.88448 -13960681.21746  21323587.7814                   21323589.1804
 -22238441.84448 -17281032.55946  20608126.0084                   20608123.8754
 11  8 13  0 39  0.0000000  0  8G10G25G09G17G12G05G04G02
 -18971073.77048 -14698302.38346  20922294.0704                   20922295.0594
  -1262661.549 6   -970967.456 6  24458808.188
  -4831071.47047  -3322689.51644  23429776.2424                   23429779.8484
  -8498770.791 7  -6573421.021 6  22934130.578
 -16510692.225 7 -12844922.667 7  21627989.383
 -12140586.993 7  -9423836.273 7  22439707.500
 -17906240.84748 -13904265.61046  21337365.1644                   21337366.0904
 -22247009.83648 -17287708.89346  20606495.1804                   20606493.6094
 11  8 13  0 39 30.0000000  0  8G10G25G09G17G12G05G04G02
 -18987134.28448 -14710817.05946  20919238.3524                   20919239.3324
  -1364793.726 7  -1050550.954 6  24439372.102
  -4754553.71447  -3263065.39644  23444337.5084                   23444341.0784
  -8447327.002 7  -6533334.972 6  22943919.664
 -16576876.196 8 -12896494.598 7  21615395.055
 -12237513.024 7  -9499362.983 7  22421262.703
 -17833644.91548 -13847697.36645  21351179.3834                   21351180.1564
 -22255258.94848 -17294136.76046  20604925.5474                   20604923.8094
 11  8 13  0 40  0.0000000  0  8G10G25G09G17G12G05G04G02
 -19002576.70148 -14722850.09746  20916299.5164                   20916300.1954
  -1466794.404 6  -1130031.954 6  24419962.008
  -4677810.38147  -3203265.47844  23458941.3594                   23458945.3284
  -8395735.016 7  -6493133.436 6  22953737.344
 -16642667.858 8 -12947760.833 7  21602875.477
 -12334204.492 7  -9574706.912 7  22402862.828
 -17760856.46148 -13790979.09945  21365030.1484                   21365031.4964
 -22263191.35448 -17300317.85646  20603415.9224                   20603414.4304
 11  8 13  0 40 30.0000000  0  8G10G25G09G17G12G05G04G02
 -19017398.72048 -14734399.71046  20913479.0234                   20913480.0204
  -1568659.682 6  -1209407.392 6  24400577.211
  -4600843.43547  -3143291.32344  23473588.0864                   23473591.2154
  -8343993.537 7  -6452815.433 6  22963583.313
 -16708063.833 7 -12998718.763 7  21590430.898
 -12430656.980 7  -9649864.627 7  22384508.828
 -17687876.32447 -13734111.47845  21378918.3364                   21378919.6884
 -22270806.95148 -17306252.08146  20601966.8444                   20601965.0704
 11  8 13  0 41  0.0000000  0  8G10G25G09G17G12G05G04G02
 -19031600.34548 -14745465.89746  20910777.0164                   20910777.7424
  -1670388.031 6  -1288676.210 6  24381219.500
  -4523657.62047  -3083146.66744  23488275.6724                   23488279.5314
  -8292102.291 7  -6412380.725 6  22973458.797
 -16773062.279 7 -13049366.907 7  21578061.914
 -12526868.494 7  -9724834.545 7  22366200.125
 -17614707.84948 -13677097.09345  21392841.9924                   21392842.5984
 -22278107.63348 -17311940.91946  20600577.5164                   20600575.7464
 11  8 13  0 41 30.0000000  0  8G10G25G09G17G12G05G04G02
 -19045180.94248 -14756048.16646  20908192.2424                   20908193.2584
  -1771977.166 6  -1367836.488 6  24361887.961
  -4446256.47547  -3022834.18244  23503003.7664                   23503008.2894
  -8240061.261 7  -6371829.284 6  22983361.250
 -16837661.114 7 -13099703.655 7  21565769.539
 -12622836.535 7  -9799614.791 7  22347938.250
 -17541353.28948 -13619937.71546  21406801.1724                   21406802.0084
 -22285094.60848 -17317385.30746  20599247.7504                   20599245.8754
 11  8 13  0 42  0.0000000  0  8G10G25G09G17G12G05G04G02
 -19058139.12148 -14766145.43846  20905726.7344                   20905727.3594
  -1873423.821 6  -1446885.769 6  24342583.781
  -4368642.62747  -2962355.93944  23517774.2034                   23517777.7814
  -8187869.061 7  -6331160.035 6  22993293.719
 -16901857.077 7 -13149726.482 7  21553553.031
 -12718557.146 7  -9874202.192 7  22329723.313
 -17467814.17348 -13562634.53245  21420795.1724                   21420795.7624
 -22291768.11848 -17322585.43546  20597977.8204                   20597976.0864
 11  8 13  0 42 30.0000000  0  8G10G25G09G17G12G05G04G02
 -19070475.57748 -14775758.25046  20903378.7504                   20903379.7814
  -1974726.884 7  -1525823.140 6  24323305.922
  -4290820.95746  -2901715.76844  23532582.8054                   23532586.8794
  -8135526.846 7  -6290373.901 6  23003253.422
 -16965648.769 7 -13199434.281 7  21541413.711
 -12814028.919 7  -9948595.704 7  22311555.328
 -17394093.85848 -13505190.15845  21434822.9384                   21434824.7704
 -22298130.41648 -17327543.07246  20596766.8674                   20596765.1764
 11  8 13  0 43  0.0000000  0  8G10G25G09G17G12G05G04G02
 -19082188.29748 -14784885.03846  20901149.8134                   20901150.6054
  -2075882.765 7  -1604645.857 6  24304057.430
  -4212793.89647  -2840915.55344  23547431.5864                   23547435.0084
  -8083032.679 7  -6249469.358 6  23013242.992
 -17029033.796 8 -13248825.201 7  21529351.641
 -12909248.146 7 -10022792.441 7  22293435.234
 -17320193.42048 -13447605.43845  21448886.1334                   21448887.7854
 -22304181.58048 -17332258.26846  20595615.6954                   20595614.0514
 11  8 13  0 43 30.0000000  0  8G10G25G09G17G12G05G04G02
 -19093276.44348 -14793525.12946  20899040.1564                   20899040.7934
  -2176888.567 7  -1683351.671 6  24284836.055
  -4134564.61547  -2779957.75244  23562317.3984                   23562321.0744
  -8030385.929 7  -6208445.927 7  23023261.250
 -17092008.656 7 -13297896.510 7  21517368.094
 -13004211.482 7 -10096789.752 7  22275364.313
 -17246114.75948 -13389881.83545  21462983.2274                   21462983.6254
 -22309922.11548 -17336731.41446  20594523.3054                   20594521.8674
 11  8 13  0 44  0.0000000  0  8G10G25G09G17G12G05G04G02
 -19103738.86748 -14801677.65446  20897048.8674                   20897049.8484
  -2277741.598 7  -1761938.427 6  24265644.570
  -4056136.13346  -2718844.73744  23577242.3834                   23577245.2154
  -7977585.858 6  -6167303.020 7  23033308.781
 -17154570.902 7 -13346646.276 7  21505463.203
 -13098915.453 7 -10170584.979 7  22257343.156
 -17171859.82148 -13332020.88045  21477113.5234                   21477114.0044
 -22315352.68348 -17340963.02646  20593489.8364                   20593488.0274
 11  8 13  0 44 30.0000000  0  8G10G25G09G17G12G05G04G02
 -19113575.22948 -14809342.33946  20895177.3444                   20895177.7774
  -2378439.820 7  -1840404.554 6  24246482.102
  -3977512.60647  -2657579.70844  23592204.3054                   23592207.5354
  -7924632.499 6  -6126040.674 7  23043385.359
 -17216718.807 8 -13395073.183 7  21493636.555
 -13193357.972 7 -10244176.491 7  22239371.164
 -17097431.05948 -13274024.46045  21491276.5394                   21491277.5004
 -22320475.24648 -17344954.64146  20592515.2584                   20592513.6644
 11  8 13  0 45  0.0000000  0  8G10G25G09G17G12G05G04G02
 -19122785.21748 -14816518.93346  20893424.4304                   20893425.4454
  -2478980.980 7  -1918748.313 6  24227350.039
  -3898697.54047  -2596165.39744  23607202.3914                   23607204.9224
  -7871525.741 6  -6084658.820 7  23053490.766
 -17278450.364 8 -13443175.653 7  21481889.625
 -13287536.154 7 -10317562.001 7  22221449.672
 -17022831.14248 -13215894.68645  21505472.3284                   21505473.6414
 -22325291.06548 -17348707.23146  20591598.9534                   20591597.6564
 11  8 13  0 45 30.0000000  0  8G10G25G09G17G12G05G04G02
 -19131367.80848 -14823206.65346  20891791.2894                   20891791.8204
  -2579361.957 7  -1996967.268 6  24208247.742
  -3819694.18446  -2534604.42343  23622234.9064                   23622239.7934
  -7818264.384 7  -6043156.489 7  23063626.359
 -17339762.316 7 -13490951.156 7  21470222.164
 -13381446.630 7 -10390738.942 7  22203578.711
 -16948061.26348 -13157632.48645  21519701.0234                   21519702.0704
 -22329800.38148 -17352220.98746  20590740.4614                   20590738.9184
 11  8 13  0 46  0.0000000  0  8G10G25G09G17G12G05G04G02
 -19139322.30748 -14829404.96346  20890277.5164                   20890278.1604
  -2679580.131 7  -2075059.351 6  24189177.266
  -3740505.71946  -2472899.22144  23637304.6804                   23637308.5044
  -7764848.011 7  -6001533.359 7  23073791.172
 -17400652.731 7 -13538398.203 7  21458635.016
 -13475086.612 7 -10463705.079 7  22185759.547
 -16873123.81348 -13099239.69945  21533960.8444                   21533962.1414
 -22334004.38048 -17355496.81946  20589940.3524                   20589938.6724
 11  8 13  0 46 30.0000000  0  8G10G25G09G17G12G05G04G02
 -19146647.65048 -14835113.01846  20888883.9384                   20888884.0314
  -2779632.601 6  -2153022.351 7  24170138.203
  -3661135.39746  -2411052.24643  23652408.4924                   23652411.4494
  -7711275.290 7  -5959788.405 7  23083985.508
 -17461118.843 8 -13585514.603 7  21447128.539
 -13568452.769 7 -10536457.854 7  22167992.539
 -16798020.31348 -13040717.52445  21548252.5784                   21548253.7624
 -22337903.63548 -17358535.20446  20589198.6174                   20589196.8554
 11  8 13  0 47  0.0000000  0  8G10G25G09G17G12G05G04G02
 -19153343.97348 -14840330.92346  20887609.4534                   20887609.9104
  -2879517.280 6  -2230854.525 7  24151130.719
  -3581587.00947  -2349066.53743  23667546.6884                   23667550.2074
  -7657546.604 6  -5917921.940 7  23094210.695
 -17521158.316 8 -13632298.573 7  21435703.594
 -13661542.642 7 -10608995.361 7  22150278.250
 -16722753.28148 -12982067.91845  21562575.7344                   21562576.6884
 -22341499.66248 -17361337.29046  20588514.1954                   20588512.9654
 11  8 13  0 47 30.0000000  0  8G10G25G09G17G12G05G04G02
 -19159411.10748 -14845058.55846  20886455.1564                   20886456.0004
  -2979231.971 6  -2308554.245 6  24132155.234
  -3501864.22547  -2286944.90443  23682717.0084                   23682720.2854
  -7603661.955 7  -5875933.963 7  23104464.445
 -17580769.971 8 -13678749.189 7  21424359.758
 -13754353.906 7 -10681315.769 7  22132617.188
 -16647325.40948 -12923292.98345  21576928.9924                   21576930.2194
 -22344794.06448 -17363904.35146  20587887.6484                   20587885.8714
 11  8 13  0 48  0.0000000  0  8G10G25G09G17G12G05G04G02
 -19164847.19548 -14849294.47146  20885420.8524                   20885421.1684
  -3078772.717 6  -2386118.366 6  24113212.906
  -3421969.31347  -2224689.19244  23697920.5554                   23697924.2194
  -7549619.591 7  -5833823.080 6  23114747.766
 -17639949.681 8 -13724863.195 7  21413098.328
 -13846881.975 7 -10753415.484 7  22115009.063
 -16571737.39048 -12864393.26545  21591312.5164                   21591313.8554
 -22347786.37648 -17366236.01946  20587318.0704                   20587316.3874
 11  8 13  0 48 30.0000000  0  8G10G25G09G17G12G05G04G02
 -19169653.49348 -14853039.62146  20884505.8594                   20884506.4144
  -3178138.532 7  -2463546.241 6  24094303.945
  -3341907.48547  -2162303.41243  23713155.6954                   23713158.8204
  -7495420.387 7  -5791589.986 6  23125061.742
 -17698696.964 8 -13770640.276 7  21401919.125
 -13939125.871 7 -10825293.766 7  22097456.164
 -16495992.72748 -12805371.48845  21605726.4534                   21605728.0434
 -22350479.34747 -17368334.42946  20586805.4534                   20586803.9774
 11  8 13  0 49  0.0000000  0  8G10G25G09G17G12G05G04G02
 -19173829.16948 -14856293.38346  20883711.2504                   20883711.4924
  -3277326.657 7  -2540835.643 6  24075429.883
  -3261681.54547  -2099789.75244  23728422.6024                   23728425.8954
  -7441063.520 6  -5749234.047 6  23135405.664
 -17757009.349 8 -13816078.464 7  21390822.430
 -14031082.309 7 -10896948.087 7  22079956.797
 -16420093.26148 -12746229.09645  21620169.9384                   21620171.2934
 -22352873.85548 -17370200.27046  20586349.4384                   20586348.2544
 11  8 13  0 49 30.0000000  0  8G10G25G09G17G12G05G04G02
 -19177372.53048 -14859054.44046  20883036.9064                   20883037.4494
  -3376332.992 7  -2617983.372 6  24056589.297
  -3181293.62347  -2037149.88344  23743720.2974                   23743723.0824
  -7386547.183 7  -5706753.854 6  23145779.977
 -17814883.055 8 -13861174.822 7  21379809.664
 -14122746.946 7 -10968374.982 7  22062513.367
 -16344039.68148 -12686966.58845  21634642.6094                   21634643.6374
 -22354969.24748 -17371833.03446  20585950.8984                   20585949.5984
 11  8 13  0 50  0.0000000  0  8G10G25G09G17G12G05G04G02
 -19180284.71148 -14861323.65846  20882482.8204                   20882483.2424
  -3475156.446 7  -2694988.629 5  24037784.102
  -3100749.01747  -1974387.86244  23759046.5784                   23759050.4964
  -7331872.628 7  -5664150.347 6  23156184.102
 -17872317.271 8 -13905928.730 7  21368879.969
 -14214118.613 7 -11039573.609 7  22045126.070
 -16267835.39048 -12627586.65245  21649143.5474                   21649144.8714
 -22356768.46548 -17373235.01446  20585608.6564                   20585607.3634
 11  8 13  0 50 30.0000000  0  8G10G25G09G17G12G05G04G02
 -19182563.48347 -14863099.31246  20882049.3284                   20882050.0784
  -3573792.798 7  -2771848.112 5  24019014.523
  -3020049.16247  -1911504.93244  23774403.2894                   23774407.0824
  -7277037.482 6  -5621421.724 6  23166618.758
 -17929308.273 8 -13950337.292 7  21358035.133
 -14305192.685 7 -11110540.345 7  22027795.617
 -16191480.93448 -12568089.69845  21663673.0474                   21663674.6724
 -22358270.94348 -17374405.77246  20585322.9144                   20585321.7704
 11  8 13  0 51  0.0000000  0  8G10G25G09G17G12G05G04G02
 -19184210.24548 -14864382.49346  20881735.7274                   20881736.7894
  -3672240.911 7  -2848560.872 6  24000279.273
  -2939199.02447  -1848504.93043  23789788.3204                   23789792.5904
  -7222042.825 6  -5578568.792 6  23177084.336
 -17985855.073 8 -13994399.711 7  21347274.883
 -14395967.811 7 -11181274.145 7  22010521.492
 -16114979.58148 -12508478.29545  21678231.4614                   21678232.9264
 -22359479.05748 -17375347.15146  20585092.9774                   20585091.3444
 11  8 13  0 51 30.0000000  0  8G10G25G09G17G12G05G04G02
 -19185224.26248 -14865172.63246  20881542.7344                   20881543.6724
  -3770497.582 7  -2925124.440 6  23981582.281
  -2858201.34347  -1785389.92244  23805201.6174                   23805206.0354
  -7166887.445 7  -5535590.622 6  23187579.398
 -18041954.839 8 -14038113.814 7  21336598.844
 -14486440.440 7 -11251772.222 7  21993305.063
 -16038332.91148 -12448753.64145  21692816.0784                   21692818.0044
 -22360393.29848 -17376059.54346  20584918.9304                   20584917.1414
 11  8 13  0 52  0.0000000  0  8G10G25G09G17G12G05G04G02
 -19185605.08047 -14865469.37246  20881470.4064                   20881470.7114
  -3868560.359 7  -3001536.925 6  23962921.211
  -2777059.65447  -1722162.70644  23820642.9774                   23820647.4924
  -7111571.170 7  -5492487.081 6  23198106.430
 -18097605.681 8 -14081478.091 7  21326009.047
 -14576607.567 7 -11322032.247 7  21976146.578
 -15961542.78848 -12388917.23245  21707429.5164                   21707430.2504
 -22361014.63148 -17376543.68646  20584800.6884                   20584799.2274
 11  8 13  0 52 30.0000000  0  8G10G25G09G17G12G05G04G02
 -19185351.95848 -14865272.13446  20881518.5784                   20881519.0784
  -3966426.079 7  -3077795.874 6  23944297.469
  -2695777.07847  -1658825.74244  23836111.6254                   23836115.6174
  -7056093.070 7  -5449257.448 6  23208663.789
 -18152804.744 8 -14124490.339 7  21315505.156
 -14666466.333 7 -11392051.991 7  21959046.828
 -15884611.05148 -12328970.45245  21722068.9844                   21722070.4024
 -22361344.07148 -17376800.38746  20584738.1094                   20584736.4494
 11  8 13  0 53  0.0000000  0  8G10G25G09G17G12G05G04G02
 -19184465.82647 -14864581.63246  20881686.7274                   20881687.8094
  -4064093.143 7  -3153899.991 7  23925712.180
  -2614357.76246  -1595382.27043  23851604.1414                   23851608.9734
  -7000453.206 7  -5405901.759 6  23219251.633
 -18207550.889 8 -14167149.683 7  21305087.281
 -14756014.898 7 -11461830.029 7  21942006.234
 -15807540.44648 -12268915.47645  21736735.2344                   21736736.6844
 -22361383.54048 -17376831.13846  20584730.5784                   20584729.2034
 11  8 13  0 53 30.0000000  0  8G10G25G09G17G12G05G04G02
 -19182945.51748 -14863396.96846  20881976.4924                   20881977.1334
  -4161558.045 7  -3229846.613 7  23907164.727
  -2532804.23146  -1531834.21344  23867123.3674                   23867128.2274
  -6944650.821 7  -5362419.421 6  23229870.719
 -18261840.621 8 -14209453.370 7  21294756.000
 -14845249.256 7 -11531363.218 7  21925025.547
 -15730332.17048 -12208753.19945  21751427.3444                   21751428.4574
 -22361133.37048 -17376636.19846  20584778.2344                   20584776.5044
 11  8 13  0 54  0.0000000  0  8G10G25G09G17G12G05G04G02
 -19180792.32047 -14861719.15046  20882385.9774                   20882386.9064
  -4258819.340 6  -3305634.552 7  23888657.000
  -2451121.23746  -1468185.27143  23882667.3674                   23882672.7504
  -6888686.449 7  -5318810.870 6  23240520.211
 -18315673.476 8 -14251401.046 7  21284512.469
 -14934167.863 7 -11600650.388 7  21908104.898
 -15652989.31448 -12148486.07045  21766145.0944                   21766146.2074
 -22360595.83048 -17376217.33246  20584880.2584                   20584878.7274
 11  8 13  0 54 30.0000000  0  8G10G25G09G17G12G05G04G02
 -19178004.43548 -14859546.77146  20882916.7584                   20882917.2734
  -4355872.760 7  -3381260.527 7  23870188.023
  -2369310.25946  -1404436.62244  23898235.9144                   23898240.0744
  -6832557.772 7  -5275074.287 6  23251200.758
 -18369045.627 8 -14292989.730 7  21274356.078
 -15022766.294 7 -11669688.056 7  21891245.438
 -15575512.01348 -12088114.17645  21780888.7344                   21780890.2274
 -22359769.94948 -17375573.78646  20585037.6334                   20585035.6524
 11  8 13  0 55  0.0000000  0  8G10G25G09G17G12G05G04G02
 -19174583.15748 -14856880.83546  20883567.5554                   20883568.1174
  -4452716.884 7  -3456723.474 7  23851759.695
  -2287376.47947  -1340592.27043  23913827.6644                   23913831.5274
  -6776265.777 7  -5231210.407 6  23261913.180
 -18421956.287 8 -14334218.812 7  21264287.398
 -15111043.031 7 -11738475.055 7  21874446.359
 -15497903.61148 -12027640.11645  21795656.8754                   21795658.1884
 -22358658.42448 -17374707.65346  20585249.1724                   20585247.0664
 11  8 13  0 55 30.0000000  0  8G10G25G09G17G12G05G04G02
 -19170527.17448 -14853720.32646  20884339.6414                   20884340.1684
  -4549348.002 6  -3532020.417 7  23833371.039
  -2205321.76646  -1276653.63343  23929441.5554                   23929445.7854
  -6719808.751 7  -5187217.939 6  23272656.234
 -18474401.904 8 -14375085.515 7  21254307.273
 -15198993.911 7 -11807008.152 7  21857710.008
 -15420164.94948 -11967064.57045  21810450.2114                   21810451.6024
 -22357261.41748 -17373619.08046  20585515.2344                   20585512.9534
 11  8 13  0 56  0.0000000  0  8G10G25G09G17G12G05G04G02
 -19165837.44847 -14850065.98546  20885231.7814                   20885232.4694
  -4645764.448 7  -3607150.045 6  23815024.125
  -2123150.49446  -1212624.20643  23945079.0234                   23945083.2584
  -6663187.192 7  -5143097.214 6  23283431.219
 -18526380.833 8 -14415588.590 7  21244416.086
 -15286617.301 7 -11875286.048 7  21841035.859
 -15342299.02948 -11906389.85845  21825267.9774                   21825268.8444
 -22355580.85848 -17372309.54946  20585834.7504                   20585833.0394
 11  8 13  0 56 30.0000000  0  8G10G25G09G17G12G05G04G02
 -19160514.41347 -14845918.16846  20886244.8914                   20886245.3444
  -4741963.876 7  -3682110.595 6  23796718.172
  -2040866.30346  -1148506.76743  23960737.4454                   23960741.0594
  -6606401.458 7  -5098848.608 6  23294237.250
 -18577892.564 8 -14455727.600 7  21234613.617
 -15373910.873 7 -11943306.956 7  21824424.219
 -15264308.00648 -11845617.66745  21840108.7814                   21840109.6174
 -22353618.31348 -17370780.29346  20586208.2274                   20586206.5124
 11  8 13  0 57  0.0000000  0  8G10G25G09G17G12G05G04G02
 -19154555.68148 -14841274.99546  20887378.7424                   20887379.1884
  -4837941.225 7  -3756898.100 6  23778454.258
  -1958470.09346  -1084302.06243  23976417.1334                   23976420.1254
  -6549448.518 7  -5054469.728 6  23305074.844
 -18628931.958 8 -14495498.555 7  21224900.961
 -15460869.296 7 -12011066.702 7  21807876.383
 -15186191.36848 -11784747.59345  21854973.8054                   21854974.8324
 -22351372.25248 -17369030.11446  20586635.9614                   20586634.3634
 11  8 13  0 57 30.0000000  0  8G10G25G09G17G12G05G04G02
 -19147964.25548 -14836138.81046  20888633.0634                   20888633.5554
  -4933696.913 7  -3831512.882 6  23760231.945
  -1875968.30746  -1020015.13143  23992115.8834                   23992120.0164
  -6492330.835 7  -5009962.461 6  23315943.984
 -18679499.747 8 -14534902.022 7  21215278.391
 -15547492.635 8 -12078565.339 7  21791393.133
 -15107953.88648 -11723783.34445  21869861.9304                   21869862.9494
 -22348846.86948 -17367062.28046  20587115.9924                   20587114.6254
 11  8 13  0 58  0.0000000  0  8G10G25G09G17G12G05G04G02
 -19140738.64948 -14830508.46346  20890007.9694                   20890008.4654
  -5029226.502 7  -3905951.517 6  23742053.766
  -1793362.73446   -955647.29244  24007835.5634                   24007839.4964
  -6435046.243 7  -4965325.132 6  23326845.508
 -18729592.283 8 -14573935.172 7  21205746.320
 -15633776.422 7 -12145799.414 7  21774973.766
 -15029595.97448 -11662725.25745  21884772.5864                   21884774.0554
 -22346041.69248 -17364876.43446  20587649.9774                   20587648.3364
 11  8 13  0 58 30.0000000  0  8G10G25G09G17G12G05G04G02
 -19132879.31448 -14824384.30546  20891503.7344                   20891504.1884
  -5124527.625 7  -3980212.114 6  23723917.555
  -1710656.86347   -891201.23044  24023574.2974                   24023578.3594
  -6377594.582 7  -4920557.619 6  23337777.359
 -18779207.845 8 -14612596.640 7  21196304.852
 -15719718.245 7 -12212766.993 7  21758619.211
 -14951119.57548 -11601574.85445  21899707.0004                   21899708.0004
 -22342958.12748 -17362473.64546  20588236.6174                   20588235.0274
 11  8 13  0 59  0.0000000  0  8G10G25G09G17G12G05G04G02
 -19124385.87947 -14817766.05046  20893120.0704                   20893120.5554
  -5219597.201 7  -4054292.238 6  23705826.539
  -1627853.52747   -826679.24644  24039331.8674                   24039335.3714
  -6319975.085 7  -4875659.322 6  23348742.141
 -18828343.791 8 -14650884.389 7  21186954.195
 -15805315.099 8 -12279465.765 7  21742330.664
 -14872526.16148 -11540333.26745  21914662.5234                   21914663.8874
 -22339596.82248 -17359854.43646  20588876.2424                   20588874.4064
 11  8 13  0 59 30.0000000  0  8G10G25G09G17G12G05G04G02
 -19115259.41547 -14810654.50246  20894856.6024                   20894857.3324
  -5314433.551 7  -4128190.705 6  23687780.273
  -1544957.37847   -762084.96243  24055106.7814                   24055110.3134
  -6262188.356 7  -4830630.730 6  23359738.344
 -18876999.317 8 -14688797.770 7  21177695.547
 -15890564.966 8 -12345894.186 7  21726108.078
 -14793818.66048 -11479002.79545  21929640.7734                   21929641.8054
 -22335960.05548 -17357020.58346  20589568.4384                   20589566.2704
 11  8 13  1  0  0.0000000  0  8G10G25G09G17G12G05G04G02
 -19105499.88648 -14803049.66246  20896713.9144                   20896714.4774
  -5409033.620 6  -4201904.975 6  23669777.859
  -1461971.20047   -697420.50443  24070898.0784                   24070902.1804
  -6204233.394 7  -4785471.052 6  23370767.016
 -18925171.565 8 -14726334.579 7  21168528.672
 -15975464.850 8 -12412049.875 7  21709952.484
 -14714998.43048 -11417584.47045  21944639.0554                   21944640.6914
 -22332048.01648 -17353972.23346  20590312.9454                   20590311.2304
 11  8 13  1  0 30.0000000  0  8G10G25G09G17G12G05G04G02
 -19095106.40648 -14794950.85146  20898691.4614                   20898691.9574
  -5503393.549 7  -4275432.173 6  23651821.578
  -1378897.23847   -632687.59144  24086705.9694                   24086710.5474
  -6146108.526 7  -4740179.009 6  23381828.188
 -18972857.835 8 -14763492.699 7  21159454.023
 -16060010.476 8 -12477929.519 7  21693863.438
 -14636066.00447 -11356078.72745  21959659.1484                   21959660.5044
 -22327861.04448 -17350709.64946  20591109.3524                   20591107.9414
 11  8 13  1  1  0.0000000  0  8G10G25G09G17G12G05G04G02
 -19084080.38247 -14786359.13346  20900789.5164                   20900790.5164
  -5597512.236 7  -4348771.352 6  23633911.109
  -1295740.01447   -567889.76944  24102530.2974                   24102534.7734
  -6087815.262 7  -4694755.721 6  23392921.328
 -19020057.468 8 -14800271.623 7  21150472.141
 -16144201.103 7 -12543532.556 7  21677842.359
 -14557024.90947 -11294488.30345  21974700.5864                   21974701.9024
 -22323401.69748 -17347234.82946  20591957.7194                   20591956.3834
 11  8 13  1  1 30.0000000  0  8G10G25G09G17G12G05G04G02
 -19072421.66248 -14777274.42146  20903008.2424                   20903008.8714
  -5691386.286 7  -4421919.937 6  23616048.438
  -1212502.48947   -503029.46544  24118370.3204                   24118374.6684
  -6029352.313 6  -4649200.208 6  23404045.938
 -19066767.878 8 -14836669.342 7  21141583.750
 -16228033.150 8 -12608856.174 7  21661889.898
 -14477876.03748 -11232813.88945  21989762.7584                   21989763.2704
 -22318670.45548 -17343548.14846  20592858.3984                   20592857.0044
 11  8 13  1  2  0.0000000  0  8G10G25G09G17G12G05G04G02
 -19060130.99648 -14767697.26646  20905347.1414                   20905348.0274
  -5785013.534 7  -4494876.224 7  23598231.289
  -1129189.47446   -438110.83143  24134224.7894                   24134229.7074
  -5970719.671 7  -4603512.481 6  23415203.242
 -19112987.448 8 -14872684.585 7  21132788.477
 -16311504.572 8 -12673898.773 7  21646005.453
 -14398622.13048 -11171057.63345  22004843.5944                   22004844.9534
 -22313668.90148 -17339650.82546  20593810.1954                   20593808.6764
 11  8 13  1  2 30.0000000  0  8G10G25G09G17G12G05G04G02
 -19047209.51248 -14757628.56746  20907806.3284                   20907806.5044
  -5878391.903 7  -4567638.531 7  23580462.227
  -1045801.19247   -373132.28544  24150092.2344                   24150097.2194
  -5911917.501 7  -4557692.671 6  23426393.813
 -19158714.809 8 -14908316.273 7  21124086.719
 -16394612.955 8 -12738658.496 7  21630190.695
 -14319265.13848 -11109221.05345  22019945.0084                   22019946.3164
 -22308398.95548 -17335544.37346  20594812.8444                   20594811.3094
 11  8 13  1  3  0.0000000  0  8G10G25G09G17G12G05G04G02
 -19033655.94648 -14747067.33546  20910384.8754                   20910385.9884
  -5971517.106 7  -4640203.589 7  23562741.039
   -962343.36346   -308100.27443  24165973.8134                   24165977.9924
  -5852943.972 6  -4511739.339 6  23437616.227
 -19203946.248 8 -14943561.532 7  21115479.469
 -16477353.879 8 -12803131.880 7  21614445.313
 -14239805.31447 -11047304.35145  22035065.6644                   22035067.3754
 -22302860.09848 -17331228.38146  20595867.0944                   20595865.5634
 11  8 13  1  3 30.0000000  0  8G10G25G09G17G12G05G04G02
 -19019471.52048 -14736014.51946  20913084.3524                   20913085.1484
  -6064386.974 7  -4712569.682 6  23545068.063
   -878818.19147   -243015.81344  24181868.0784                   24181873.3484
  -5793798.993 6  -4465652.410 6  23448869.898
 -19248681.115 8 -14978419.857 7  21106966.781
 -16559725.643 8 -12867317.612 7  21598770.727
 -14160245.27247 -10985309.53945  22050205.5164                   22050206.7544
 -22297054.21948 -17326704.31446  20596972.0004                   20596970.1994
 11  8 13  1  4  0.0000000  0  8G10G25G09G17G12G05G04G02
 -19004657.15548 -14724470.85446  20915903.2274                   20915903.8834
  -6156999.901 7  -4784735.562 6  23527444.977
   -795230.01047   -177882.25343  24197774.9384                   24197779.1644
  -5734483.526 7  -4419432.597 6  23460158.273
 -19292918.014 8 -15012890.165 7  21098548.672
 -16641726.406 8 -12931214.261 7  21583166.656
 -14080587.45947 -10923238.54345  22065363.8594                   22065365.1484
 -22290982.99648 -17321973.48946  20598127.4384                   20598125.8554
 11  8 13  1  4 30.0000000  0  8G10G25G09G17G12G05G04G02
 -18989211.81748 -14712435.50746  20918842.5394                   20918843.3054
  -6249351.310 7  -4856697.676 6  23509871.211
   -711580.40546   -112700.82643  24213692.6564                   24213697.5864
  -5674994.858 7  -4373077.832 6  23471478.688
 -19336652.573 8 -15046969.024 7  21090226.398
 -16723351.391 7 -12994818.090 7  21567634.148
 -14000831.77447 -10861091.29145  22080540.9384                   22080542.1644
 -22284645.70048 -17317035.34046  20599333.3054                   20599331.5394
 11  8 13  1  5  0.0000000  0  8G10G25G09G17G12G05G04G02
 -18973137.95748 -14699910.41846  20921901.0704                   20921902.0004
  -6341440.483 7  -4928455.478 6  23492346.734
   -627874.54146    -47475.57543  24229622.0944                   24229626.2854
  -5615335.215 7  -4326589.838 6  23482830.844
 -19379885.948 8 -15080657.351 7  21081998.891
 -16804600.202 8 -13058128.796 7  21552172.891
 -13920982.23947 -10798870.89345  22095735.3594                   22095737.2384
 -22278045.86848 -17311892.61946  20600589.3134                   20600587.2974
 11  8 13  1  5 30.0000000  0  8G10G25G09G17G12G05G04G02
 -18956434.77148 -14686894.93946  20925079.7894                   20925080.7974
  -6433263.504 7  -5000005.869 6  23474874.313
   -544114.49846     17791.93043  24245560.8674                   24245565.0904
  -5555502.542 7  -4279966.973 6  23494217.453
 -19422614.868 8 -15113952.600 7  21073868.047
 -16885468.844 8 -13121143.268 7  21536783.930
 -13841038.94147 -10736577.45245  22110948.5554                   22110949.7274
 -22271183.19548 -17306545.08846  20601894.7734                   20601893.5904
 11  8 13  1  6  0.0000000  0  8G10G25G09G17G12G05G04G02
 -18939102.90248 -14673389.57646  20928377.9694                   20928378.3554
  -6524817.890 7  -5071346.912 6  23457451.305
   -460303.52146     83099.08443  24261509.3204                   24261513.5634
  -5495496.801 7  -4233209.303 6  23505635.633
 -19464837.411 8 -15146853.256 7  21065833.586
 -16965954.877 7 -13183859.589 7  21521467.648
 -13761003.87047 -10674212.47345  22126178.6094                   22126180.0394
 -22264059.00248 -17300993.78346  20603250.7114                   20603248.9654
 11  8 13  1  6 30.0000000  0  8G10G25G09G17G12G05G04G02
 -18921143.95548 -14659395.58646  20931795.4304                   20931795.9884
  -6616101.667 7  -5142477.100 6  23440080.664
   -376445.87246    148442.58643  24277466.8834                   24277470.9024
  -5435318.374 7  -4186317.001 6  23517087.266
 -19506552.228 8 -15179358.292 7  21057895.680
 -17046056.384 8 -13246276.314 7  21506224.828
 -13680879.61247 -10611777.99945  22141426.1414                   22141427.2774
 -22256675.10648 -17295240.10946  20604655.5554                   20604654.1954
 11  8 13  1  7  0.0000000  0  8G10G25G09G17G12G05G04G02
 -18902556.81048 -14644912.07846  20935332.4844                   20935333.3204
  -6707110.720 7  -5213393.227 6  23422762.641
   -292543.25347    213821.17443  24293433.6174                   24293437.3014
  -5374964.992 7  -4139288.402 6  23528572.281
 -19547756.393 8 -15211465.436 7  21050054.563
 -17125769.149 8 -13308390.087 7  21491055.758
 -13600666.46647 -10549274.27045  22156690.3834                   22156691.4844
 -22249031.26148 -17289283.86646  20606110.3054                   20606108.3714
 11  8 13  1  7 30.0000000  0  8G10G25G09G17G12G05G04G02
 -18883344.19048 -14629941.20546  20938988.5084                   20938989.0744
  -6797844.538 7  -5284094.884 7  23405496.094
   -208601.19446    279230.50243  24309407.3524                   24309410.8984
  -5314439.033 7  -4092125.290 6  23540089.852
 -19588450.396 8 -15243175.060 7  21042311.000
 -17205092.955 8 -13370200.805 7  21475961.078
 -13520368.10847 -10486704.13445  22171970.0634                   22171972.3014
 -22241130.76748 -17283127.62846  20607613.7664                   20607612.0664
 11  8 13  1  8  0.0000000  0  8G10G25G09G17G12G05G04G02
 -18863504.26748 -14614481.52146  20942763.4304                   20942764.6254
  -6888297.571 7  -5354577.722 6  23388283.711
   -124619.94846    344670.31343  24325388.0704                   24325392.5314
  -5253737.315 7  -4044825.233 6  23551641.117
 -19628629.350 8 -15274483.363 7  21034664.836
 -17284022.338 7 -13431704.153 7  21460941.680
 -13439983.60647 -10424066.86345  22187266.4694                   22187268.4694
 -22232971.92848 -17276770.07946  20609166.0944                   20609164.3094
 11  8 13  1  8 30.0000000  0  8G10G25G09G17G12G05G04G02
 -18843039.12848 -14598534.65246  20946657.8674                   20946658.7034
  -6978468.519 7  -5424840.735 6  23371124.328
    -40603.96246    410137.25143  24341375.2424                   24341380.4924
  -5192860.646 7  -3997388.865 6  23563225.641
 -19668293.128 8 -15305390.210 7  21027116.945
 -17362555.963 7 -13492899.148 7  21445996.789
 -13359515.76747 -10361364.65245  22202579.0784                   22202580.4494
 -22224557.29748 -17270213.23046  20610767.5784                   20610765.7154
 11  8 13  1  9  0.0000000  0  8G10G25G09G17G12G05G04G02
 -18821950.36248 -14582101.84046  20950671.3754                   20950671.9574
  -7068355.619 7  -5494882.547 7  23354019.219
     43442.48546    475627.89343  24357368.8134                   24357373.5704
  -5131809.475 7  -3949816.498 6  23574842.727
 -19707440.722 8 -15335894.827 7  21019667.734
 -17440692.194 8 -13553784.463 7  21431128.242
 -13278967.32147 -10298599.63545  22217907.4534                   22217908.7344
 -22215889.22348 -17263458.89246  20612416.9774                   20612415.4104
 11  8 13  1  9 30.0000000  0  8G10G25G09G17G12G05G04G02
 -18800238.38848 -14565183.41746  20954802.6954                   20954803.5204
  -7157956.133 7  -5564701.075 7  23336969.445
    127516.22546    541139.79443  24373367.7584                   24373372.4694
  -5070583.376 6  -3902107.805 6  23586494.289
 -19746070.235 8 -15365995.736 7  21012316.500
 -17518428.348 7 -13614358.027 7  21416335.289
 -13198339.63747 -10235772.87645  22233249.9304                   22233251.8674
 -22206968.14748 -17256507.40646  20614114.9384                   20614112.9654
 11  8 13  1 10  0.0000000  0  8G10G25G09G17G12G05G04G02
 -18777902.73048 -14547779.01146  20959053.2814                   20959053.8364
  -7247265.707 7  -5634292.912 7  23319973.852
    211615.70946    606671.73943  24389371.4064                   24389377.4184
  -5009180.566 7  -3854261.424 6  23598178.664
 -19784178.329 8 -15395690.340 7  21005064.891
 -17595760.318 8 -13674616.665 7  21401619.242
 -13117632.97047 -10172884.58945  22248607.9694                   22248609.3054
 -22197793.96348 -17249358.70746  20615860.5314                   20615859.0824
 11  8 13  1 10 30.0000000  0  8G10G25G09G17G12G05G04G02
 -18754944.42148 -14529889.42646  20963421.7274                   20963423.0274
  -7336282.207 7  -5703656.384 7  23303034.289
    295737.34546    672220.97443  24405379.1174                   24405384.5474
  -4947601.262 7  -3806277.503 6  23609896.375
 -19821763.909 8 -15424977.796 7  20997912.680
 -17672686.002 8 -13734558.699 7  21386980.945
 -13036849.33647 -10109936.33745  22263980.8134                   22263981.9654
 -22188368.09948 -17242013.88046  20617654.0004                   20617652.5904
 11  8 13  1 11  0.0000000  0  8G10G25G09G17G12G05G04G02
 -18731367.34248 -14511517.68346  20967908.9304                   20967909.3984
  -7425005.718 7  -5772791.573 7  23286150.984
    379875.16846    737782.80243  24421391.4454                   24421396.2664
  -4885847.819 6  -3758157.927 6  23621648.367
 -19858828.013 8 -15453858.933 7  20990859.359
 -17749205.649 8 -13794184.341 7  21372419.352
 -12955992.93447 -10046931.37145  22279366.8674                   22279369.0704
 -22178694.73348 -17234476.20846  20619494.6884                   20619493.3164
 11  8 13  1 11 30.0000000  0  8G10G25G09G17G12G05G04G02
 -18707167.72848 -14492660.83446  20972513.1174                   20972514.6414
  -7513429.165 7  -5841692.929 6  23269324.578
    464030.30346    803358.14543  24437404.5704                   24437409.3484
  -4823915.755 6  -3709899.152 6  23633433.078
 -19895364.868 8 -15482329.219 7  20983906.773
 -17825312.472 8 -13853488.305 7  21357936.563
 -12875061.35747  -9983867.82745  22294768.3204                   22294769.6414
 -22168770.57748 -17226743.10146  20621383.3914                   20621381.8404
 11  8 13  1 12  0.0000000  0  8G10G25G09G17G12G05G04G02
 -18682349.58448 -14473322.03446  20977236.5234                   20977237.3954
  -7601553.004 7  -5910360.818 7  23252555.508
    548196.33846    868942.01243  24453421.6174                   24453426.9884
  -4761807.749 7  -3661503.286 6  23645252.469
 -19931375.856 8 -15510389.720 7  20977053.914
 -17901007.019 8 -13912471.020 7  21343532.906
 -12794058.97447  -9920749.08545  22310182.3364                   22310184.0004
 -22158599.86448 -17218817.87746  20623318.7894                   20623317.2734
 11  8 13  1 12 30.0000000  0  8G10G25G09G17G12G05G04G02
 -18656912.47848 -14453500.90946  20982077.0004                   20982077.5474
  -7689373.003 7  -5978791.951 7  23235843.055
    632371.91046    934533.30543  24469439.3364                   24469445.0824
  -4699521.763 6  -3612968.766 6  23657104.195
 -19966857.792 8 -15538037.997 7  20970302.289
 -17976285.226 8 -13971129.307 7  21329207.492
 -12712985.86447  -9857575.24645  22325609.5474                   22325611.1134
 -22148182.19248 -17210700.19946  20625301.3754                   20625299.8834
 11  8 13  1 13  0.0000000  0  8G10G25G09G17G12G05G04G02
 -18630858.65648 -14433199.23946  20987034.8674                   20987035.4064
  -7776887.999 7  -6046985.431 7  23219190.148
    716552.14446   1000128.20443  24485458.4614                   24485463.8164
  -4637059.121 6  -3564296.582 6  23668990.836
 -20001810.423 8 -15565273.806 7  20963650.820
 -18051146.094 8 -14029462.401 7  21314962.219
 -12631845.41047  -9794348.93045  22341050.3054                   22341052.3244
 -22137520.26648 -17202392.19946  20627330.3674                   20627328.8954
 11  8 13  1 13 30.0000000  0  8G10G25G09G17G12G05G04G02
 -18604187.37047 -14412416.42646  20992110.3674                   20992111.4384
  -7864093.536 7  -6114937.759 7  23202595.281
    800735.90745   1065725.89742  24501478.3524                   24501483.5704
  -4574417.786 6  -3515485.189 6  23680910.727
 -20036230.421 8 -15592094.587 7  20957100.586
 -18125585.538 8 -14087467.117 7  21300796.930
 -12550637.09447  -9731069.75445  22356503.6724                   22356505.5744
 -22126613.25648 -17193893.22446  20629405.8834                   20629404.1684
 11  8 13  1 14  0.0000000  0  8G10G25G09G17G12G05G04G02
 -18576900.39447 -14391153.84546  20997302.7034                   20997303.3984
  -7950987.923 7  -6182647.648 7  23186059.641
    884918.97546   1131323.06042  24517497.5554                   24517502.8634
  -4511598.239 6  -3466534.896 6  23692865.727
 -20070117.318 8 -15618499.973 7  20950652.367
 -18199601.716 8 -14145142.009 7  21286711.953
 -12469363.68947  -9667739.85445  22371970.1484                   22371971.1294
 -22115463.52148 -17185205.09846  20631527.6484                   20631525.9104
 11  8 13  1 14 30.0000000  0  8G10G25G09G17G12G05G04G02
 -18548999.76847 -14369413.10046  21002611.6334                   21002613.0944
  -8037569.075 7  -6250113.472 7  23169584.117
    969097.75145   1196916.80742  24533515.3834                   24533521.7504
  -4448600.902 6  -3417446.067 6  23704853.734
 -20103470.241 8 -15644489.266 7  20944305.664
 -18273192.936 8 -14202485.772 7  21272707.594
 -12388027.09847  -9604360.71245  22387447.5234                   22387449.1954
 -22104072.83848 -17176329.23246  20633695.1564                   20633693.4884
 11  8 13  1 15  0.0000000  0  8G10G25G09G17G12G05G04G02
 -18520485.23248 -14347193.98546  21008038.1954                   21008038.8094
  -8123833.367 7  -6317332.383 6  23153167.797
   1053269.94046   1262505.49642  24549534.0784                   24549539.6804
  -4385424.771 6  -3368217.926 6  23716874.930
 -20136286.247 8 -15670060.179 7  20938060.719
 -18346355.632 8 -14259495.625 7  21258785.758
 -12306627.82647  -9540932.75045  22402937.8134                   22402939.0044
 -22092441.04048 -17167265.48446  20635908.5554                   20635906.9734
 11  8 13  1 15 30.0000000  0  8G10G25G09G17G12G05G04G02
 -18491358.39048 -14324497.74446  21013580.8134                   21013581.2814
  -8209778.616 7  -6384302.718 6  23136813.125
   1137431.69246   1328086.08342  24565549.7894                   24565554.9414
  -4322069.850 6  -3318850.495 6  23728930.742
 -20168564.781 8 -15695212.280 7  20931918.516
 -18419087.948 8 -14316170.102 7  21244944.492
 -12225168.14347  -9477457.69445  22418438.2504                   22418440.0554
 -22080570.09948 -17158015.38446  20638167.8914                   20638165.7854
 11  8 13  1 16  0.0000000  0  8G10G25G09G17G12G05G04G02
 -18461620.28548 -14301325.18946  21019239.7034                   21019240.2894
  -8295401.996 7  -6451022.212 6  23120519.828
   1221580.57446   1393656.59642  24581562.7974                   24581568.3874
  -4258535.613 6  -3269343.337 6  23741021.180
 -20200304.171 8 -15719944.276 7  20925878.445
 -18491387.484 8 -14372507.355 7  21231186.484
 -12143649.22447  -9413936.48045  22433951.6414                   22433952.9734
 -22068460.67648 -17148579.46146  20640471.6334                   20640470.5044
 11  8 13  1 16 30.0000000  0  8G10G25G09G17G12G05G04G02
 -18431272.32048 -14277677.42046  21025014.8054                   21025015.9844
  -8380701.168 7  -6517489.091 6  23104288.250
   1305712.86346   1459214.18343  24597572.0944                   24597578.2074
  -4194822.252 6  -3219696.596 6  23753146.008
 -20231503.008 8 -15744255.035 7  20919941.633
 -18563252.437 8 -14428505.975 7  21217511.203
 -12062072.87147  -9350370.48744  22449474.3914                   22449476.0704
 -22056114.47948 -17138959.03746  20642821.0234                   20642819.6724
 11  8 13  1 17  0.0000000  0  8G10G25G09G17G12G05G04G02
 -18400314.67147 -14253554.56846  21030905.7734                   21030906.7544
  -8465672.528 7  -6583700.513 6  23088118.547
   1389826.52746   1524757.24543  24613578.3364                   24613584.7114
  -4130928.352 6  -3169909.181 6  23765304.422
 -20262158.997 8 -15768142.806 7  20914107.836
 -18634678.924 8 -14484162.915 7  21203918.734
 -11980439.77747  -9286760.29044  22465008.9304                   22465010.0984
 -22043531.60248 -17129154.19846  20645215.9454                   20645214.0514
 11  8 13  1 17 30.0000000  0  8G10G25G09G17G12G05G04G02
 -18368749.77547 -14228958.53046  21036912.3284                   21036913.4534
  -8550314.481 7  -6649655.255 7  23072011.164
   1473917.36646   1590282.51743  24629579.7664                   24629586.0744
  -4066855.122 6  -3119982.022 6  23777497.180
 -20292271.947 8 -15791607.428 7  20908378.188
 -18705665.785 8 -14539477.312 7  21190410.828
 -11898752.36947  -9223107.77344  22480553.5634                   22480554.8834
 -22030714.29148 -17119166.67046  20647654.9304                   20647653.2854
 11  8 13  1 18  0.0000000  0  8G10G25G09G17G12G05G04G02
 -18336578.73947 -14203890.18546  21043034.2424                   21043035.2384
  -8634624.548 7  -6715351.418 7  23055968.320
   1557982.15546   1655787.43643  24645577.8674                   24645582.6024
  -4002602.064 6  -3069914.741 6  23789724.836
 -20321840.330 8 -15814647.717 7  20902751.266
 -18776210.942 8 -14594447.515 7  21176986.297
 -11817012.23447  -9159414.17544  22496107.9614                   22496109.2074
 -22017663.74848 -17108997.41646  20650138.0864                   20650136.6054
 11  8 13  1 18 30.0000000  0  8G10G25G09G17G12G05G04G02
 -18303801.94247 -14178349.81846  21049271.6644                   21049272.0084
  -8718598.921 7  -6780786.003 7  23039988.633
   1642018.93546   1721270.60643  24661569.2894                   24661575.0204
  -3938168.076 6  -3019706.506 6  23801985.672
 -20350861.742 8 -15837261.788 7  20897228.406
 -18846311.036 8 -14649070.918 7  21163646.789
 -11735219.75247  -9095679.78144  22511672.7344                   22511673.6954
 -22004379.96248 -17098646.40546  20652665.8054                   20652664.0984
 11  8 13  1 19  0.0000000  0  8G10G25G09G17G12G05G04G02
 -18270421.11247 -14152338.76746  21055623.7664                   21055624.7234
  -8802235.696 7  -6845957.480 7  23024072.516
   1726023.93946   1786728.97643  24677555.1414                   24677560.2034
  -3873553.675 6  -2969357.687 6  23814281.648
 -20379335.306 8 -15859448.955 7  20891810.109
 -18915964.083 8 -14703345.975 7  21150392.039
 -11653376.98247  -9031906.20444  22527246.5474                   22527248.1804
 -21990864.91148 -17088115.19146  20655237.9614                   20655236.4494
 11  8 13  1 19 30.0000000  0  8G10G25G09G17G12G05G04G02
 -18236438.30048 -14125858.65846  21062090.4534                   21062091.3054
  -8885532.930 7  -6910864.417 7  23008221.719
   1809993.54446   1852159.75743  24693534.0084                   24693539.7894
  -3808759.022 6  -2918868.403 6  23826610.500
 -20407261.045 8 -15881209.256 7  20886496.414
 -18985168.625 8 -14757271.559 7  21137222.680
 -11571486.20747  -8968095.22044  22542829.9774                   22542831.9614
 -21977120.42048 -17077405.18746  20657853.1804                   20657851.6414
 11  8 13  1 20  0.0000000  0  8G10G25G09G17G12G05G04G02
 -18201854.21247 -14098910.01746  21068671.4384                   21068672.4964
  -8968487.299 7  -6975504.181 7  22992436.344
   1893925.30245   1917561.04642  24709505.9844                   24709510.9264
  -3743783.413 6  -2868238.073 6  23838976.273
 -20434636.514 8 -15902540.767 7  20881286.531
 -19053921.930 8 -14810845.512 7  21124139.664
 -11489548.15147  -8904247.40544  22558422.5314                   22558424.2274
 -21963146.82448 -17066516.66446  20660512.1414                   20660510.6914
 11  8 13  1 20 30.0000000  0  8G10G25G09G17G12G05G04G02
 -18166669.20048 -14071493.11146  21075367.0084                   21075368.2854
  -9051095.616 7  -7039874.280 7  22976716.352
   1977816.98845   1982931.06342  24725468.7194                   24725475.0634
  -3678625.784 6  -2817465.943 6  23851374.781
 -20461459.710 8 -15923441.935 7  20876182.352
 -19122221.035 7 -14864065.550 7  21111142.375
 -11407563.60847  -8840363.34644  22574023.9774                   22574025.3634
 -21948944.64648 -17055450.03046  20663214.9304                   20663213.2894
 11  8 13  1 21  0.0000000  0  8G10G25G09G17G12G05G04G02
 -18130885.24347 -14043609.50446  21082176.7274                   21082177.3524
  -9133355.550 7  -7103972.918 6  22961062.617
   2061664.82445   2048266.99842  24741424.7274                   24741431.4384
  -3613286.554 6  -2766552.313 6  23863808.852
 -20487729.902 8 -15943912.185 7  20871183.414
 -19190063.724 8 -14916929.929 7  21098232.711
 -11325534.20047  -8776444.33244  22589633.6804                   22589635.4884
 -21934515.47748 -17044206.50746  20665960.6724                   20665959.2504
 11  8 13  1 21 30.0000000  0  8G10G25G09G17G12G05G04G02
 -18094504.77248 -14015261.09146  21089099.9924                   21089100.7234
  -9215265.331 7  -7167798.721 6  22945475.938
   2145465.20545   2113565.95742  24757371.0474                   24757378.8834
  -3547766.280 6  -2715497.557 6  23876276.719
 -20513446.814 8 -15963951.314 7  20866289.938
 -19257448.754 8 -14969437.685 7  21085409.391
 -11243462.37847  -8712492.28544  22605251.1884                   22605253.0274
 -21919861.40548 -17032787.74446  20668749.2194                   20668747.9454
 11  8 13  1 22  0.0000000  0  8G10G25G09G17G12G05G04G02
 -18057528.28947 -13986448.23446  21096135.6884                   21096136.9344
  -9296821.699 7  -7231349.155 6  22929955.992
 -48184223.998 5                  24773309.109
  -3482064.131 6  -2664301.108 6  23888779.367
 -20538607.857 8 -15983557.313 7  20861502.047
 -19324373.281 8 -15021586.615 7  21072674.336
 -11161348.70547  -8648507.59344  22620876.8524                   22620878.2814
 -21904982.74748 -17021193.97746  20671580.6174                   20671579.0904
 11  8 13  1 22 30.0000000  0  8G10G25G09G17G12G05G04G02
 -18019956.09647 -13957171.19946  21103285.4694                   21103286.5554
  -9378020.925 7  -7294621.260 6  22914503.898
 -48100524.831 5                  24789236.930
  -3416178.826 6  -2612961.935 6  23901317.227
 -20563211.826 8 -16002729.218 7  20856819.695
 -19390833.949 8 -15073374.093 7  21060027.047
 -11079193.40147  -8584490.49844  22636510.9694                   22636511.8014
 -21889879.86248 -17009425.49246  20674454.6174                   20674452.9774
 11  8 13  1 23  0.0000000  0  8G10G25G09G17G12G05G04G02
 -17981793.38148 -13927434.02246  21110547.8594                   21110548.7934
  -9458863.941 7  -7357615.838 6  22899120.047
 -48016884.035 5                  24805152.891
  -3350113.696 6  -2561482.632 6  23913888.820
 -20587260.433 8 -16021468.378 7  20852243.438
 -19456832.215 8 -15124801.261 7  21047468.188
 -10997001.54647  -8520444.89744  22652151.3364                   22652153.0554
 -21874556.87448 -16997485.48646  20677370.3594                   20677368.5594
 11  8 13  1 23 30.0000000  0  8G10G25G09G17G12G05G04G02
 -17943038.34247 -13897235.28646  21117922.7814                   21117922.9414
  -9539345.119 7  -7420328.403 7  22883805.461
 -47933301.445 5                  24821057.109
  -3283865.623 6  -2509860.796 6  23926495.383
 -20610749.342 8 -16039771.413 7  20847773.578
 -19522362.565 8 -15175863.828 7  21034997.977
 -10914771.28447  -8456369.39644  22667799.5474                   22667800.6644
 -21859012.02948 -16985372.60646  20680328.5084                   20680326.4884
 11  8 13  1 24  0.0000000  0  8G10G25G09G17G12G05G04G02
 -17903692.55948 -13866576.22046  21125409.5864                   21125410.7704
  -9619461.808 7  -7482756.940 7  22868559.828
 -47849779.839 6                  24836952.133
  -3217434.133 6  -2458096.022 6  23939136.891
 -20633677.348 8 -16057637.387 7  20843410.242
 -19587422.902 8 -15226560.137 7  21022617.219
 -10832504.01247  -8392265.04544  22683453.9224                   22683456.0164
 -21843246.34548 -16973087.64546  20683328.5704                   20683327.1724
 11  8 13  1 24 30.0000000  0  8G10G25G09G17G12G05G04G02
 -17863745.23748 -13835448.43945  21133011.7344                   21133012.4694
  -9699199.099 7  -7544889.866 7  22853386.445
 -47766310.011 6                  24852836.453
  -3150806.951 6  -2406178.745 6  23951815.859
 -20656031.153 8 -16075055.932 7  20839156.484
 -19651998.945 8 -15276879.075 7  21010328.930
 -10750188.76547  -8328123.32044  22699118.2584                   22699119.6174
 -21827248.62348 -16960621.87546  20686372.6254                   20686371.1914
 11  8 13  1 25  0.0000000  0  7G10G25G17G12G05G04G02
 -17823226.46048 -13803875.34146  21140722.4224                   21140723.0044
  -9778582.970 7  -7606747.363 7  22838279.828
  -3084012.206 6  -2354130.941 6  23964526.711
 -20677838.161 8 -16092048.388 7  20835006.625
 -19716117.051 8 -15326841.192 7  20998127.672
 -10667855.32347  -8263967.41845  22714785.6724                   22714787.4184
 -21811048.75848 -16947998.58646  20689455.5554                   20689453.8134
 11  8 13  1 25 30.0000000  0  7G10G25G17G12G05G04G02
 -17782120.82848 -13771844.96646  21148544.2034                   21148544.9384
  -9857593.703 7  -7668314.120 7  22823245.055
  -3017032.707 6  -2301939.162 6  23977272.445
 -20699080.063 8 -16108600.523 7  20830964.594
 -19779757.932 8 -15376431.428 7  20986017.391
 -10585487.94547  -8199785.07645  22730460.1414                   22730461.6954
 -21794630.61148 -16935205.20746  20692579.5784                   20692578.4414
 11  8 13  1 26  0.0000000  0  7G10G25G17G12G05G04G02
 -17740432.78547 -13739360.76046  21156477.2344                   21156477.9384
  -9936231.507 7  -7729590.291 7  22808280.805
  -2949871.433 6  -2249605.707 6  23990052.859
 -20719758.924 8 -16124713.917 7  20827029.773
 -19842922.130 8 -15425650.246 7  20973997.445
 -10503090.52047  -8135579.31244  22746139.5084                   22746141.6484
 -21777998.13448 -16922244.83446  20695744.9614                   20695742.9694
 11  8 13  1 26 30.0000000  0  7G10G25G17G12G05G04G02
 -17698163.45548 -13706423.61146  21164521.0234                   21164521.7194
 -10014493.558 7  -7790573.658 7  22793387.906
  -2882527.551 6  -2197129.965 6  24002867.836
 -20739873.345 8 -16140387.507 7  20823202.164
 -19905607.675 8 -15474496.061 7  20962068.500
 -10420664.32647  -8071351.13144  22761824.2424                   22761826.5864
 -21761151.87048 -16909117.86146  20698950.7664                   20698948.6884
 11  8 13  1 27  0.0000000  0  7G10G25G17G12G05G04G02
 -17655312.40747 -13673033.15646  21172675.2114                   21172675.7074
 -10092375.256 7  -7851260.637 7  22778567.203
  -2814999.074 6  -2144510.375 6  24015717.805
 -20759420.245 8 -16155618.850 7  20819482.344
 -19967810.164 8 -15522965.486 8  20950231.711
 -10338208.41247  -8007099.81144  22777515.7034                   22777517.2894
 -21744091.06248 -16895823.71646  20702196.9774                   20702194.9654
 11  8 13  1 27 30.0000000  0  7G10G25G17G12G05G04G02
 -17611882.78347 -13639191.88346  21180939.3674                   21180940.1644
 -10169875.494 7  -7911650.358 7  22763819.539
  -2747287.469 6  -2091748.172 5  24028602.852
 -20778399.884 8 -16170408.179 7  20815870.539
 -20029528.891 8 -15571057.946 7  20938486.906
 -10255725.57847  -7942827.51044  22793211.4454                   22793213.4804
 -21726818.38748 -16882364.48646  20705484.0164                   20705482.6094
 11  8 13  1 28  0.0000000  0  7G10G25G17G12G05G04G02
 -17567876.54647 -13604901.30146  21189313.4384                   21189314.0314
 -10246991.991 7  -7971741.082 7  22749144.477
  -2679392.707 6  -2038843.137 6  24041523.680
 -20796811.321 8 -16184754.756 8  20812367.188
 -20090762.304 8 -15618772.243 7  20926834.992
 -10173217.28947  -7878535.35444  22808912.1024                   22808913.6094
 -21709334.92848 -16868741.01546  20708811.0704                   20708809.4144
 11  8 13  1 28 30.0000000  0  7G10G25G17G12G05G04G02
 -17523295.87047 -13570163.09245  21197796.9774                   21197797.5164
 -10323722.617 7  -8031531.143 7  22734542.797
  -2611315.056 6  -1985795.673 6  24054477.914
 -20814654.436 8 -16198658.475 7  20808971.227
 -20151508.664 7 -15666107.019 7  20915275.078
 -10090685.24047  -7814224.68244  22824617.8204                   22824618.5004
 -21691642.51048 -16854954.70946  20712177.8054                   20712175.7194
 11  8 13  1 29  0.0000000  0  7G10G25G17G12G05G04G02
 -17478139.82947 -13534976.54646  21206389.6414                   21206391.0514
 -10400062.552 7  -8091016.771 6  22720016.086
  -2543052.119 6  -1932603.806 5  24067467.836
 -20831926.036 8 -16212116.856 7  20805685.078
 -20211763.753 8 -15713058.989 8  20903809.281
 -10008128.32947  -7749894.64044  22840328.0164                   22840329.4414
 -21673739.75948 -16841004.49446  20715584.5004                   20715582.7384
 11  8 13  1 29 30.0000000  0  7G10G25G17G12G05G04G02
 -17432413.81747 -13499345.89546  21215091.5234                   21215091.9844
 -10476012.789 7  -8150198.738 6  22705563.094
  -2474607.201 6  -1879270.136 6  24080492.445
 -20848628.649 8 -16225131.872 7  20802506.539
 -20271528.932 7 -15759629.203 7  20892435.813
  -9925551.32147  -7685548.90244  22856041.7344                   22856042.6254
 -21655631.50548 -16826894.15746  20719030.2894                   20719028.7114
 11  8 13  1 30  0.0000000  0  7G10G25G17G12G05G04G02
 -17386116.34948 -13463269.94246  21223901.4224                   21223901.8404
 -10551567.360 7  -8209072.428 6  22691185.531
  -2405977.054 6  -1825792.180 6  24093551.742
 -20864758.002 8 -16237700.192 7  20799436.938
 -20330798.919 8 -15805813.561 7  20881157.195
  -9842952.07547  -7621185.84644  22871760.1174                   22871761.5634
 -21637315.03048 -16812621.57746  20722515.9614                   20722514.5944
 11  8 13  1 30 30.0000000  0  7G10G25G17G12G05G04G02
 -17339252.38347 -13426752.55546  21232819.2974                   21232819.9264
 -10626726.928 7  -8267638.297 6  22676882.578
  -2337164.710 6  -1772172.232 6  24106647.242
 -20880316.208 8 -16249823.456 7  20796476.680
 -20389574.774 8 -15851612.885 7  20869972.523
  -9760334.56047  -7556808.56544  22887481.0314                   22887482.8554
 -21618794.72948 -16798190.16346  20726040.3674                   20726038.4804
 11  8 13  1 31  0.0000000  0  7G10G25G17G12G05G04G02
 -17291820.71447 -13389792.82146  21241845.6174                   21241845.8834
 -10701486.029 7  -8325892.145 7  22662656.781
  -2268167.032 6  -1718407.799 6  24119777.547
 -20895299.580 8 -16261498.798 7  20793625.391
 -20447851.830 8 -15897023.528 7  20858882.813
  -9677697.09747  -7492415.74744  22903206.1334                   22903208.6334
 -21600068.62348 -16783598.38346  20729603.9924                   20729602.0004
 11  8 13  1 31 30.0000000  0  7G10G25G17G12G05G04G02
 -17243826.29947 -13352394.56345  21250978.0234                   21250978.8914
 -10775845.196 7  -8383834.343 7  22648506.266
  -2198986.867 6  -1664501.195 6  24132940.656
 -20909710.632 8 -16272728.160 7  20790882.969
 -20505631.338 8 -15942046.482 7  20847887.492
  -9595044.27047  -7428010.97144  22918934.7734                   22918936.4384
 -21581140.95048 -16768849.54146  20733205.3444                   20733203.7034
 11  8 13  1 32  0.0000000  0  7G10G25G17G12G05G04G02
 -17195270.67047 -13314558.99446  21260218.0234                   21260218.4384
 -10849801.629 7  -8441462.692 7  22634432.766
  -2129623.855 6  -1610452.197 6  24146141.609
 -20923547.728 8 -16283510.301 7  20788249.711
 -20562910.919 8 -15986679.867 7  20836987.297
  -9512376.71247  -7363594.70644  22934666.3914                   22934668.2774
 -21562012.49948 -16753944.24946  20736845.2424                   20736843.6604
 11  8 13  1 32 30.0000000  0  7G10G25G17G12G05G04G02
 -17146151.59147 -13276284.37845  21269564.9614                   21269565.9574
 -10923348.771 7  -8498772.154 7  22620437.617
  -2060074.012 6  -1556257.492 6  24159375.828
 -20936806.173 8 -16293841.546 7  20785727.023
 -20619684.498 8 -16030918.981 8  20826183.797
  -9429691.62347  -7299164.81444  22950400.7194                   22950402.7304
 -21542680.01848 -16738879.96946  20740524.4144                   20740522.3874
 11  8 13  1 33  0.0000000  0  7G10G25G17G12G05G04G02
 -17096476.57447 -13237576.56645  21279018.0944                   21279018.7074
 -10996490.049 7  -8555765.341 7  22606519.359
  -1990342.933 6  -1501921.622 6  24172644.719
 -20949491.314 8 -16303726.059 7  20783312.781
 -20675956.300 8 -16074767.092 8  20815475.758
  -9346995.82147  -7234726.53944  22966137.4304                   22966138.3834
 -21523150.88348 -16723662.45746  20744240.8984                   20744238.9224
 11  8 13  1 33 30.0000000  0  7G10G25G17G12G05G04G02
 -17046243.03847 -13198433.53546  21288576.5314                   21288577.6954
 -11069218.304 7  -8612436.708 7  22592680.039
  -1920426.095 6  -1447440.996 6  24185950.289
 -20961597.995 8 -16313159.824 7  20781009.258
 -20731719.898 8 -16118219.209 7  20804864.641
  -9264285.91847  -7170277.25844  22981875.7734                   22981877.7034
 -21503421.24048 -16708288.68846  20747995.1174                   20747992.9924
 11  8 13  1 34  0.0000000  0  7G10G25G17G12G05G04G02
 -16995456.31847 -13158859.44646  21298241.5004                   21298242.0984
 -11141534.261 7  -8668786.775 7  22578918.594
  -1850326.631 6  -1392818.049 6  24199289.281
 -20973128.425 8 -16322144.566 7  20778815.258
 -20786976.343 8 -16161276.133 8  20794349.188
  -9181566.03147  -7105820.19544  22997617.0944                   22997619.0784
 -21483495.23548 -16692761.92246  20751786.9064                   20751785.0124
 11  8 13  1 34 30.0000000  0  7G10G25G17G12G05G04G02
 -16944116.56747 -13118854.43746  21308011.1564                   21308011.6724
 -11213433.765 7  -8724812.345 7  22565236.484
  -1780042.682 6  -1338051.340 6  24212664.211
 -20984080.106 8 -16330678.340 7  20776730.734
 -20841722.501 8 -16203935.442 8  20783931.195
  -9098835.79746  -7041355.07344  23013360.4384                   23013362.1844
 -21463372.27948 -16677081.70446  20755616.2424                   20755613.8984
 11  8 13  1 35  0.0000000  0  7G10G25G17G12G05G04G02
 -16892225.59347 -13078419.91145  21317885.4224                   21317886.3754
 -11284914.502 7  -8780511.589 7  22551634.039
  -1709574.418 6  -1283141.054 6  24226074.219
 -20994452.518 8 -16338760.743 7  20774757.023
 -20895956.332 8 -16246195.512 7  20773610.945
  -9016096.27546  -6976882.73044  23029105.0634                   23029106.4614
 -21443053.52648 -16661248.90646  20759482.8284                   20759480.6374
 11  8 13  1 35 30.0000000  0  8G10G25G29G17G12G05G04G02
 -16839785.92647 -13037557.82745  21327864.6024                   21327865.3794
 -11355974.329 7  -8835882.835 7  22538111.539
   -576603.510 6   -433021.277 6  24656026.758
  -1638922.230 7  -1228087.468 6  24239518.477
 -21004245.646 8 -16346391.740 7  20772893.555
 -20949676.647 8 -16288055.457 7  20763388.180
  -8933349.02347  -6912404.36444  23044850.7504                   23044853.5124
 -21422540.32748 -16645264.59346  20763386.2194                   20763384.2034
 11  8 13  1 36  0.0000000  0  8G10G25G29G17G12G05G04G02
 -16786804.36747 -12996273.49446  21337946.7424                   21337947.0984
 -11426615.524 7  -8890927.883 7  22524668.445
   -656886.100 6   -495579.071 6  24640748.742
  -1568090.700 6  -1172894.090 6  24252997.109
 -21013463.408 8 -16353574.418 7  20771139.547
 -21002886.398 8 -16329517.553 8  20753262.891
  -8850599.60646  -6847924.36844  23060597.9694                   23060599.8834
 -21401838.43848 -16629133.23446  20767325.6954                   20767323.5204
 11  8 13  1 36 30.0000000  0  8G10G25G29G17G12G05G04G02
 -16733273.38947 -12954561.04545  21348133.4304                   21348133.9734
 -11496826.374 7  -8945637.571 7  22511308.461
   -737235.264 6   -558188.728 6  24625458.805
  -1497070.321 6  -1117553.649 6  24266512.070
 -21022095.663 8 -16360300.838 7  20769496.977
 -21055574.354 8 -16370573.065 8  20743236.688
  -8767839.90947  -6783436.30744  23076346.5784                   23076348.6524
 -21380939.60548 -16612848.42446  20771302.4844                   20771300.6564
 11  8 13  1 37  0.0000000  0  8G10G25G29G17G12G05G04G02
 -16679200.17747 -12912426.07245  21358422.9694                   21358423.3594
 -11566609.319 7  -9000013.842 7  22498028.789
   -817655.196 6   -620853.491 6  24610157.047
  -1425866.419 7  -1062070.281 6  24280062.109
 -21030147.153 8 -16366574.733 7  20767964.711
 -21107743.799 8 -16411224.538 7  20733309.055
  -8685075.60547  -6718944.67644  23092096.4454                   23092098.0744
 -21359849.70148 -16596414.73446  20775315.7504                   20775313.8484
 11  8 13  1 37 30.0000000  0  8G10G25G29G17G12G05G04G02
 -16624588.42747 -12869871.43645  21368815.3834                   21368815.9654
 -11635963.922 7  -9054056.330 7  22484831.336
   -898147.424 6   -683574.709 6  24594838.898
  -1354480.724 6  -1006445.261 6  24293646.563
 -21037619.064 7 -16372397.012 7  20766542.500
 -21159395.125 8 -16451472.287 7  20723480.242
  -8602309.80946  -6654451.83844  23107846.7194                   23107847.6724
 -21338571.55348 -16579834.35146  20779364.9304                   20779362.8984
 11  8 13  1 38  0.0000000  0  8G10G25G29G17G12G05G04G02
 -16569437.05447 -12826896.33645  21379310.1564                   21379310.9534
 -11704884.736 7  -9107760.804 7  22471716.039
   -978708.289 6   -746349.365 6  24579508.883
  -1282909.340 6   -950675.208 6  24307265.969
 -21044508.063 7 -16377765.062 7  20765231.703
 -21210523.480 8 -16491312.530 7  20713750.875
  -8519540.49347  -6589956.25044  23123596.5554                   23123598.8594
 -21317103.41247 -16563105.94346  20783449.9384                   20783448.0394
 11  8 13  1 38 30.0000000  0  8G10G25G29G17G12G05G04G02
 -16513745.77447 -12783500.54445  21389907.5164                   21389908.4534
 -11773366.761 7  -9161123.384 7  22458684.406
  -1059334.462 6   -809174.909 6  24564165.438
  -1211150.554 6   -894759.175 6  24320921.680
 -21050810.584 8 -16382676.122 7  20764032.398
 -21261124.369 8 -16530741.752 7  20704121.789
  -8436766.25347  -6525456.83644  23139348.1414                   23139350.3444
 -21295443.41348 -16546228.02346  20787571.8204                   20787569.8404
 11  8 13  1 39  0.0000000  0  8G10G25G29G17G12G05G04G02
 -16457523.84447 -12739691.25345  21400606.2194                   21400607.2774
 -11841414.968 7  -9214147.921 7  22445735.242
  -1140032.804 6   -872056.791 6  24548809.188
  -1139211.587 6   -838702.858 6  24334610.344
 -21056533.740 7 -16387135.735 7  20762943.469
 -21311203.735 8 -16569764.604 7  20694591.766
  -8353995.18847  -6460959.91444  23155099.0004                   23155100.7974
 -21273599.83148 -16529207.04946  20791728.5394                   20791726.7704
 11  8 13  1 39 30.0000000  0  8G10G25G29G17G12G05G04G02
 -16400770.15447 -12695467.59745  21411406.4144                   21411407.0314
 -11909023.805 7  -9266830.091 7  22432869.398
  -1220799.431 6   -934991.837 6  24533440.328
  -1067089.304 6   -782503.662 6  24348334.414
 -21061673.779 7 -16391140.951 7  20761965.391
 -21360756.746 8 -16608377.291 7  20685162.188
  -8271225.09747  -6396463.74944  23170849.7424                   23170850.9414
 -21251570.50748 -16512041.33146  20795920.5394                   20795918.7734
 11  8 13  1 40  0.0000000  0  8G10G25G29G17G12G05G04G02
 -16343486.93347 -12650831.33045  21422306.9144                   21422307.4694
 -11976191.003 7  -9319168.115 7  22420088.336
  -1301633.755 6   -997979.707 6  24518058.156
   -994783.848 6   -726161.770 6  24362093.609
 -21066230.936 8 -16394691.998 7  20761098.211
 -21409781.870 8 -16646578.642 8  20675832.898
  -8188456.90947  -6331969.05443  23186599.4304                   23186601.1454
 -21229356.75148 -16494731.90246  20800147.9694                   20800146.1484
 11  8 13  1 40 30.0000000  0  8G10G25G29G17G12G05G04G02
 -16285676.28847 -12605784.07945  21433307.8984                   21433308.9304
 -12042913.917 7  -9371159.955 7  22407391.227
  -1382534.638 6  -1061019.406 6  24502662.453
   -922294.775 6   -669676.809 6  24375887.672
 -21070204.188 8 -16397788.041 7  20760342.234
 -21458277.261 8 -16684367.227 7  20666604.516
  -8105691.53047  -6267476.54544  23202349.5394                   23202351.2664
 -21206959.23148 -16477279.29146  20804409.9614                   20804408.1374
 11  8 13  1 41  0.0000000  0  8G10G25G29G17G12G05G04G02
 -16227341.16547 -12560328.14345  21444408.7274                   21444409.2154
 -12109191.074 7  -9422804.434 7  22394779.039
  -1463502.194 6  -1124111.096 6  24487256.391
   -849622.892 6   -613049.407 6  24389716.961
 -21073593.838 8 -16400429.333 7  20759697.172
 -21506242.201 8 -16721742.463 8  20657477.180
  -8022930.79247  -6202987.62644  23218098.2814                   23218099.5944
 -21184379.35848 -16459684.58446  20808706.6884                   20808705.0864
 11  8 13  1 41 30.0000000  0  8G10G25G29G17G12G05G04G02
 -16168483.40047 -12514464.95745  21455609.1884                   21455609.9494
 -12175019.886 7  -9474099.575 7  22382252.227
  -1544535.633 6  -1187254.077 6  24471835.664
   -776768.264 6   -556279.579 6  24403581.336
 -21076399.392 7 -16402615.488 7  20759162.930
 -21553674.856 8 -16758702.951 8  20648450.820
  -7940175.22447  -6138502.76744  23233846.3834                   23233847.8164
 -21161617.99548 -16441948.44646  20813037.8524                   20813036.1174
 11  8 13  1 42  0.0000000  0  8G10G25G29G17G12G05G04G02
 -16109104.77447 -12468195.90845  21466908.4774                   21466909.5084
 -12240397.520 7  -9525043.143 7  22369811.008
  -1625633.825 6  -1250447.439 6  24456403.211
   -703730.439 6   -499367.072 6  24417480.367
 -21078620.032 7 -16404345.846 7  20758740.516
 -21600573.215 8 -16795247.084 8  20639526.438
  -7857425.26447  -6074022.28644  23249592.7344                   23249594.4414
 -21138675.82248 -16424071.41746  20817403.5554                   20817401.9414
 11  8 13  1 42 30.0000000  0  8G10G25G29G17G12G05G04G02
 -16049206.98347 -12421522.30945  21478306.5164                   21478307.3014
 -12305321.298 7  -9575633.063 7  22357456.266
  -1706795.655 6  -1313690.340 6  24440958.250
   -630508.710 6   -442311.213 6  24431413.625
 -21080254.907 8 -16405619.763 7  20758429.477
 -21646935.444 8 -16831373.475 8  20630704.008
  -7774681.38647  -6009546.52544  23265338.6024                   23265340.5634
 -21115553.12948 -16406053.72446  20821804.0704                   20821802.2234
 11  8 13  1 43  0.0000000  0  8G10G25G29G17G12G05G04G02
 -15988793.59647 -12374446.95245  21489802.7814                   21489803.9774
 -12369790.291 7  -9625868.615 7  22345188.234
  -1788021.770 6  -1376983.290 5  24425501.430
   -557104.703 6   -385113.186 6  24445381.445
 -21081305.019 8 -16406438.015 7  20758229.555
 -21692761.198 8 -16867081.811 8  20621983.398
  -7691945.80347  -5945077.25244  23281082.4694                   23281085.0864
 -21092252.45048 -16387897.35246  20826237.1884                   20826235.8054
 11  8 13  1 43 30.0000000  0  8G10G25G29G17G12G05G04G02
 -15927865.99547 -12326970.89845  21501397.1334                   21501397.5704
 -12433801.425 8  -9675747.363 7  22333007.180
  -1869310.755 7  -1440325.268 5  24410033.555
   -483517.748 6   -327772.722 6  24459384.609
 -21081769.714 8 -16406800.093 7  20758140.914
 -21738048.658 8 -16902370.701 8  20613365.266
  -7609218.76247  -5880614.65944  23296825.0634                   23296827.4264
 -21068773.95348 -16369602.40546  20830705.5394                   20830703.7034
 11  8 13  1 44  0.0000000  0  8G10G25G29G17G12G05G04G02
 -15866427.38447 -12279096.67045  21513088.6724                   21513089.1134
 -12497353.233 8  -9725268.204 7  22320914.016
  -1950662.607 6  -1503716.184 5  24394552.414
   -409748.649 6   -270290.319 5  24473422.133
 -21081649.487 8 -16406706.394 7  20758164.023
 -21782796.988 8 -16937239.513 8  20604850.281
  -7526501.89247  -5816159.96744  23312565.3524                   23312567.3524
 -21045119.14648 -16351170.07746  20835206.6644                   20835204.9494
 11  8 13  1 44 30.0000000  0  8G10G25G29G17G12G05G04G02
 -15804479.40347 -12230825.53845  21524876.7114                   21524877.6844
 -12560442.920 7  -9774428.979 7  22308908.398
  -2032076.214 6  -1567155.247 6  24379059.516
   -335796.985 6   -212665.566 5  24487495.742
 -21080943.680 8 -16406156.391 7  20758298.625
 -21827004.282 8 -16971686.725 8  20596437.773
  -7443795.51747  -5751713.46644  23328304.4774                   23328306.4024
 -21021288.60748 -16332600.79846  20839741.4064                   20839739.9924
 11  8 13  1 45  0.0000000  0  8G10G25G29G17G12G05G04G02
 -15742025.32147 -12182160.00645  21536761.6564                   21536762.0434
 -12623069.090 7  -9823228.556 7  22296991.094
  -2113551.379 6  -1630642.326 6  24363554.688
   -261663.473 6   -154899.070 5  24501601.844
 -21079652.905 8 -16405150.564 7  20758543.828
 -21870669.824 8 -17005711.772 8  20588128.672
  -7361101.43347  -5687276.53244  23344039.7344                   23344042.2074
 -20997283.71648 -16313895.66746  20844309.6174                   20844308.2194
 11  8 13  1 45 30.0000000  0  7G10G25G29G12G05G04G02
 -15679065.32047 -12133100.26845  21548742.0164                   21548742.7624
 -12685227.473 8  -9871663.615 7  22285162.641
  -2195085.539 6  -1694175.391 6  24348039.055
 -21077774.263 8 -16403686.650 7  20758901.375
 -21913790.218 8 -17039312.030 8  20579922.969
  -7278418.16647  -5622848.02244  23359774.7814                   23359776.3914
 -20973103.75648 -16295054.12646  20848910.8984                   20848908.7624
 11  8 13  1 46  0.0000000  0  7G10G25G29G12G05G04G02
 -15615604.19347 -12083650.04445  21560818.3204                   21560819.2664
 -12746918.388 7  -9919734.432 7  22273423.203
  -2276680.257 6  -1757755.610 6  24332512.742
 -21075311.182 7 -16401767.338 7  20759370.039
 -21956366.846 8 -17072488.576 8  20571820.930
  -7195749.40747  -5558430.81244  23375505.7114                   23375508.0824
 -20948752.11048 -16276078.80046  20853544.5474                   20853543.4774
 11  8 13  1 46 30.0000000  0  7G10G25G29G12G05G04G02
 -15551642.69547 -12033809.90945  21572989.9384                   21572990.3594
 -12808138.355 8  -9967438.245 7  22261773.945
  -2358333.709 6  -1821381.656 6  24316974.164
 -21072262.098 8 -16399391.402 7  20759950.352
 -21998396.936 8 -17105239.240 8  20563822.852
  -7113094.52346  -5494024.44344  23391234.1884                   23391236.4534
 -20924228.51348 -16256969.48146  20858211.5004                   20858210.0634
 11  8 13  1 47  0.0000000  0  7G10G25G29G12G05G04G02
 -15487185.54248 -11983583.55245  21585255.3524                   21585256.9024
 -12868887.275 8 -10014775.027 7  22250213.336
  -2440047.106 6  -1885054.442 6  24301424.805
 -21068628.585 8 -16396560.056 7  20760641.688
 -22039881.421 8 -17137564.779 8  20555928.469
  -7030456.39846  -5429631.09643  23406959.7504                   23406961.9734
 -20899535.69148 -16237728.30646  20862909.9844                   20862908.8164
 11  8 13  1 47 30.0000000  0  7G10G25G29G12G05G04G02
 -15422232.09247 -11932970.46445  21597615.6564                   21597616.6214
 -12929159.865 8 -10061740.626 7  22238743.797
  -2521816.578 6  -1948770.948 6  24285864.617
 -21064407.686 8 -16393271.029 7  20761444.891
 -22080815.713 8 -17169461.589 8  20548138.797
  -6947832.79146  -5365249.10743  23422682.7034                   23422685.2384
 -20874671.77748 -16218353.80646  20867642.2584                   20867640.4264
 11  8 13  1 48  0.0000000  0  7G10G25G29G12G05G04G02
 -15356786.38647 -11881973.80045  21610069.7504                   21610070.6134
 -12988956.037 8 -10108335.008 7  22227365.094
  -2603643.269 6  -2012531.992 6  24270293.617
 -21059601.578 8 -16389525.985 7  20762359.531
 -22121200.834 8 -17200930.473 8  20540453.930
  -6865226.44946  -5300880.49943  23438402.2894                   23438404.0204
 -20849639.48348 -16198848.10346  20872405.2814                   20872403.7464
 11  8 13  1 48 30.0000000  0  7G10G25G29G12G05G04G02
 -15290850.95047 -11830595.53145  21622617.0704                   21622618.0864
 -13048273.541 8 -10154556.418 7  22216077.148
  -2685526.138 6  -2076336.840 6  24254711.453
 -21054210.009 8 -16385324.743 7  20763385.328
 -22161035.577 8 -17231970.505 8  20532873.383
  -6782638.08046  -5236525.92643  23454117.6884                   23454119.8874
 -20824439.67448 -16179211.87946  20877200.5474                   20877198.8244
 11  8 13  1 49  0.0000000  0  7G10G25G29G12G05G04G02
 -15224427.32947 -11778836.86145  21635257.0474                   21635257.6454
 -13107109.596 8 -10200402.639 7  22204880.469
  -2767463.835 6  -2140184.436 6  24239119.391
 -21048232.621 8 -16380667.020 7  20764523.070
 -22200317.747 8 -17262579.943 8  20525398.648
  -6700067.76946  -5172185.42943  23469831.0634                   23469832.0554
 -20799072.47148 -16159445.21346  20882027.7974                   20882026.2034
 11  8 13  1 49 30.0000000  0  7G10G25G29G12G05G04G02
 -15157521.15448 -11726702.17145  21647988.8364                   21647989.1644
 -13165464.852 8 -10245874.221 7  22193776.227
  -2849458.213 7  -2204076.098 6  24223516.469
 -21041672.234 8 -16375555.012 8  20765771.242
 -22239049.005 8 -17292760.112 8  20518028.063
  -6617519.47046  -5107862.06643  23485538.6414                   23485541.0274
 -20773541.70548 -16139551.10246  20886885.9534                   20886884.7504
 11  8 13  1 50  0.0000000  0  7G10G25G29G12G05G04G02
 -15090131.58748 -11674190.80945  21660812.7344                   21660813.3204
 -13223334.276 8 -10290967.265 7  22182763.602
  -2931505.545 7  -2268009.095 6  24207904.164
 -21034525.708 8 -16369986.281 8  20767131.219
 -22277225.424 8 -17322507.930 8  20510763.180
  -6534990.55947  -5043553.88343  23501244.5004                   23501246.5634
 -20747845.01148 -16119527.68446  20891776.0704                   20891774.1374
 11  8 13  1 50 30.0000000  0  7G10G25G29G12G05G04G02
 -15022262.50748 -11621305.81245  21673727.9924                   21673728.8404
 -13280717.353 8 -10335681.299 7  22171844.352
  -3013606.443 7  -2331983.760 6  24192280.703
 -21026794.740 8 -16363962.134 7  20768602.094
 -22314847.397 8 -17351823.717 8  20503604.117
  -6452483.41047  -4979262.62144  23516944.5944                   23516946.3324
 -20721985.05948 -16099377.07046  20896696.7504                   20896694.9804
 11  8 13  1 51  0.0000000  0  7G10G25G29G12G05G04G02
 -14953915.28148 -11568048.22545  21686733.4844                   21686734.4964
 -13337610.846 8 -10380013.874 7  22161017.875
  -3095758.957 6  -2395998.629 6  24176647.219
 -21018478.032 8 -16357481.572 8  20770184.859
 -22351912.612 8 -17380705.657 8  20496550.703
  -6369997.58447  -4914987.94144  23532641.7504                   23532642.3914
 -20695961.46248 -16079098.93146  20901649.4614                   20901647.7384
 11  8 13  1 51 30.0000000  0  7G10G25G29G12G05G04G02
 -14885092.90748 -11514420.38345  21699830.0474                   21699831.0124
 -13394013.255 8 -10423963.768 7  22150284.953
  -3177962.798 6  -2460053.507 6  24161003.727
 -21009577.124 8 -16350545.786 7  20771878.609
 -22388420.431 8 -17409153.280 8  20489603.336
  -6287534.39247  -4850730.86744  23548333.9844                   23548335.1644
 -20669775.81348 -16058694.52646  20906632.3754                   20906630.8404
 11  8 13  1 52  0.0000000  0  7G10G25G29G12G05G04G02
 -14815798.42048 -11460424.69345  21713016.6564                   21713016.9414
 -13449922.998 8 -10467529.798 7  22139645.516
  -3260217.652 6  -2524148.113 6  24145351.188
 -21000092.300 8 -16343155.009 7  20773683.648
 -22424370.094 8 -17437165.960 8  20482762.508
  -6205095.03547  -4786492.36744  23564021.3204                   23564022.8794
 -20643429.17348 -16038164.67446  20911645.7504                   20911644.2154
 11  8 13  1 52 30.0000000  0  7G10G25G29G12G05G04G02
 -14746033.65447 -11406062.54645  21726292.4694                   21726292.7624
 -13505337.476 8 -10510709.885 7  22129100.188
  -3342521.903 6  -2588281.204 6  24129689.578
 -20990022.905 8 -16335308.723 7  20775599.625
 -22459760.284 8 -17464742.697 8  20476027.633
  -6122679.53947  -4722272.49644  23579704.6094                   23579705.7424
 -20616922.01148 -16017509.74046  20916690.0554                   20916688.4964
 11  8 13  1 53  0.0000000  0  7G10G25G29G12G05G04G02
 -14675801.53948 -11351336.21745  21739657.0784                   21739658.0354
 -13560255.036 8 -10553502.784 7  22118650.258
  -3424875.009 6  -2652452.284 6  24114016.844
 -20979369.785 8 -16327007.583 7  20777626.961
 -22494590.332 8 -17491882.966 8  20469399.734
  -6040288.97347  -4658072.03844  23595382.8444                   23595384.7234
 -20590255.30048 -15996730.47246  20921764.3054                   20921762.6174
 11  8 13  1 53 30.0000000  0  7G10G25G29G12G05G04G02
 -14605104.99448 -11296247.99745  21753110.1644                   21753110.8014
 -13614674.236 8 -10595907.352 7  22108294.703
  -3507276.519 6  -2716661.128 6  24098336.586
 -20968133.635 8 -16318252.133 7  20779764.938
 -22528859.624 8 -17518586.278 8  20462878.602
  -5957924.57847  -4593891.99744  23611055.9924                   23611058.0704
 -20563430.47748 -15975828.01446  20926869.0704                   20926866.9264
 11  8 13  1 54  0.0000000  0  7G10G25G29G12G05G04G02
 -14533945.51147 -11240799.03245  21766651.1024                   21766651.9344
 -13668592.072 8 -10637921.243 7  22098033.977
  -3589724.319 6  -2780906.048 6  24082647.469
 -20956313.781 8 -16309041.845 7  20782014.273
 -22562566.140 8 -17544851.054 8  20456464.867
  -5875586.08647  -4529732.11743  23626723.9614                   23626726.0984
 -20536447.40948 -15954802.24546  20932004.0394                   20932001.3754
 11  8 13  1 54 30.0000000  0  7G10G25G29G12G05G04G02
 -14462327.08248 -11184992.45645  21780280.0944                   21780280.2664
 -13722008.056 8 -10679544.077 7  22087869.336
  -3672219.186 6  -2845187.683 6  24066949.773
 -20943911.965 8 -16299378.100 7  20784374.117
 -22595710.350 8 -17570677.675 8  20450157.352
  -5793275.51647  -4465594.01244  23642387.6334                   23642389.2814
 -20509308.35748 -15933654.91946  20937168.3444                   20937166.1334
 11  8 13  1 55  0.0000000  0  7G10G25G29G12G05G04G02
 -14390251.82147 -11128829.90645  21793995.2504                   21793996.0594
 -13774919.906 8 -10720774.098 7  22077800.570
  -3754759.860 6  -2909505.026 6  24051243.094
 -20930928.159 8 -16289260.848 7  20786844.813
 -22628291.202 8 -17596065.317 8  20443957.281
  -5710993.02746  -4401477.80443  23658044.8834                   23658047.5594
 -20482013.65948 -15912386.33046  20942362.3914                   20942360.1884
 11  8 13  1 55 30.0000000  0  7G10G25G29G12G05G04G02
 -14317723.27047 -11072314.15045  21807796.8134                   21807797.2234
 -13827326.511 8 -10761610.410 7  22067828.102
  -3837346.172 6  -2973857.951 6  24035526.492
 -20917363.376 8 -16278690.886 7  20789426.281
 -22660308.519 8 -17621013.831 8  20437864.438
  -5628740.28346  -4337384.76143  23673697.5164                   23673699.7194
 -20454565.02948 -15890997.78746  20947585.5394                   20947583.7774
 11  8 13  1 56  0.0000000  0  7G10G25G29G12G05G04G02
 -14244742.01247 -11015445.65145  21821684.7894                   21821685.9694
 -13879224.057 8 -10802050.055 7  22057952.172
  -3919975.263 7  -3038244.253 6  24019803.438
 -20903216.483 8 -16267667.336 7  20792118.352
 -22691759.681 8 -17645521.198 8  20431879.906
  -5546516.15246  -4273314.02843  23689344.7974                   23689346.2664
 -20426961.52548 -15869488.56346  20952838.1804                   20952836.2074
 11  8 13  1 56 30.0000000  0  7G10G25G29G12G05G04G02
 -14171312.48947 -10958227.84945  21835658.0394                   21835658.9414
 -13930612.637 8 -10842093.114 7  22048173.398
  -4002648.150 6  -3102664.698 6  24004071.406
 -20888489.877 8 -16256192.061 7  20794920.969
 -22722645.535 8 -17669588.054 8  20426002.328
  -5464322.96346  -4209267.38943  23704985.7194                   23704986.8094
 -20399205.59148 -15847860.55046  20958120.0234                   20958118.1054
 11  8 13  1 57  0.0000000  0  7G10G25G29G12G05G04G02
 -14097436.99647 -10900662.50745  21849715.8364                   21849716.8164
 -13981490.108 8 -10881737.917 7  22038491.992
  -4085363.411 6  -3167118.201 6  23988330.609
 -20873183.657 8 -16244265.145 7  20797833.289
 -22752964.969 8 -17693213.543 8  20420232.875
  -5382161.12646  -4145245.15243  23720619.7194                   23720621.1844
 -20371298.06448 -15826114.41246  20963430.3444                   20963428.6804
 11  8 13  1 57 30.0000000  0  7G10G25G29G12G05G04G02
 -14023115.90647 -10842749.94845  21863858.7114                   21863859.7304
 -14031852.371 8 -10920981.227 7  22028908.242
  -4168117.987 6  -3231602.316 6  23972582.922
 -20857295.641 8 -16231884.875 7  20800856.906
 -22782715.175 8 -17716395.483 8  20414571.875
  -5300028.99746  -4081246.08843  23736249.1024                   23736250.9064
 -20343237.37848 -15804248.93146  20968770.5704                   20968768.6454
 11  8 13  1 58  0.0000000  0  7G10G25G29G12G05G04G02
 -13948355.60147 -10784495.14545  21878084.7814                   21878085.6764
 -14081701.507 8 -10959824.719 7  22019422.422
  -4250914.945 7  -3296119.432 6  23956827.578
 -20840830.857 8 -16219055.178 7  20803990.336
 -22811899.104 8 -17739136.167 8  20409018.031
  -5217931.15647  -4017273.75443  23751871.9534                   23751873.8594
 -20315028.25848 -15782267.79146  20974138.2424                   20974136.6484
 11  8 13  1 58 30.0000000  0  7G10G25G29G12G05G04G02
 -13873157.97347 -10725899.59345  21892394.8834                   21892395.5704
 -14131034.674 8 -10998266.162 7  22010034.313
  -4333751.457 7  -3360667.398 6  23941064.484
 -20823788.648 8 -16205775.543 7  20807233.078
 -22840515.182 8 -17761434.380 8  20403572.422
  -5135867.27547  -3953327.87743  23767488.6024                   23767490.0864
 -20286670.32948 -15760170.69246  20979534.6884                   20979532.9884
 11  8 13  1 59  0.0000000  0  7G10G25G29G12G05G04G02
 -13797524.48647 -10666964.41745  21906787.7344                   21906788.0394
 -14179849.022 8 -11036303.313 7  22000745.047
  -4416626.296 7  -3425245.190 6  23925293.703
 -20806168.334 8 -16192045.425 7  20810586.086
 -22868561.341 8 -17783288.487 8  20398235.383
  -5053836.49547  -3889407.75643  23783097.7894                   23783100.1134
 -20258163.31248 -15737957.42446  20984959.5944                   20984957.6094
 11  8 13  1 59 30.0000000  0  7G10G25G29G12G05G04G02
 -13721457.85047 -10607691.71545  21921262.3594                   21921262.7624
 -14228143.025 8 -11073934.999 7  21991555.250
  -4499537.672 6  -3489851.454 6  23909515.633
 -20787970.473 8 -16177865.286 7  20814048.719
 -22896037.433 8 -17804698.405 8  20393006.813
  -4971839.87447  -3825514.28143  23798702.2894                   23798703.0004
 -20229508.16248 -15715628.71946  20990412.1334                   20990410.3244
 11  8 13  2  0  0.0000000  0  7G10G25G29G12G05G04G02
 -13644960.70347 -10548083.56845  21935819.0474                   21935819.8204
 -14275915.150 8 -11111160.023 7  21982464.313
  -4582485.686 6  -3554486.231 6  23893731.805
 -20769196.254 8 -16163236.021 7  20817621.563
 -22922942.784 8 -17825663.586 8  20387886.742
  -4889878.29347  -3761648.11843  23814298.4454                   23814300.4414
 -20200705.93348 -15693185.41846  20995893.1884                   20995891.6414
 11  8 13  2  0 30.0000000  0  7G10G25G29G12G05G04G02
 -13568037.15447 -10488143.16645  21950457.2584                   21950458.3054
 -14323164.674 8 -11147977.805 7  21973472.805
  -4665470.031 6  -3619149.293 6  23877940.164
 -20749847.135 8 -16148158.778 7  20821303.664
 -22949277.811 8 -17846184.344 8  20382875.430
  -4807953.13347  -3697810.31843  23829889.0234                   23829890.0234
 -20171758.47848 -15670628.95246  21001401.4454                   21001400.0434
 11  8 13  2  1  0.0000000  0  7G10G25G29G12G05G04G02
 -13490687.96947 -10427871.07345  21965175.9844                   21965177.5124
 -14369888.086 8 -11184385.614 7  21964581.898
  -4748487.870 6  -3683838.415 6  23862142.461
 -20729922.328 8 -16132632.961 7  20825095.078
 -22975040.143 8 -17866258.865 8  20377972.891
  -4726063.31547  -3634000.06844  23845472.3444                   23845473.6884
 -20142664.93548 -15647958.65146  21006938.1024                   21006936.3404
 11  8 13  2  1 30.0000000  0  7G10G25G29G12G05G04G02
 -13412917.51647 -10367270.73245  21979976.0704                   21979976.4104
 -14416085.205 8 -11220383.333 7  21955790.633
  -4831539.471 6  -3748553.868 6  23846338.844
 -20709423.873 8 -16116660.139 7  20828995.625
 -23000230.874 8 -17885887.974 8  20373179.320
  -4644210.75346  -3570218.84343  23861047.9304                   23861049.4184
 -20113427.26148 -15625176.03246  21012501.7114                   21012500.1094
 11  8 13  2  2  0.0000000  0  7G10G25G29G12G05G04G02
 -13334727.58747 -10306343.52345  21994854.3134                   21994855.6374
 -14461754.170 8 -11255969.501 7  21947100.180
  -4914623.437 7  -3813294.516 6  23830527.805
 -20688351.612 8 -16100240.187 7  20833005.891
 -23024848.969 8 -17905070.885 8  20368494.727
  -4562395.73647  -3506466.91243  23876616.1644                   23876618.2114
 -20084046.09048 -15602281.60246  21018092.4534                   21018090.8874
 11  8 13  2  2 30.0000000  0  7G10G25G29G12G05G04G02
 -13256123.05347 -10245093.23945  22009812.6094                   22009813.5514
 -14506895.261 8 -11291144.312 7  21938510.133
  -4997740.812 6  -3878061.214 6  23814710.344
 -20666709.063 8 -16083375.858 7  20837124.516
 -23048895.895 8 -17923808.718 8  20363918.664
  -4480620.87346  -3442746.26843  23892177.5554                   23892179.6844
 -20054524.07248 -15579277.43246  21023710.6174                   21023708.9264
 11  8 13  2  3  0.0000000  0  7G10G25G29G12G05G04G02
 -13177100.16147 -10183516.95845  22024850.1174                   22024850.8634
 -14551500.283 8 -11325901.374 7  21930022.406
  -5080884.046 7  -3942848.068 6  23798889.313
 -20644490.419 8 -16066062.622 7  20841352.086
 -23072364.313 8 -17942095.773 8  20359452.883
  -4398879.93646  -3379052.05943  23907731.8914                   23907734.1684
 -20024855.26848 -15556158.87646  21029356.7114                   21029354.9344
 11  8 13  2  3 30.0000000  0  7G10G25G29G12G05G04G02
 -13097668.76547 -10121622.36445  22039965.6804                   22039966.1914
 -14595574.557 8 -11360244.897 7  21921634.781
  -5164058.957 7  -4007659.607 6  23783061.461
 -20621703.382 8 -16048306.478 7  20845688.789
 -23095260.901 8 -17959937.250 8  20355095.594
  -4317180.53146  -3315390.20843  23923278.7274                   23923281.1094
 -19995047.45548 -15532932.01746  21035028.4694                   21035026.9574
 11  8 13  2  4  0.0000000  0  7G10G25G29G12G05G04G02
 -13017829.69847 -10059410.11745  22055158.7814                   22055159.2664
 -14639114.874 8 -11394172.345 7  21913349.203
  -5247262.763 7  -4072493.695 6  23767228.664
 -20598346.775 8 -16030106.520 7  20850132.820
 -23117583.771 8 -17977331.655 8  20350847.719
  -4235521.46646  -3251759.80443  23938818.3054                   23938821.1134
 -19965099.70248 -15509596.09846  21040727.5634                   21040725.7894
 11  8 13  2  4 30.0000000  0  7G10G25G29G12G05G04G02
 -12937585.54947  -9996882.20945  22070428.5164                   22070428.8594
 -14682119.491 8 -11427682.356 7  21905166.250
  -5330493.960 7  -4137349.127 6  23751389.984
 -20574421.488 8 -16011463.431 7  20854686.195
 -23139332.015 8 -17994278.307 8  20346709.234
  -4153903.15646  -3188161.14543  23954349.9144                   23954351.8164
 -19935012.51748 -15486151.53446  21046452.9304                   21046451.0434
 11  8 13  2  5  0.0000000  0  7G10G25G29G12G05G04G02
 -12856938.41947  -9934040.27145  22085775.4224                   22085775.8484
 -14724586.340 8 -11460773.326 7  21897084.523
  -5413751.553 7  -4202225.117 6  23735547.133
 -20549927.779 8 -15992377.407 7  20859346.719
 -23160504.765 8 -18010776.522 8  20342680.195
  -4072325.33146  -3124594.03143  23969873.9844                   23969875.7154
 -19904786.15848 -15462598.51046  21052204.9304                   21052203.2734
 11  8 13  2  5 30.0000000  0  7G10G25G29G12G05G04G02
 -12775890.45947  -9870886.02145  22101197.8134                   22101199.2584
 -14766513.315 8 -11493443.610 7  21889106.109
  -5497033.018 6  -4267119.730 6  23719698.125
 -20524866.019 8 -15972848.745 7  20864116.047
 -23181101.008 8 -18026825.509 8  20338760.477
  -3990788.08246  -3061058.54043  23985389.1724                   23985391.7194
 -19874420.67248 -15438937.08546  21057983.1254                   21057981.6214
 11  8 13  2  6  0.0000000  0  7G10G25G29G12G05G04G02
 -12694446.80147  -9807423.45045  22116695.9064                   22116696.7034
 -14807901.229 8 -11525693.857 7  21881230.156
  -5580339.724 7  -4332033.982 6  23703845.898
 -20499239.167 8 -15952879.763 7  20868992.781
 -23201122.664 8 -18042426.760 8  20334950.508
  -3909293.84346  -2997556.52543  24000897.4384                   24000899.1684
 -19843919.00748 -15415169.53246  21063787.3134                   21063785.3984
 11  8 13  2  6 30.0000000  0  7G10G25G29G12G05G04G02
 -12612609.29547  -9743653.95745  22132269.6484                   22132270.3164
 -14848747.806 8 -11557522.264 7  21873457.188
  -5663669.448 7  -4396966.173 6  23687988.508
 -20473047.622 8 -15932470.761 7  20873976.453
 -23220568.549 8 -18057579.372 8  20331250.328
  -3827842.71746  -2934088.09243  24016396.9384                   24016398.5274
 -19813280.95148 -15391295.70746  21069617.5474                   21069615.5984
 11  8 13  2  7  0.0000000  0  7G10G25G29G12G05G04G02
 -12530378.79447  -9679578.25945  22147917.2114                   22147918.0554
 -14889049.553 8 -11588926.170 7  21865788.102
  -5747019.531 7  -4461914.222 6  23672127.320
 -20446290.421 8 -15911620.985 7  20879068.336
 -23239436.851 8 -18072281.912 8  20327659.617
  -3746432.66346  -2870651.70343  24031889.2814                   24031890.6954
 -19782505.37948 -15367314.73046  21075473.7734                   21075472.0274
 11  8 13  2  7 30.0000000  0  7G10G25G29G12G05G04G02
 -12447761.69647  -9615201.30345  22163639.3914                   22163639.3754
 -14928808.760 8 -11619907.308 7  21858222.250
  -5830392.083 7  -4526879.859 6  23656262.625
 -20418972.119 8 -15890333.975 7  20884266.727
 -23257730.735 8 -18086536.851 8  20324178.352
  -3665068.25946  -2807250.90743  24047371.9454                   24047374.7624
 -19751596.44248 -15343229.82746  21081355.7504                   21081353.7504
 11  8 13  2  8  0.0000000  0  7G10G25G29G12G05G04G02
 -12364757.44647  -9550522.66945  22179433.6484                   22179434.5594
 -14968020.722 8 -11650462.047 7  21850760.313
  -5913782.827 7  -4591859.660 6  23640393.539
 -20391090.429 8 -15868607.981 7  20889572.352
 -23275446.205 8 -18100341.096 8  20320807.305
  -3583746.34246  -2743883.22643  24062847.1174                   24062849.4144
 -19720551.56448 -15319039.01046  21087263.4384                   21087261.8954
 11  8 13  2  8 30.0000000  0  7G10G25G29G12G05G04G02
 -12281370.29547  -9485545.69445  22195302.1724                   22195303.0904
 -15006685.858 8 -11680590.677 7  21843402.625
  -5997192.281 7  -4656853.965 6  23624520.742
 -20362648.320 8 -15846445.287 7  20894985.375
 -23292585.146 8 -18113696.069 8  20317545.609
  -3502469.44846  -2680550.58043  24078313.6954                   24078315.6724
 -19689373.49648 -15294744.40546  21093196.2424                   21093194.4964
 11  8 13  2  9  0.0000000  0  7G10G25G29G12G05G04G02
 -12197603.05547  -9420272.51945  22211242.5164                   22211243.2194
 -15044802.497 8 -11710291.931 7  21836149.008
  -6080618.963 7  -4721861.687 6  23608645.508
 -20333646.365 8 -15823846.339 7  20900503.930
 -23309147.247 8 -18126601.573 8  20314394.406
  -3421237.53946  -2617253.02143  24093772.2034                   24093773.8594
 -19658062.53948 -15270346.23946  21099154.6024                   21099152.6764
 11  8 13  2  9 30.0000000  0  7G10G25G29G12G05G04G02
 -12113459.04047  -9354705.75745  22227254.5234                   22227255.6134
 -15082370.005 8 -11739565.286 7  21829000.141
  -6164062.253 7  -4786882.365 6  23592767.523
 -20304086.518 8 -15800812.676 7  20906129.148
 -23325132.744 8 -18139057.770 8  20311352.219
  -3340051.53446  -2553991.21943  24109221.1564                   24109222.9774
 -19626619.95748 -15245845.51746  21105137.5314                   21105136.2814
 11  8 13  2 10  0.0000000  0  7G10G25G29G12G05G04G02
 -12028940.43747  -9288847.07944  22243337.9304                   22243339.0164
 -15119386.454 8 -11768409.261 7  21821956.719
  -6247520.534 7  -4851914.666 6  23576886.438
 -20273969.198 8 -15777344.622 7  20911860.219
 -23340540.854 8 -18151064.058 8  20308419.992
  -3258911.43446  -2490765.16143  24124660.4614                   24124664.0434
 -19595045.66548 -15221242.17846  21111146.2584                   21111144.0394
 11  8 13  2 10 30.0000000  0  7G10G25G29G12G05G04G02
 -11944049.77247  -9222698.52445  22259491.9384                   22259493.2584
 -15155849.974 8 -11796822.393 7  21815017.664
  -6330991.769 7  -4916957.058 6  23561001.023
 -20243295.291 8 -15753442.855 7  20917697.031
 -23355371.143 8 -18162620.092 8  20305597.750
  -3177817.15246  -2427574.87043  24140093.4844                   24140095.3094
 -19563339.81948 -15196536.32546  21117179.5164                   21117177.8714
 11  8 13  2 11  0.0000000  0  7G10G25G29G12G05G04G02
 -11858791.05347  -9156263.16745  22275716.1724                   22275717.3244
 -15191760.555 8 -11824804.663 7  21808183.953
  -6414476.147 7  -4982009.682 6  23545113.141
 -20212067.220 8 -15729109.280 7  20923639.586
 -23369624.541 8 -18173726.602 8  20302885.836
  -3096770.19546  -2364421.40843  24155515.8054                   24155517.5904
 -19531504.57748 -15171729.63446  21123237.5864                   21123235.7664
 11  8 13  2 11 30.0000000  0  7G10G25G29G12G05G04G02
 -11773166.02147  -9089542.39345  22292010.4144                   22292010.7234
 -15227116.052 8 -11852354.402 7  21801456.070
  -6497971.657 7  -5047070.952 6  23529225.047
 -20180284.792 8 -15704343.749 7  20929687.352
 -23383300.094 8 -18184382.841 8  20300283.047
  -3015770.02646  -2301304.39543  24170929.3204                   24170931.3204
 -19499539.44648 -15146821.72546  21129320.4614                   21129318.6524
 11  8 13  2 12  0.0000000  0  7G10G25G29G12G05G04G02
 -11687178.36747  -9022539.02744  22308373.0554                   22308373.8324
 -15261916.205 8 -11879471.405 7  21794833.570
  -6581477.687 7  -5112140.467 6  23513333.875
 -20147950.784 8 -15679148.403 7  20935840.594
 -23396398.828 8 -18194589.610 8  20297790.367
  -2934818.12646  -2238225.02843  24186334.2194                   24186336.0944
 -19467445.98748 -15121813.81246  21135427.5394                   21135425.8164
 11  8 13  2 12 30.0000000  0  7G10G25G29G12G05G04G02
 -11600830.57847  -8955255.04144  22324804.3834                   22324805.5514
 -15296159.546 8 -11906154.527 7  21788317.555
  -6664993.016 7  -5177217.250 6  23497442.203
 -20115065.621 8 -15653523.581 7  20942098.438
 -23408920.452 8 -18204346.696 8  20295407.742
  -2853914.50546  -2175183.25543  24201730.4774                   24201731.9454
 -19435224.55848 -15096706.18746  21141559.0864                   21141557.2624
 11  8 13  2 13  0.0000000  0  7G10G25G29G12G05G04G02
 -11514125.59747  -8887692.72744  22341303.6094                   22341304.6564
 -15329844.635 8 -11932402.656 7  21781907.469
  -6748515.837 6  -5242299.897 6  23481547.719
 -20081630.595 8 -15627470.284 7  20948460.766
 -23420864.963 8 -18213654.074 8  20293134.758
  -2773059.27946  -2112179.18143  24217116.5864                   24217118.1844
 -19402875.72548 -15071499.28346  21147714.7114                   21147713.0004
 11  8 13  2 13 30.0000000  0  7G10G25G29G12G05G04G02
 -11427067.02747  -8819854.86444  22357870.7814                   22357871.4224
 -15362971.412 8 -11958215.722 7  21775603.633
  -6832045.891 7  -5307388.167 6  23465653.102
 -20047648.121 8 -15600990.419 7  20954927.375
 -23432233.164 8 -18222512.388 8  20290971.281
  -2692253.71746  -2049213.82643  24232492.5314                   24232494.6994
 -19370400.89648 -15046194.19446  21153894.5394                   21153893.1134
 11  8 13  2 14  0.0000000  0  7G10G25G29G12G05G04G02
 -11339654.81547  -8751741.45944  22374504.6094                   22374505.5394
 -15395535.967 8 -11983590.695 7  21769406.781
  -6915579.320 7  -5372479.069 6  23449757.398
 -20013116.813 8 -15574082.885 7  20961498.391
 -23443022.376 8 -18230919.535 8  20288918.297
  -2611495.63446  -1986285.46043  24247860.4224                   24247862.7814
 -19337797.90448 -15020789.23946  21160098.7424                   21160096.8524
 11  8 13  2 14 30.0000000  0  7G10G25G29G12G05G04G02
 -11251895.63047  -8683357.69344  22391204.5314                   22391205.2544
 -15427540.936 7 -12008529.612 7  21763316.336
  -6999118.519 7  -5437574.474 6  23433860.227
 -19978041.804 8 -15546751.699 7  20968172.836
 -23453236.556 8 -18238878.622 8  20286974.602
  -2530789.12846  -1923397.23943  24263218.1024                   24263220.7544
 -19305071.39448 -14995288.04646  21166326.4384                   21166324.5944
 11  8 13  2 15  0.0000000  0  7G10G25G29G12G05G04G02
 -11163790.67547  -8614704.47544  22407970.0234                   22407970.7974
 -15458983.531 8 -12033030.337 7  21757333.711
  -7082660.326 7  -5502671.936 6  23417962.398
 -19942422.291 8 -15518996.212 7  20974951.148
 -23462874.040 8 -18246388.321 8  20285140.414
  -2450132.66746  -1860548.03443  24278566.2734                   24278568.5904
 -19272220.07748 -14969689.59646  21172577.5944                   21172575.8914
 11  8 13  2 15 30.0000000  0  7G10G25G29G12G05G04G02
 -11075342.79947  -8545784.07144  22424801.7734                   22424802.1954
 -15489862.759 8 -12057092.049 7  21751457.016
  -7166203.696 7  -5567770.641 6  23402064.977
 -19906260.202 8 -15490817.938 7  20981832.367
 -23471934.869 8 -18253448.679 8  20283416.469
  -2369526.88747  -1797738.28843  24293904.8364                   24293907.9304
 -19239244.57048 -14943994.39346  21178852.9924                   21178850.8284
 11  8 13  2 16  0.0000000  0  7G10G25G29G12G05G04G02
 -10986554.06347  -8476598.04444  22441697.5314                   22441697.7234
 -15520176.800 8 -12080713.335 7  21745688.555
  -7249746.171 7  -5632868.626 6  23386167.047
 -19869556.301 8 -15462217.477 7  20988817.078
 -23480418.455 8 -18260059.251 8  20281802.031
  -2288971.01347  -1734967.47743  24309236.0314                   24309236.5204
 -19206144.44548 -14918202.08046  21185151.3594                   21185149.6374
 11  8 13  2 16 30.0000000  0  8G10G25G29G26G12G05G04G02
 -10897427.98947  -8407149.13744  22458657.1414                   22458657.3324
 -15549925.267 8 -12103893.935 7  21740027.313
  -7333287.207 7  -5697965.515 6  23370269.773
    656795.18245    549964.75643  24801617.9064                   24801619.5784
 -19832312.174 8 -15433196.052 7  20995904.125
 -23488325.794 8 -18266220.794 8  20280297.375
  -2208466.15846  -1672236.38043  24324554.5394                   24324556.2664
 -19172921.25948 -14892313.86446  21191473.8444                   21191471.8014
 11  8 13  2 17  0.0000000  0  8G10G25G29G26G12G05G04G02
 -10807965.56547  -8337438.13944  22475681.5314                   22475681.2274
 -15579105.424 8 -12126631.694 7  21734474.758
  -7416823.829 7  -5763058.960 6  23354372.914
    562395.38546    476406.53942  24783654.1884                   24783656.4064
 -19794527.619 8 -15403753.530 7  21003094.266
 -23495655.308 8 -18271932.079 8  20278902.789
  -2128010.67246  -1609543.79843  24339864.6564                   24339866.6134
 -19139573.87148 -14866328.88146  21197819.5314                   21197817.9304
 11  8 13  2 17 30.0000000  0  8G10G25G29G26G12G05G04G02
 -10718175.16747  -8267471.58744  22492768.4614                   22492768.8054
 -15607721.898 7 -12148930.204 7  21729028.805
  -7500360.078 7  -5828152.147 6  23338476.961
    467871.09246    402751.31143  24765667.1174                   24765668.5124
 -19756210.098 8 -15373895.704 7  21010386.141
 -23502412.779 8 -18277197.608 8  20277616.539
  -2047610.64646  -1546894.31243  24355163.7504                   24355165.8524
 -19106108.38648 -14840251.88046  21204187.7734                   21204186.2814
 11  8 13  2 18  0.0000000  0  8G10G25G29G26G12G05G04G02
 -10628055.56547  -8197248.52144  22509917.2974                   22509917.8164
 -15635769.709 8 -12170785.612 7  21723691.430
  -7583890.681 6  -5893240.898 6  23322581.117
    373229.22546    329004.51643  24747656.6804                   24747658.7814
 -19717357.062 8 -15343620.599 7  21017779.758
 -23508594.262 8 -18282014.311 8  20276440.109
  -1967262.27846  -1484285.21743  24370454.1724                   24370455.6564
 -19072521.10047 -14814079.96546  21210579.2194                   21210577.4104
 11  8 13  2 18 30.0000000  0  8G10G25G29G26G12G05G04G02
 -10537610.08447  -8126771.52044  22527128.1174                   22527129.4494
 -15663248.404 8 -12192197.539 7  21718462.477
  -7667414.640 7  -5958324.491 6  23306687.336
    278472.48246    255168.22943  24729625.2424                   24729627.5944
 -19677970.205 8 -15312929.514 7  21025275.016
 -23514200.766 8 -18286382.982 8  20275373.469
  -1886966.29246  -1421716.88443  24385733.8364                   24385736.0514
 -19038813.24848 -14787814.10546  21216993.8984                   21216991.9924
 11  8 13  2 19  0.0000000  0  8G10G25G29G26G12G05G04G02
 -10446843.12446  -8056044.02044  22544400.3204                   22544401.7504
 -15690158.639 7 -12213166.520 7  21713341.758
  -7750931.901 6  -6023402.844 6  23290794.641
    183602.37446    181243.52343  24711572.3594                   24711573.5704
 -19638052.637 8 -15281824.897 7  21032870.844
 -23519234.196 8 -18290305.099 8  20274415.727
  -1806724.47046  -1359190.80443  24401002.6094                   24401005.7624
 -19004986.81248 -14761455.83246  21223430.4694                   21223428.5744
 11  8 13  2 19 30.0000000  0  8G10G25G29G26G12G05G04G02
 -10355755.53646  -7985066.67644  22561733.8834                   22561734.8714
 -15716497.535 8 -12233690.284 7  21708329.375
  -7834438.830 7  -6088473.128 6  23274903.836
     88623.65846    107234.22543  24693498.1024                   24693499.7774
 -19597603.787 8 -15250306.298 7  21040568.242
 -23523692.839 8 -18293779.335 8  20273566.930
  -1726535.03747  -1296705.48843  24416262.5554                   24416264.7974
 -18971040.14848 -14735003.86846  21229890.5314                   21229888.5124
 11  8 13  2 20  0.0000000  0  8G10G25G29G26G12G05G04G02
 -10264350.84046  -7913842.26444  22579127.5474                   22579128.7274
 -15742264.729 8 -12253768.582 7  21703426.359
  -7917935.208 6  -6153535.156 6  23259014.703
     -6461.04746     33142.34043  24675404.7814                   24675406.7034
 -19556626.102 8 -15218375.620 7  21048365.719
 -23527576.961 8 -18296805.893 8  20272828.039
  -1646398.78447  -1234261.60443  24431512.7814                   24431513.8714
 -18936974.64548 -14708459.28546  21236373.0084                   21236370.6524
 11  8 13  2 20 30.0000000  0  8G10G25G29G26G12G05G04G02
 -10172632.71947  -7842373.60844  22596581.7974                   22596582.4574
 -15767460.390 8 -12273401.506 7  21698631.570
  -8001420.059 7  -6218588.238 6  23243128.563
   -101649.72646    -41030.58643  24657290.3444                   24657292.6054
 -19515121.632 8 -15186034.467 7  21056264.000
 -23530888.379 8 -18299386.192 8  20272197.633
  -1566316.80646  -1171860.03343  24446751.3594                   24446753.0084
 -18902791.23148 -14681822.81946  21242877.7974                   21242875.8164
 11  8 13  2 21  0.0000000  0  8G10G25G29G26G12G05G04G02
 -10080603.27247  -7770662.35444  22614094.5234                   22614094.5124
 -15792082.994 8 -12292587.931 7  21693946.484
  -8084891.276 7  -6283630.640 6  23227243.844
   -196938.77846   -115281.70943  24639157.4694                   24639159.5944
 -19473092.153 8 -15153284.187 7  21064261.586
 -23533626.874 8 -18301520.042 8  20271676.773
  -1486288.69046  -1109500.39943  24461980.2894                   24461981.5274
 -18868489.98748 -14655094.55346  21249404.6174                   21249403.1294
 11  8 13  2 21 30.0000000  0  8G10G25G29G26G12G05G04G02
  -9988264.88147  -7698710.34644  22631665.5394                   22631666.2664
 -15816131.453 8 -12311326.946 7  21689369.969
  -8168347.218 7  -6348661.158 6  23211362.883
   -292324.80146   -189608.41543  24621005.3054                   24621007.6134
 -19430538.581 8 -15120125.551 7  21072359.164
 -23535792.324 8 -18303207.381 8  20271264.344
  -1406314.63146  -1047182.98043  24477198.9614                   24477200.3794
 -18834070.86347 -14628274.43246  21255954.8524                   21255953.0784
 11  8 13  2 22  0.0000000  0  8G10G25G29G26G12G05G04G02
  -9895621.37546  -7626520.59344  22649295.2424                   22649295.7974
 -15839605.836 8 -12329618.634 7  21684903.273
  -8251787.130 7  -6413679.189 6  23195484.422
   -387805.44146   -264008.90343  24602836.3054                   24602838.6294
 -19387462.887 8 -15086560.054 7  21080556.234
 -23537386.218 8 -18304449.348 8  20270960.922
  -1326395.28646   -984908.10743  24492406.7034                   24492408.5004
 -18799535.47848 -14601363.71746  21262526.5234                   21262524.6884
 11  8 13  2 22 30.0000000  0  8G10G25G29G26G12G05G04G02
  -9802675.82847  -7554095.48044  22666981.7734                   22666982.7304
 -15862505.774 8 -12347462.722 7  21680545.211
  -8335210.057 7  -6478683.964 6  23179609.758
   -483378.10646   -338481.05343  24584649.1724                   24584651.3364
 -19343867.877 8 -15052589.891 7  21088852.070
 -23538409.363 8 -18305246.578 8  20270766.461
  -1246531.35246   -922676.44243  24507604.0864                   24507606.0474
 -18764885.01547 -14574363.33846  21269120.3054                   21269118.3754
 11  8 13  2 23  0.0000000  0  8G10G25G29G26G12G05G04G02
  -9709430.44347  -7481436.76744  22684726.1724                   22684726.5004
 -15884829.951 8 -12364858.147 7  21676296.828
  -8418613.653 7  -6543673.687 6  23163738.367
   -579039.04346   -413021.97643  24566445.4844                   24566447.9804
 -19299754.311 8 -15018215.669 7  21097246.414
 -23538861.247 8 -18305598.667 8  20270680.398
  -1166722.26246   -860487.55243  24522791.3444                   24522793.2034
 -18730118.73547 -14547272.71146  21275735.8204                   21275734.0514
 11  8 13  2 23 30.0000000  0  8G10G25G29G26G12G05G04G02
  -9615888.59746  -7408547.02644  22702527.0164                   22702526.9384
 -15906577.920 8 -12381804.593 7  21672158.266
  -8501996.728 7  -6608647.388 6  23147871.156
   -674785.48446   -487629.60243  24548225.5004                   24548228.1724
 -19255124.272 8 -14983439.014 7  21105739.445
 -23538742.978 8 -18305506.473 8  20270702.719
  -1086968.48246   -798341.74043  24537968.3284                   24537969.4024
 -18695237.41247 -14520092.44146  21282374.0394                   21282372.0554
 11  8 13  2 24  0.0000000  0  8G10G25G29G26G12G05G04G02
  -9522053.71647  -7335428.96044  22720382.8134                   22720383.5704
 -15927749.821 8 -12398302.136 7  21668129.313
  -8585358.628 7  -6673604.613 6  23132007.773
   -770615.07246   -562302.00442  24529989.3284                   24529991.5784
 -19209980.393 8 -14948261.956 7  21114329.828
 -23538056.134 8 -18304971.228 8  20270833.563
  -1007271.24446   -736239.90043  24553133.8594                   24553135.0044
 -18660242.41148 -14492823.58146  21289033.3674                   21289031.5984
 11  8 13  2 24 30.0000000  0  8G10G25G29G26G12G05G04G02
  -9427927.31447  -7262083.71544  22738294.3524                   22738295.3324
 -15948343.629 8 -12414349.230 7  21664210.352
  -8668696.267 7  -6738542.926 6  23116148.609
   -866523.20746   -637035.60442  24511739.1954                   24511741.9414
 -19164322.712 8 -14912684.514 7  21123018.438
 -23536799.327 8 -18303991.865 8  20271072.641
   -927629.06046   -674181.00643  24568289.4304                   24568290.7384
 -18625132.68848 -14465465.34546  21295714.4144                   21295712.7974
 11  8 13  2 25  0.0000000  0  8G10G25G29G26G12G05G04G02
  -9333512.94046  -7188514.06644  22756261.1414                   22756261.7814
 -15968359.641 8 -12429946.090 7  21660401.477
  -8752009.186 7  -6803461.976 6  23100295.297
   -962507.90746   -711828.80643  24493474.2814                   24493476.7624
 -19118154.241 8 -14876709.065 7  21131803.875
 -23534974.427 7 -18302569.820 8  20271420.180
   -848043.04646   -612165.94743  24583433.9304                   24583436.1454
 -18589909.51548 -14438018.68846  21302417.1484                   21302415.2894
 11  8 13  2 25 30.0000000  0  8G10G25G29G26G12G05G04G02
  -9238813.81046  -7114722.56444  22774281.6254                   22774282.6564
 -15987797.718 8 -12445092.594 7  21656702.664
  -8835296.377 7  -6868360.981 6  23084445.875
  -1058566.07946   -786679.31842  24475195.3364                   24475197.5554
 -19071477.092 8 -14840337.239 7  21140686.297
 -23532582.324 8 -18300705.809 8  20271875.219
   -768513.70746   -550194.96643  24598567.0394                   24598569.8404
 -18554573.95948 -14410484.47346  21309141.1644                   21309139.3914
 11  8 13  2 26  0.0000000  0  8G10G25G29G26G12G05G04G02
  -9143832.92147  -7040711.52344  22792355.4924                   22792356.8444
 -16006657.440 8 -12459788.445 7  21653113.555
  -8918556.310 7  -6933238.775 6  23068602.289
  -1154695.16246   -861585.05943  24456902.1414                   24456904.0314
 -19024292.784 8 -14803570.230 7  21149665.133
 -23529623.794 8 -18298400.430 8  20272437.977
   -689041.41646   -488268.46943  24613690.0234                   24613693.1454
 -18519126.73048 -14382863.24646  21315886.4454                   21315884.7234
 11  8 13  2 26 30.0000000  0  8G10G25G29G26G12G05G04G02
  -9048571.47947  -6966481.80844  22810483.4384                   22810484.3444
 -16024936.543 8 -12474031.870 7  21649634.844
  -9001785.524 7  -6998092.597 6  23052763.422
  -1250889.94047   -936542.00343  24438596.5164                   24438599.3014
 -18976602.285 8 -14766408.787 7  21158740.336
 -23526097.746 8 -18295652.832 8  20273108.938
   -609624.48646   -426385.08643  24628803.7344                   24628805.7274
 -18483566.28548 -14355153.78546  21322653.6564                   21322651.8484
 11  8 13  2 27  0.0000000  0  8G10G25G29G26G12G05G04G02
  -8953034.90847  -6892037.74444  22828663.6254                   22828664.1994
 -16042637.258 8 -12487824.577 7  21646267.125
  -9084985.365 7  -7062923.502 6  23036931.125
  -1347150.19147  -1011549.99943  24420279.3594                   24420281.6294
 -18928409.788 8 -14728856.190 7  21167910.953
 -23522007.673 8 -18292465.728 8  20273887.672
   -530266.09046   -364547.37243  24643904.4614                   24643907.0474
 -18447895.58648 -14327358.42846  21329441.2424                   21329439.4454
 11  8 13  2 27 30.0000000  0  8G10G25G29G26G12G05G04G02
  -8857224.15747  -6817380.04144  22846895.5234                   22846896.6454
 -16059757.046 8 -12501164.636 7  21643008.945
  -9168152.082 7  -7127728.616 6  23021104.805
  -1443470.58746  -1086604.73243  24401948.9064                   24401951.1954
 -18879715.396 8 -14690912.486 7  21177177.438
 -23517352.144 8 -18288838.022 8  20274773.000
   -450964.19346   -302753.60943  24658995.0634                   24658997.3284
 -18412113.12748 -14299475.97146  21336250.3524                   21336248.5084
 11  8 13  2 28  0.0000000  0  8G10G25G29G26G12G05G04G02
  -8761143.19647  -6742511.76744  22865178.5634                   22865179.3244
 -16076296.569 8 -12514052.522 7  21639861.406
  -9251285.254 7  -7192507.554 6  23005285.344
  -1539849.18847  -1161704.91043  24383609.6724                   24383611.3754
 -18830521.969 8 -14652579.950 7  21186538.445
 -23512132.946 8 -18284771.088 8  20275766.313
   -371719.86846   -241004.75343  24674074.6334                   24674076.5004
 -18376220.48748 -14271507.66546  21343080.5394                   21343078.9224
 11  8 13  2 28 30.0000000  0  8G10G25G29G26G12G05G04G02
  -8664795.16647  -6667435.41244  22883513.3754                   22883514.5664
 -16092255.832 8 -12526488.270 7  21636824.734
  -9334383.290 7  -7257259.169 6  22989472.250
  -1636282.99147  -1236848.08043  24365258.4454                   24365261.1024
 -18780831.431 8 -14613860.058 7  21195993.969
 -23506351.780 8 -18280266.284 8  20276866.414
   -292533.74446   -179301.25543  24689144.5234                   24689145.2464
 -18340218.43048 -14243454.10046  21349931.4224                   21349929.6214
 11  8 13  2 29  0.0000000  0  7G10G25G29G26G12G05G02
  -8568181.82547  -6592152.29544  22901898.3524                   22901899.5084
 -16107633.435 8 -12538470.777 7  21633897.992
  -9417444.008 7  -7321981.673 6  22973666.430
  -1732767.99046  -1312031.13043  24346899.0004                   24346899.8984
 -18730645.220 8 -14574753.898 7  21205544.594
 -23500007.694 8 -18275322.821 8  20278073.664
 -18304106.38648 -14215314.83946  21356803.4774                   21356801.2854
 11  8 13  2 29 30.0000000  0  7G10G25G29G26G12G05G02
  -8471306.15047  -6516664.77744  22920333.3204                   22920334.4024
 -16122429.214 8 -12549999.918 7  21631082.531
  -9500466.009 7  -7386674.028 6  22957867.883
  -1829301.21746  -1387251.73843  24328528.0394                   24328530.8594
 -18679965.841 8 -14535263.448 7  21215188.320
 -23493101.756 8 -18269941.561 8  20279387.883
 -18267884.96148 -14187090.34446  21363696.5704                   21363694.4414
 11  8 13  2 30  0.0000000  0  7G10G25G29G26G12G05G02
  -8374171.69547  -6440975.59944  22938817.3524                   22938818.0984
 -16136643.582 8 -12561076.008 7  21628377.797
  -9583448.406 7  -7451335.531 6  22942076.461
  -1925880.22546  -1462508.12543  24310150.1644                   24310151.7344
 -18628795.594 8 -14495390.532 7  21224925.523
 -23485635.980 8 -18264124.057 8  20280808.531
 -18231555.25448 -14158781.47446  21370609.3204                   21370608.2774
 11  8 13  2 30 30.0000000  0  7G10G25G29G26G12G05G02
  -8276780.69947  -6365086.53744  22957350.2894                   22957351.3794
 -16150275.470 8 -12571698.220 7  21625783.891
  -9666388.794 7  -7515964.304 7  22926293.383
  -2022500.60146  -1537796.60243  24291764.2114                   24291765.8794
 -18577135.549 8 -14455135.942 7  21234756.383
 -23477610.214 8 -18257870.199 8  20282335.641
 -18195116.80148 -14130387.87346  21377543.4224                   21377541.7544
 11  8 13  2 31  0.0000000  0  7G10G25G29G26G12G05G02
  -8179136.05047  -6288999.83044  22975932.0634                   22975932.7544
 -16163324.890 8 -12581866.546 7  21623300.508
  -9749285.874 7  -7580559.356 6  22910517.781
  -2119159.97047  -1613115.56243  24273369.6954                   24273371.7854
 -18524988.088 8 -14414501.547 7  21244679.555
 -23469025.638 8 -18251180.901 8  20283969.359
 -18158570.11448 -14101909.93546  21384498.3204                   21384496.1684
 11  8 13  2 31 30.0000000  0  7G10G25G29G26G12G05G02
  -8081240.41947  -6212717.55144  22994560.7504                   22994561.4494
 -16175791.341 8 -12591580.610 7  21620927.914
  -9832137.535 7  -7645118.977 7  22894751.914
  -2215854.81546  -1688462.19143  24254970.0554                   24254970.8444
 -18472355.291 8 -14373488.954 7  21254695.188
 -23459882.773 8 -18244056.567 8  20285709.414
 -18121915.51948 -14073347.92046  21391472.9064                   21391471.3554
 11  8 13  2 32  0.0000000  0  7G10G25G29G26G12G05G02
  -7983098.10546  -6136243.03544  23013235.9384                   23013237.1954
 -16187676.026 8 -12600841.353 7  21618666.367
  -9914943.512 7  -7709642.991 7  22878994.766
  -2312583.00746  -1763834.79443  24236563.5234                   24236564.8204
 -18419241.061 8 -14332101.278 7  21264802.805
 -23450184.185 8 -18236499.206 8  20287554.852
 -18085154.74148 -14044703.17246  21398468.6174                   21398466.7814
 11  8 13  2 32 30.0000000  0  7G10G25G29G26G12G05G02
  -7884710.76647  -6059577.57844  23031958.8054                   23031960.2194
 -16198977.577 8 -12609647.717 7  21616515.359
  -9997701.187 7  -7774129.408 7  22863246.227
  -2409340.25446  -1839229.97343  24218150.8054                   24218152.7624
 -18365645.520 8 -14290338.520 7  21275001.578
 -23439929.621 8 -18228508.618 8  20289505.961
 -18048287.02648 -14015975.08846  21405484.5474                   21405482.2894
 11  8 13  2 33  0.0000000  0  7G10G25G29G26G12G05G02
  -7786080.86246  -5982723.10744  23050727.5944                   23050728.4264
 -16209695.542 8 -12617999.333 7  21614476.078
 -10080408.594 7  -7838576.677 7  22847507.430
  -2506122.82646  -1914644.92743  24199733.2034                   24199734.9344
 -18311570.704 8 -14248202.264 7  21285292.117
 -23429119.573 8 -18220085.180 8  20291563.023
 -18011312.28348 -13987163.60146  21412520.4924                   21412518.6374
 11  8 13  2 33 30.0000000  0  7G10G25G29G26G12G05G02
  -7687212.84446  -5905683.09644  23069541.6094                   23069542.5124
 -16219831.390 8 -12625897.342 7  21612546.961
 -10163065.566 7  -7902984.626 6  22831778.609
  -2602929.32646  -1990078.44643  24181311.0084                   24181313.9224
 -18257020.614 8 -14205695.705 7  21295672.094
 -23417756.915 8 -18211231.139 8  20293725.430
 -17974232.66748 -13958270.38146  21419576.2894                   21419574.4064
 11  8 13  2 34  0.0000000  0  7G10G25G29G26G12G05G02
  -7588108.13646  -5828458.67344  23088399.7664                   23088401.1844
 -16229383.533 8 -12633340.542 7  21610729.852
 -10245668.915 7  -7967350.815 6  22816059.617
  -2699754.80746  -2065526.73543  24162886.6414                   24162888.4534
 -18201995.856 8 -14162819.267 7  21306143.391
 -23405841.051 8 -18201946.023 8  20295993.047
 -17937046.93448 -13929294.47746  21426652.7584                   21426650.6644
 11  8 13  2 34 30.0000000  0  7G10G25G29G26G12G05G02
  -7488769.67146  -5751052.10643  23107303.7894                   23107304.8094
 -16238352.090 8 -12640328.973 7  21609022.992
 -10328217.281 7  -8031674.168 6  22800350.891
  -2796596.12346  -2140987.40943  24144457.8054                   24144459.6174
 -18146498.625 8 -14119574.600 7  21316703.781
 -23393373.150 8 -18192230.758 8  20298365.492
 -17899755.47448 -13900236.17746  21433749.0314                   21433746.3134
 11  8 13  2 35  0.0000000  0  7G10G25G29G26G12G05G02
  -7389201.38346  -5673466.44043  23126251.1804                   23126252.5704
 -16246738.062 8 -12646863.480 7  21607427.234
 -10410709.804 7  -8095953.995 6  22784653.242
  -2893451.22746  -2216458.78243  24126027.2504                   24126028.9224
 -18090532.206 8 -14075964.388 7  21327353.938
 -23380355.476 8 -18182087.079 8  20300842.461
 -17862359.71948 -13871096.60746  21440865.1484                   21440862.8094
 11  8 13  2 35 30.0000000  0  7G10G25G29G26G12G05G02
  -7289404.89146  -5595702.92143  23145241.9614                   23145242.0984
 -16254540.368 8 -12652943.147 7  21605942.281
 -10493143.884 7  -8160188.306 6  22768966.531
  -2990315.68946  -2291937.49643  24107593.9064                   24107596.0434
 -18034098.346 8 -14031989.971 7  21338092.883
 -23366787.979 8 -18171514.980 8  20303424.242
 -17824859.11848 -13841875.34646  21448000.7734                   21447998.7344
 11  8 13  2 36  0.0000000  0  7G10G25G29G26G12G05G02
  -7189384.50147  -5517764.97744  23164274.9454                   23164276.0044
 -16261760.378 8 -12658569.120 7  21604568.406
 -10575519.042 7  -8224376.686 6  22753290.523
  -3087187.70246  -2367422.10043  24089160.0944                   24089161.9224
 -17977200.202 8 -13987653.725 7  21348919.992
 -23352673.328 8 -18160516.521 8  20306110.086
 -17787255.19848 -13812573.56446  21455156.9224                   21455155.2464
 11  8 13  2 36 30.0000000  0  7G10G25G29G26G12G05G02
  -7089142.72947  -5439654.53144  23183350.3364                   23183351.6024
 -16268398.077 8 -12663741.314 7  21603305.148
 -10657833.389 7  -8288517.656 7  22737627.188
  -3184063.64747  -2442909.78143  24070725.2504                   24070727.9654
 -17919839.892 8 -13942957.372 7  21359835.305
 -23338012.407 8 -18149092.401 8  20308900.164
 -17749548.37748 -13783191.61446  21462332.4924                   21462330.6374
 11  8 13  2 37  0.0000000  0  7G10G25G29G26G12G05G02
  -6988680.14947  -5361371.99044  23202467.4924                   23202468.5904
 -16274451.190 8 -12668458.004 7  21602153.391
 -10740083.123 7  -8352608.307 7  22721975.750
  -3280938.15046  -2518396.34843  24052289.9694                   24052292.4184
 -17862017.303 8 -13897900.822 7  21370838.445
 -23322804.002 8 -18137241.667 8  20311794.031
 -17711736.44948 -13753727.75346  21469527.6414                   21469525.7584
 11  8 13  2 37 30.0000000  0  7G10G25G29G26G12G05G02
  -6888002.09947  -5282921.58944  23221626.4454                   23221627.2974
 -16279922.348 8 -12672721.228 7  21601112.398
 -10822268.914 7  -8416649.101 6  22706336.227
  -3377810.48746  -2593881.28643  24033856.3134                   24033857.1134
 -17803737.497 8 -13852487.966 7  21381928.492
 -23307052.019 8 -18124967.369 8  20314791.930
 -17673822.23748 -13724184.19346  21476742.3204                   21476740.3484
 11  8 13  2 38  0.0000000  0  7G10G25G29G26G12G05G02
  -6787109.85847  -5204304.25344  23240825.7734                   23240826.5084
 -16284809.960 8 -12676529.739 7  21600182.258
 -10904387.477 7  -8480637.489 6  22690709.227
  -3474675.28646  -2669360.34943  24015423.2034                   24015425.5004
 -17745001.068 8 -13806719.309 7  21393105.938
 -23290755.905 8 -18112269.065 8  20317892.531
 -17635804.45748 -13694559.92246  21483977.1174                   21483975.0394
 11  8 13  2 38 30.0000000  0  7G10G25G29G26G12G05G02
  -6686008.21847  -5125523.75744  23260064.0234                   23260065.6134
 -16289116.318 8 -12679885.331 7  21599362.969
 -10986439.093 7  -8544573.725 7  22675095.242
  -3571531.43146  -2744832.58943  23996992.5864                   23996994.1884
 -17685812.397 8 -13760598.209 7  21404369.227
 -23273918.978 8 -18099149.352 8  20321096.250
 -17597685.56248 -13664856.87046  21491230.7584                   21491228.4614
 11  8 13  2 39  0.0000000  0  7G10G25G29G26G12G05G02
  -6584697.84447  -5046580.58144  23279343.0234                   23279343.8284
 -16292839.462 8 -12682786.441 7  21598654.414
 -11068419.888 7  -8608454.765 7  22659494.625
  -3668373.45546  -2820293.85643  23978563.7274                   23978565.3714
 -17626171.653 7 -13714124.864 7  21415718.281
 -23256540.502 8 -18085607.655 8  20324403.625
 -17559463.58348 -13635073.49846  21498504.2814                   21498502.2194
 11  8 13  2 39 30.0000000  0  7G10G25G29G26G12G05G02
  -6483182.13547  -4967477.45044  23298660.7274                   23298661.4574
 -16295980.171 8 -12685233.734 7  21598056.836
 -11150328.555 7  -8672279.625 7  22643907.953
  -3765198.44246  -2895741.77443  23960138.4924                   23960140.4884
 -17566082.028 7 -13667301.749 7  21427153.125
 -23238622.299 8 -18071645.397 8  20327813.359
 -17521139.31848 -13605210.42446  21505796.7114                   21505795.2424
 11  8 13  2 40  0.0000000  0  7G10G25G29G26G12G05G02
  -6381464.68746  -4888217.12543  23318016.7114                   23318017.9414
 -16298539.498 8 -12687227.980 7  21597569.461
 -11232164.093 7  -8736047.481 6  22628334.844
  -3862004.15146  -2971174.72743  23941717.1254                   23941718.5354
 -17505546.463 7 -13620131.156 7  21438673.125
 -23220166.568 8 -18057264.288 8  20331325.203
 -17482714.19648 -13575268.75946  21513108.8284                   21513107.1524
 11  8 13  2 40 30.0000000  0  7G10G25G29G26G12G05G02
  -6279547.29647  -4808800.98743  23337411.8834                   23337412.6914
 -16300516.815 8 -12688768.720 7  21597193.281
 -11313923.913 7  -8799756.316 6  22612776.180
  -3958786.07446  -3046589.14643  23923299.3754                   23923301.5354
 -17444566.705 7 -13572614.440 7  21450276.953
 -23201173.447 8 -18042464.427 8  20334939.641
 -17444187.34448 -13545247.80846  21520439.9614                   21520438.0864
 11  8 13  2 41  0.0000000  0  7G10G25G29G26G12G05G02
  -6177433.12147  -4729231.49044  23356843.3284                   23356843.9494
 -16301912.611 8 -12689856.324 7  21596927.469
 -11395606.516 7  -8863405.006 7  22597232.969
  -4055541.26046  -3121982.68843  23904888.2274                   23904889.8484
 -17383145.149 7 -13524753.450 7  21461964.961
 -23181644.629 8 -18027247.139 8  20338656.125
 -17405558.92148 -13515147.72646  21527791.3054                   21527789.1644
 11  8 13  2 41 30.0000000  0  7G10G25G29G26G12G05G02
  -6075124.97047  -4649510.83343  23376310.9924                   23376312.5594
 -16302727.270 8 -12690491.116 7  21596772.352
 -11477210.062 7  -8926992.102 7  22581704.492
  -4152266.14446  -3197352.64143  23886480.5864                   23886483.5704
 -17321284.420 8 -13476550.267 7  21473736.633
 -23161581.449 8 -18011613.470 8  20342473.797
 -17366829.66448 -13484969.07446  21535160.7194                   21535159.7424
 11  8 13  2 42  0.0000000  0  7G10G25G29G26G12G05G02
  -5972626.07047  -4569641.55644  23395816.6724                   23395817.2194
 -16302961.683 8 -12690673.732 7  21596727.844
 -11558733.413 7  -8990516.724 7  22566191.078
  -4248958.19146  -3272697.05143  23868081.0004                   23868083.8674
 -17258987.559 7 -13428007.232 7  21485591.414
 -23140985.980 8 -17995565.041 8  20346393.133
 -17328000.35348 -13454712.45646  21542549.7584                   21542548.2154
 11  8 13  2 42 30.0000000  0  7G10G25G29G26G12G05G02
  -5869938.66647  -4489625.41544  23415356.8524                   23415358.2624
 -16302615.714 8 -12690404.118 7  21596793.789
 -11640174.110 7  -9053976.918 7  22550693.070
  -4345613.37746  -3348012.75643  23849688.0944                   23849690.6764
 -17196256.403 7 -13379125.782 7  21497528.492
 -23119859.103 8 -17979102.522 8  20350413.281
 -17289070.75748 -13424377.68946  21549958.0554                   21549956.3634
 11  8 13  2 43  0.0000000  0  7G10G25G29G26G12G05G02
  -5767065.32147  -4409464.36643  23434933.8134                   23434933.9384
 -16301689.797 7 -12689682.584 7  21596969.875
 -11721530.561 7  -9117371.480 7  22535211.242
  -4442228.03846  -3423296.84044  23831303.8594                   23831305.9144
 -17133093.575 8 -13329907.982 7  21509547.891
 -23098202.178 8 -17962226.970 8  20354534.109
 -17250040.93148 -13393964.83445  21557385.1484                   21557383.4734
 11  8 13  2 43 30.0000000  0  7G10G25G29G26G12G05G02
  -5664009.37247  -4329160.99743  23454543.7194                   23454544.9964
 -16300184.663 8 -12688509.708 7  21597256.117
 -11802801.108 7  -9180699.121 6  22519746.125
  -4538799.26546  -3498547.12844  23812926.7974                   23812928.5984
 -17069502.004 7 -13280356.077 7  21521648.859
 -23076017.070 8 -17944939.847 8  20358755.945
 -17210911.57648 -13363474.42345  21564830.9614                   21564829.3244
 11  8 13  2 44  0.0000000  0  7G10G25G29G26G12G05G02
  -5560773.56547  -4248717.50743  23474189.3914                   23474189.4414
 -16298100.656 8 -12686885.783 7  21597652.516
 -11883983.607 7  -9243958.191 7  22504298.023
  -4635323.60147  -3573760.84743  23794558.7584                   23794560.9964
 -17005483.793 7 -13230471.739 7  21533831.313
 -23053305.080 8 -17927242.176 8  20363078.117
 -17171682.71948 -13332906.48146  21572296.6644                   21572294.0514
 11  8 13  2 44 30.0000000  0  7G10G25G29G26G12G05G02
  -5457360.77147  -4168136.10443  23493867.9224                   23493868.7974
 -16295438.294 8 -12684811.175 7  21598159.531
 -11965076.154 7  -9307147.182 6  22488866.508
  -4731797.41147  -3648935.24043  23776200.5784                   23776202.1764
 -16941041.834 8 -13180257.208 7  21546094.016
 -23030067.688 8 -17909135.098 8  20367499.906
 -17132354.64048 -13302261.22946  21579779.8054                   21579778.0004
 11  8 13  2 45  0.0000000  0  7G10G25G29G26G12G05G02
  -5353773.21947  -4087418.49943  23513579.7344                   23513580.5594
 -16292197.778 8 -12682286.067 7  21598776.234
 -12046077.239 7  -9370264.885 6  22473451.828
  -4828217.34547  -3724067.61543  23757852.2504                   23757854.1994
 -16876177.715 7 -13129713.720 7  21558437.344
 -23006306.263 8 -17890619.678 8  20372021.664
 -17092927.55248 -13271538.81046  21587282.7504                   21587280.6804
 11  8 13  2 45 30.0000000  0  7G10G25G29G26G12G05G02
  -5250013.57347  -4006566.83143  23533325.2664                   23533325.9774
 -16288379.546 8 -12679310.786 7  21599502.594
 -12126984.692 7  -9433309.597 6  22458056.016
  -4924579.44547  -3799154.94744  23739514.9844                   23739517.0634
 -16810894.569 7 -13078843.730 7  21570860.000
 -22982021.824 8 -17871696.715 8  20376642.555
 -17053401.19148 -13240739.04945  21594804.1174                   21594802.5984
 11  8 13  2 46  0.0000000  0  7G10G25G29G26G12G05G02
  -5146084.93747  -3925583.49044  23553101.8674                   23553102.6644
 -16283984.802 8 -12675886.272 7  21600338.813
 -12207796.919 7  -9496280.120 7  22442677.406
  -5020881.15246  -3874195.18943  23721188.9384                   23721190.2114
 -16745195.448 7 -13027649.635 7  21583362.492
 -22957216.929 8 -17852368.203 8  20381362.656
 -17013776.35548 -13209862.54246  21602344.4694                   21602342.3954
 11  8 13  2 46 30.0000000  0  7G10G25G29G26G12G05G02
  -5041990.23547  -3844470.76543  23572910.4844                   23572911.4104
 -16279013.976 8 -12672012.885 7  21601284.961
 -12288511.985 7  -9559174.899 7  22427318.359
  -5117118.66646  -3949185.43143  23702876.1564                   23702877.1724
 -16679082.784 7 -12976133.291 7  21595943.953
 -22931893.426 8 -17832635.585 8  20386181.852
 -16974053.45248 -13178909.63745  21609903.8284                   21609901.4774
 11  8 13  2 47  0.0000000  0  7G10G25G29G26G12G05G02
  -4937730.50647  -3763229.44943  23592750.7194                   23592752.0204
 -16273465.994 8 -12667689.752 7  21602340.805
 -12369126.503 7  -9621991.347 7  22411977.500
  -5213286.68946  -4024121.50643  23684575.5474                   23684577.0744
 -16612557.393 7 -12924295.325 7  21608602.852
 -22906050.137 8 -17812497.949 8  20391099.570
 -16934230.45948 -13147878.72446  21617481.7274                   21617479.6524
 11  8 13  2 47 30.0000000  0  8G10G25G29G26G12G05G15G02
  -4833311.56347  -3681864.00143  23612620.1484                   23612621.0784
 -16267344.924 8 -12662920.054 7  21603505.461
 -12449641.744 7  -9684730.440 6  22396656.063
  -5309385.77146  -4099003.82743  23666288.3754                   23666289.6214
 -16545625.595 7 -12872140.667 7  21621339.352
 -22879692.421 8 -17791959.453 8  20396115.070
   -140899.106 6    -93786.574 6  24620304.578
 -16894311.30547 -13116772.87645  21625078.2894                   21625076.0704
 11  8 13  2 48  0.0000000  0  8G10G25G29G26G12G05G15G02
  -4728733.88746  -3600374.94343  23632521.0474                   23632522.4414
 -16260648.955 8 -12657702.400 7  21604779.781
 -12530053.411 7  -9747388.807 7  22381354.063
  -5405409.33746  -4173827.31543  23648015.7424                   23648017.0124
 -16478287.152 7 -12819669.163 7  21634153.141
 -22852819.753 8 -17771019.689 8  20401228.688
   -235609.198 6   -167586.563 5  24602281.516
 -16854293.66347 -13085590.29245  21632693.1094                   21632691.0004
 11  8 13  2 48 30.0000000  0  8G10G25G29G26G12G05G15G02
  -4624001.06946  -3518764.98743  23652450.6484                   23652452.7894
 -16253379.605 8 -12652037.941 7  21606163.063
 -12610360.576 7  -9809965.745 7  22366072.531
  -5501354.82946  -4248589.96243  23629757.5704                   23629760.2074
 -16410545.512 7 -12766883.448 7  21647044.383
 -22825434.554 8 -17749680.557 8  20406439.828
   -330439.908 6   -241480.501 6  24584236.641
 -16814178.47747 -13054331.69845  21640327.1884                   21640324.6334
 11  8 13  2 49  0.0000000  0  8G10G25G29G26G12G05G15G02
  -4519114.17346  -3437034.99843  23672410.4774                   23672411.9734
 -16245536.295 8 -12645926.253 7  21607655.305
 -12690559.708 7  -9872458.476 7  22350810.992
  -5597217.78446  -4323288.29243  23611515.7504                   23611517.4344
 -16342402.082 7 -12713784.653 7  21660011.617
 -22797536.931 8 -17727942.132 8  20411748.492
   -425387.566 6   -315465.556 6  24566168.875
 -16773964.67347 -13022996.25945  21647979.1644                   21647977.2304
 11  8 13  2 49 30.0000000  0  8G10G25G29G26G12G05G15G02
  -4414077.68946  -3355188.42943  23692397.8444                   23692399.4964
 -16237121.220 8 -12639369.037 7  21609256.781
 -12770650.475 7  -9934866.776 7  22335570.039
  -5692995.85747  -4397920.49143  23593289.8364                   23593291.3834
 -16273861.224 7 -12660376.175 7  21673054.469
 -22769130.148 8 -17705806.971 8  20417154.227
   -520451.279 6   -389541.070 6  24548077.617
 -16733653.89647 -12991585.25445  21655650.4844                   21655648.2584
 11  8 13  2 50  0.0000000  0  8G10G25G29G26G12G05G15G02
  -4308893.07946  -3273226.43443  23712413.5944                   23712415.9534
 -16228134.125 8 -12632366.085 7  21610966.828
 -12850629.960 7  -9997188.364 7  22320350.484
  -5788684.53946  -4472483.05744  23575080.6334                   23575083.0434
 -16204924.385 7 -12606659.169 7  21686172.508
 -22740214.633 8 -17683275.384 8  20422656.719
   -615627.173 6   -463704.045 6  24529967.445
 -16693245.09647 -12960097.86946  21663339.7584                   21663338.2774
 11  8 13  2 50 30.0000000  0  8G10G25G29G26G12G05G15G02
  -4203565.23247  -3191152.84143  23732457.9384                   23732458.7114
 -16218578.061 8 -12624919.788 7  21612785.336
 -12930498.515 7 -10059423.525 7  22305152.258
  -5884282.71547  -4546975.06943  23556888.8364                   23556891.2854
 -16135596.678 8 -12552637.564 7  21699365.008
 -22710794.592 8 -17660350.658 8  20428255.273
   -710915.233 6   -537954.387 6  24511833.719
 -16652740.91748 -12928536.17445  21671047.5394                   21671045.1644
 11  8 13  2 51  0.0000000  0  8G10G25G29G26G12G05G15G02
  -4098094.12547  -3108967.56743  23752528.6804                   23752529.1884
 -16208451.129 8 -12617028.653 7  21614712.398
 -13010251.438 7 -10121568.591 7  22289975.492
  -5979783.99847  -4621391.63944  23538715.9064                   23538717.1684
 -16065877.476 8 -12498310.901 7  21712632.023
 -22680869.111 8 -17637032.096 8  20433949.805
   -806309.854 6   -612287.762 6  24493680.563
 -16612138.36348 -12896897.81046  21678773.9694                   21678771.6884
 11  8 13  2 51 30.0000000  0  8G10G25G29G26G12G05G15G02
  -3992483.34047  -3026673.44843  23772625.1724                   23772626.1644
 -16197755.032 8 -12608694.011 7  21616747.469
 -13089887.565 7 -10183622.633 7  22274820.625
  -6075185.72247  -4695730.62044  23520561.5394                   23520563.0744
 -15995771.094 8 -12443682.537 7  21725972.734
 -22650440.647 8 -17613321.593 8  20439740.289
   -901809.548 7   -686702.994 6  24475508.289
 -16571438.81548 -12865183.87146  21686518.7504                   21686516.9574
 11  8 13  2 52  0.0000000  0  8G10G25G29G26G12G05G15G02
  -3886736.58347  -2944273.36043  23792748.5234                   23792748.8914
 -16186491.632 8 -12599917.322 7  21618891.164
 -13169406.155 7 -10245585.102 6  22259688.453
  -6170485.63947  -4769990.34944  23502426.3284                   23502428.2544
 -15925280.942 8 -12388755.135 7  21739386.883
 -22619511.836 8 -17589221.201 8  20445625.906
   -997412.660 6   -761198.857 6  24457314.742
 -16530643.21248 -12833395.09145  21694281.6644                   21694279.7114
 11  8 13  2 52 30.0000000  0  8G10G25G29G26G12G05G15G02
  -3780854.33247  -2861767.71143  23812897.4224                   23812897.5004
 -16174659.809 8 -12590697.699 7  21621142.719
 -13248802.909 7 -10307452.658 7  22244580.438
  -6265677.42447  -4844165.61844  23484312.1334                   23484313.2464
 -15854407.661 8 -12333529.204 7  21752874.047
 -22588082.264 8 -17564730.615 8  20451606.695
  -1093114.546 6   -835771.603 6  24439103.992
 -16489749.74348 -12801530.04745  21702063.5084                   21702061.8404
 11  8 13  2 53  0.0000000  0  8G10G25G29G26G12G05G15G02
  -3674840.50446  -2779159.56243  23833070.5394                   23833071.0164
 -16162261.765 8 -12581036.866 7  21623502.195
 -13328077.202 7 -10369224.754 7  22229495.148
  -6360759.54247  -4918255.59444  23466218.4454                   23466219.6484
 -15783155.573 8 -12278008.102 7  21766432.906
 -22556155.353 8 -17539852.498 8  20457682.188
  -1188914.023 6   -910420.418 6  24420873.984
 -16448759.82748 -12769589.84445  21709863.5554                   21709862.1294
 11  8 13  2 53 30.0000000  0  8G10G25G29G26G12G05G15G02
  -3568698.53646  -2696451.55343  23853269.3754                   23853269.2544
 -16149299.234 8 -12570936.173 7  21625968.430
 -13407227.447 7 -10430900.218 7  22214433.148
  -6455728.84347  -4992257.63044  23448145.8364                   23448148.1564
 -15711527.733 7 -12222194.192 7  21780063.094
 -22523733.591 8 -17514588.775 8  20463852.031
  -1284809.217 6   -985143.841 6  24402625.195
 -16407674.14847 -12737575.02545  21717681.9534                   21717679.9774
 11  8 13  2 54  0.0000000  0  8G10G25G29G26G12G05G15G02
  -3462429.59446  -2613644.54343  23873491.4454                   23873491.3954
 -16135772.020 8 -12560395.461 7  21628542.422
 -13486251.045 7 -10492476.996 7  22199395.648
  -6550580.51147  -5066167.96144  23430096.9844                   23430098.4144
 -15639525.947 7 -12166088.896 7  21793764.367
 -22490817.945 8 -17488940.221 8  20470115.422
  -1380796.226 6  -1059938.805 5  24384358.242
 -16366491.63847 -12705484.74445  21725518.8834                   21725516.6954
 11  8 13  2 54 30.0000000  0  8G10G25G29G26G12G05G15G02
  -3356036.93646  -2530741.20943  23893736.9454                   23893737.6884
 -16121681.366 8 -12549415.700 7  21631224.180
 -13565146.042 7 -10553953.523 7  22184381.727
  -6645311.52447  -5139984.23144  23412069.7504                   23412071.9304
 -15567153.140 8 -12109694.487 7  21807536.406
 -22457409.616 8 -17462907.731 8  20476472.492
  -1476872.857 6  -1134803.575 6  24366076.383
 -16325212.71248 -12673319.32646  21733373.9774                   21733372.0004
 11  8 13  2 55  0.0000000  0  8G10G25G29G26G12G05G15G02
  -3249522.84446  -2447743.22743  23914006.5234                   23914006.8244
 -16107028.067 8 -12537997.522 7  21634012.273
 -13643910.206 7 -10615328.132 7  22169393.430
  -6739917.79447  -5213703.31544  23394066.6804                   23394068.3054
 -15494412.049 7 -12053013.104 7  21821378.352
 -22423510.837 8 -17436493.095 8  20482923.516
  -1573036.071 6  -1209735.857 6  24347777.383
 -16283837.23748 -12641078.66645  21741247.6254                   21741245.5434
 11  8 13  2 55 30.0000000  0  8G10G25G29G26G12G05G15G02
  -3142891.06046  -2364653.58243  23934296.8674                   23934298.9414
 -16091814.179 8 -12526142.525 7  21636907.391
 -13722542.373 7 -10676599.877 7  22154430.164
  -6834396.85547  -5287323.24344  23376088.3674                   23376089.9574
 -15421306.426 7 -11996047.680 7  21835289.984
 -22389124.311 8 -17409698.366 8  20489466.594
  -1669284.270 6  -1284734.317 6  24329461.133
 -16242366.35648 -12608763.67646  21749138.9774                   21749137.2034
 11  8 13  2 56  0.0000000  0  8G10G25G29G26G12G05G15G02
  -3036142.51246  -2281472.92243  23954611.8674                   23954612.4104
 -16076039.447 8 -12513850.489 7  21639909.234
 -13801039.200 7 -10737766.197 7  22139492.617
  -6928743.60847  -5360840.04844  23358134.1724                   23358135.6644
 -15347837.649 7 -11938799.241 7  21849270.586
 -22354250.579 8 -17382524.018 8  20496103.117
  -1765613.350 6  -1359795.858 6  24311130.547
 -16200799.01848 -12576373.52646  21757048.9144                   21757046.9264
 11  8 13  2 56 30.0000000  0  8G10G25G29G26G12G05G15G02
  -2929281.13046  -2198204.34943  23974946.3984                   23974947.3134
 -16059706.393 8 -12501123.431 7  21643017.211
 -13879399.998 7 -10798826.533 7  22124581.641
  -7022956.18247  -5434252.31544  23340206.2274                   23340207.5474
 -15274009.875 7 -11881271.074 7  21863319.930
 -22318892.798 8 -17354972.486 8  20502831.797
  -1862022.237 6  -1434919.506 6  24292784.008
 -16159136.08248 -12543908.89146  21764977.4224                   21764975.3244
 11  8 13  2 57  0.0000000  0  8G10G25G29G26G12G05G15G02
  -2822308.80446  -2114849.28144  23995303.1024                   23995303.2234
 -16042815.407 8 -12487961.602 7  21646231.617
 -13957621.955 7 -10859778.668 7  22109696.016
  -7117030.02347  -5507556.46844  23322304.5164                   23322306.1644
 -15199825.479 7 -11823465.034 7  21877436.328
 -22283052.318 8 -17327044.820 8  20509652.023
  -1958507.850 7  -1510102.956 6  24274425.109
 -16117377.15148 -12511369.44745  21772923.7504                   21772921.9804
 11  8 13  2 57 30.0000000  0  8G10G25G29G26G12G05G15G02
  -2715228.44346  -2031410.03543  24015678.8674                   24015680.0204
 -16025367.781 8 -12474366.034 7  21649552.039
 -14035703.392 7 -10920621.272 7  22094837.016
  -7210962.14747  -5580750.24944  23304429.6724                   23304430.6994
 -15125287.336 7 -11765383.352 7  21891620.391
 -22246731.147 8 -17298742.588 8  20516563.578
  -2055067.403 7  -1585344.169 6  24256050.102
 -16075522.56148 -12478755.47446  21780888.2344                   21780886.6844
 11  8 13  2 58  0.0000000  0  8G10G25G29G26G12G05G15G02
  -2608041.89646  -1947888.08643  24036075.6724                   24036077.3714
 -16007363.923 8 -12460337.029 7  21652977.773
 -14113641.283 7 -10981352.022 7  22080005.914
  -7304747.68947  -5653829.86444  23286582.6094                   23286584.6684
 -15050397.427 7 -11707027.569 7  21905871.664
 -22209930.763 8 -17270066.955 8  20523566.117
  -2151697.201 6  -1660640.027 6  24237660.313
 -16033571.49147 -12446066.31445  21788871.7424                   21788869.3244
 11  8 13  2 58 30.0000000  0  8G10G25G29G26G12G05G15G02
  -2500752.15446  -1864285.68943  24056492.8284                   24056493.5704
 -15988805.426 8 -12445875.860 7  21656509.133
 -14191434.377 8 -11041969.951 7  22065202.984
  -7398383.46846  -5726792.75144  23268764.2664                   23268766.0124
 -14975158.953 7 -11648400.153 7  21920188.875
 -22172653.150 8 -17241019.442 8  20530660.047
  -2248395.045 6  -1735988.891 6  24219260.305
 -15991524.08748 -12413302.07645  21796872.7034                   21796870.4104
 11  8 13  2 59  0.0000000  0  8G10G25G29G26G12G05G15G02
  -2393362.35146  -1780605.31943  24076928.2274                   24076929.5664
 -15969694.355 8 -12430984.082 7  21660145.688
 -14269080.981 7 -11102473.754 7  22050427.414
  -7491866.83347  -5799636.90344  23250974.9774                   23250976.6374
 -14899575.211 7 -11589503.731 7  21934572.211
 -22134900.996 8 -17211602.170 8  20537844.063
  -2345159.069 6  -1811389.330 6  24200846.352
 -15949381.79748 -12380463.91545  21804891.8914                   21804889.9304
 11  8 13  2 59 30.0000000  0  8G10G25G29G26G12G05G15G02
  -2285875.05146  -1696849.01243  24097382.5164                   24097383.4734
 -15950032.203 8 -12415662.925 7  21663887.422
 -14346578.971 8 -11162861.783 6  22035679.859
  -7585194.17947  -5872359.37544  23233215.4454                   23233216.9774
 -14823649.703 7 -11530340.987 7  21949020.141
 -22096676.630 8 -17181816.933 8  20545117.891
  -2441986.805 6  -1886839.486 6  24182421.063
 -15907144.62048 -12347551.81545  21812929.5784                   21812927.1334
 11  8 13  3  0  0.0000000  0  8G10G25G29G26G12G05G15G02
  -2178291.76346  -1613017.85343  24117854.6564                   24117856.2544
 -15929819.003 8 -12399912.375 7  21667734.023
 -14423925.488 7 -11223131.764 7  22020960.867
  -7678360.84547  -5944956.66744  23215486.8204                   23215487.4614
 -14747384.560 7 -11470913.603 7  21963533.086
 -22057980.686 8 -17151664.249 8  20552481.375
  -2538874.504 6  -1962336.286 6  24163983.586
 -15864811.27348 -12314564.78345  21820985.4224                   21820983.0744
 11  8 13  3  0 30.0000000  0  8G10G25G29G26G12G05G15G02
  -2070614.53946  -1529113.51143  24138345.0634                   24138345.9454
 -15909055.666 8 -12383733.131 7  21671685.500
 -14501117.956 7 -11283281.685 7  22006271.711
  -7771362.64947  -6017425.52144  23197789.2034                   23197790.6134
 -14670781.811 8 -11411223.129 7  21978109.945
 -22018814.784 8 -17121145.340 8  20559934.664
  -2635818.840 6  -2037877.246 6  24145535.391
 -15822381.14548 -12281502.35145  21829059.7344                   21829057.4494
 11  8 13  3  1  0.0000000  0  8G10G25G29G26G12G05G15G02
  -1962846.38146  -1445138.31042  24158852.0474                   24158852.8674
 -15887743.906 8 -12367126.560 7  21675740.547
 -14578154.525 7 -11343310.114 7  21991612.148
  -7864196.37047  -6089763.40044  23180123.1094                   23180123.5984
 -14593844.598 8 -11351272.047 7  21992750.813
 -21979181.449 8 -17090262.227 8  20567476.203
  -2732817.714 6  -2113460.722 6  24127077.023
 -15779855.02048 -12248365.11145  21837151.9694                   21837150.0944
 11  8 13  3  1 30.0000000  0  8G10G25G29G26G12G05G15G02
  -1854991.38946  -1361095.42342  24179376.8594                   24179377.2664
 -15865886.761 8 -12350095.008 7  21679900.227
 -14655034.802 8 -11403216.794 7  21976982.734
  -7956860.19147  -6161968.89244  23162490.2584                   23162490.5004
 -14516577.601 8 -11291064.006 7  22007454.328
 -21939084.419 8 -17059017.755 8  20575106.734
  -2829869.651 6  -2189085.530 6  24108609.297
 -15737234.35248 -12215154.18545  21845262.3134                   21845260.3054
 11  8 13  3  2  0.0000000  0  8G10G25G29G26G12G05G15G02
  -1747051.35646  -1276986.28642  24199917.0784                   24199918.0824
 -15843484.878 8 -12332638.983 7  21684162.852
 -14731756.074 8 -11462999.554 7  21962383.211
  -8049349.75247  -6234038.64644  23144890.0004                   23144890.6994
 -14438982.979 8 -11230600.655 7  22022220.023
 -21898525.118 8 -17027413.091 8  20582824.914
  -2926971.640 6  -2264749.333 6  24090130.523
 -15694518.56048 -12181869.14845  21853390.4454                   21853388.6294
 11  8 13  3  2 30.0000000  0  8G10G25G29G26G12G05G15G02
  -1639026.65746  -1192811.20942  24220474.2974                   24220475.2934
 -15820537.599 8 -12314757.975 7  21688529.344
 -14808314.149 8 -11522655.172 7  21947814.898
  -8141659.40147  -6305968.25444  23127323.8524                   23127324.3054
 -14361061.613 8 -11169882.692 7  22037048.055
 -21857503.432 8 -16995448.138 8  20590631.281
  -3024118.719 6  -2340448.299 6  24071643.969
 -15651705.48948 -12148508.31945  21861537.5004                   21861535.8364
 11  8 13  3  3  0.0000000  0  8G10G25G29G26G12G05G15G02
  -1530921.79246  -1108573.64343  24241044.7274                   24241046.1174
 -15797048.247 8 -12296454.568 7  21692999.398
 -14884708.665 8 -11582183.334 7  21933276.984
  -8233787.22747  -6377756.22944  23109792.1644                   23109792.6994
 -14282818.085 8 -11108913.693 7  22051936.984
 -21816023.326 8 -16963125.973 8  20598524.367
  -3121309.812 6  -2416181.493 6  24053148.320
 -15608797.13848 -12115073.22245  21869703.0944                   21869700.7154
 11  8 13  3  3 30.0000000  0  8G10G25G29G26G12G05G15G02
  -1422738.75446  -1024275.15043  24261632.1954                   24261632.2894
 -15773018.250 8 -12277729.893 7  21697572.281
 -14960937.374 8 -11641582.283 7  21918771.063
  -8325729.57647  -6449399.62544  23092296.4614                   23092297.6054
 -14204255.753 8 -11047696.288 7  22066887.250
 -21774086.655 8 -16930448.045 8  20606504.516
  -3218542.215 6  -2491946.934 6  24034646.531
 -15565793.26648 -12081563.71045  21877886.7504                   21877884.2584
 11  8 13  3  4  0.0000000  0  8G10G25G29G26G12G05G15G02
  -1314480.24346   -939917.84243  24282232.4614                   24282233.9884
 -15748448.968 8 -12258584.971 7  21702247.406
 -15036998.244 8 -11700850.449 7  21904297.289
  -8417482.74047  -6520895.67744  23074836.4224                   23074836.7664
 -14125377.415 8 -10986232.634 7  22081897.391
 -21731695.454 8 -16897415.944 8  20614571.352
  -3315813.315 6  -2567742.552 6  24016136.609
 -15522693.88448 -12047979.76045  21886087.8284                   21886086.0124
 11  8 13  3  4 30.0000000  0  8G10G25G29G26G12G05G15G02
  -1206147.63346   -855502.79343  24302847.8364                   24302848.7074
 -15723340.917 8 -12239020.249 7  21707025.133
 -15112887.913 8 -11759985.185 7  21889855.727
  -8509041.94547  -6592240.51444  23057413.1024                   23057414.0984
 -14046184.898 8 -10924524.176 7  22096966.945
 -21688851.005 8 -16864030.651 8  20622724.555
  -3413118.986 6  -2643565.009 6  23997619.852
 -15479497.84348 -12014320.51645  21894308.1564                   21894306.2034
 11  8 13  3  5  0.0000000  0  8G10G25G29G26G12G05G15G02
  -1097744.67346   -771032.95543  24323475.7114                   24323476.8954
 -15697696.852 8 -12219037.844 7  21711904.828
 -15188605.727 8 -11818986.009 7  21875447.023
  -8600404.74847  -6663432.34044  23040027.2584                   23040028.3834
 -13966682.474 8 -10862574.228 7  22112095.641
 -21645556.500 8 -16830294.676 8  20630962.969
  -3510458.010 6  -2719413.549 6  23979096.984
 -15436206.47448 -11980586.97345  21902546.5394                   21902544.2774
 11  8 13  3  5 30.0000000  0  8G10G25G29G26G12G05G15G02
   -989273.85046   -686510.19743  24344117.4144                   24344118.2304
 -15671518.300 8 -12198638.964 7  21716886.930
 -15264149.403 8 -11877851.173 7  21861071.445
  -8691567.55847  -6734468.27844  23022679.6644                   23022680.1954
 -13886872.435 8 -10800384.584 7  22127282.750
 -21601814.196 8 -16796209.757 8  20639287.117
  -3607827.187 6  -2795285.585 6  23960567.953
 -15392819.65648 -11946779.06045  21910802.0944                   21910800.6844
 11  8 13  3  6  0.0000000  0  9G10G25G29G26G12G05G15G21G02
   -880736.61546   -601935.75943  24364771.0634                   24364771.5824
 -15644805.885 8 -12177824.090 7  21721970.344
 -15339515.723 8 -11936578.112 7  21846729.656
  -8782525.73247  -6805344.72144  23005370.5634                   23005371.9924
 -13806757.833 7 -10737957.613 7  22142528.227
 -21557625.231 8 -16761776.795 8  20647696.141
  -3705222.936 6  -2871178.298 6  23942034.234
    -70519.551 5                  25173409.852
 -15349336.46948 -11912896.05845  21919077.1884                   21919074.7074
 11  8 13  3  6 30.0000000  0  9G10G25G29G26G12G05G15G21G02
   -772138.83146   -517314.08543  24385436.6484                   24385437.0204
 -15617564.642 8 -12156597.131 7  21727153.828
 -15414706.112 8 -11995167.984 7  21832421.508
  -8873279.16647  -6876061.62544  22988101.2194                   22988101.3444
 -13726344.424 7 -10675297.806 7  22157830.406
 -21512994.922 8 -16726999.916 8  20656188.750
  -3802645.900 6  -2947092.222 6  23923495.109
   -128930.687 5                  25162294.688
 -15305760.33648 -11878940.63145  21927369.1334                   21927367.3094
 11  8 13  3  7  0.0000000  0  9G10G25G29G26G12G05G15G21G02
   -663477.67246   -432643.00943  24406114.0944                   24406114.4614
 -15589791.230 8 -12134955.502 7  21732439.250
 -15489713.450 7 -12053615.189 7  21818147.898
  -8963818.86347  -6946611.98244  22970871.1724                   22970872.8794
 -13645630.368 7 -10612403.716 7  22173189.789
 -21467920.647 8 -16691877.097 8  20664766.352
  -3900088.402 6  -3023021.389 6  23904952.172
   -187328.629 5                  25151182.023
 -15262086.14648 -11844908.80545  21935680.3364                   21935678.1374
 11  8 13  3  7 30.0000000  0  9G10G25G29G26G12G05G15G21G02
   -554755.99146   -347924.80343  24426803.6724                   24426803.9694
 -15561487.370 8 -12112900.546 7  21737824.852
 -15564535.401 8 -12111917.962 7  21803910.070
  -9054141.58347  -7016993.28444  22953683.5634                   22953684.7464
 -13564618.647 8 -10549277.695 7  22188605.492
 -21422404.816 8 -16656410.205 8  20673427.406
  -3997547.744 6  -3098963.608 6  23886405.719
   -245713.847 5                  25140071.766
 -15218313.93148 -11810800.59345  21944009.7664                   21944008.0784
 11  8 13  3  8  0.0000000  0  9G10G25G29G26G12G05G15G21G02
   -445978.18146   -263162.94142  24447503.3284                   24447503.2194
 -15532656.723 8 -12090435.101 7  21743311.305
 -15639171.994 7 -12170076.304 7  21789706.570
  -9144245.61047  -7087204.13744  22936537.9774                   22936538.8984
 -13483314.419 7 -10485923.733 7  22204077.625
 -21376451.545 8 -16620602.457 8  20682172.023
  -4095022.833 6  -3174918.194 6  23867856.750
   -304089.002 5                  25128962.430
 -15174445.63348 -11776617.51145  21952357.7974                   21952355.7034
 11  8 13  3  8 30.0000000  0  9G10G25G29G26G12G05G15G21G02
   -337146.61446   -178359.04342  24468212.9614                   24468213.3914
 -15503301.285 8 -12067560.717 7  21748897.508
 -15713621.223 8 -12228088.650 7  21775540.055
  -9234127.56847  -7157241.92644  22919433.6884                   22919434.6564
 -13401721.086 8 -10422344.492 7  22219604.188
 -21330063.687 8 -16584456.057 8  20690999.344
  -4192511.451 6  -3250883.316 6  23849305.773
   -362454.971 6                  25117856.047
 -15130481.63448 -11742359.85745  21960724.2034                   21960721.6564
 11  8 13  3  9  0.0000000  0  9G10G25G29G26G12G05G15G21G02
   -228263.13846    -93514.76242  24488933.4774                   24488933.1094
 -15473422.447 8 -12044278.501 7  21754583.031
 -15787880.501 8 -12285952.988 7  21761408.461
  -9323783.49747  -7227103.66044  22902372.8134                   22902373.0594
 -13319840.950 7 -10358541.775 7  22235184.742
 -21283242.439 7 -16547971.958 8  20699909.102
  -4290010.291 6  -3326856.344 6  23830751.648
   -420812.061 6                  25106750.820
 -15086421.45547 -11708027.25645  21969108.2424                   21969105.7304
 11  8 13  3  9 30.0000000  0  9G10G25G29G26G12G05G15G21G02
   -119329.18346     -8631.15042  24509661.7504                   24509662.1994
 -15443020.658 8 -12020588.778 7  21760368.680
 -15861946.442 8 -12343666.647 7  21747313.984
  -9413208.41447  -7296785.35244  22885355.5474                   22885356.5944
 -13237675.966 8 -10294517.105 7  22250821.266
 -21235988.689 8 -16511150.848 8  20708901.344
  -4387515.151 6  -3402834.042 6  23812198.055
   -479159.313 5                  25095646.977
 -15042263.62448 -11673618.56045  21977510.9614                   21977508.9654
 11  8 13  3 10  0.0000000  0  9G10G25G29G26G12G05G15G21G02
    -10348.58746     76288.90942  24530400.7584                   24530401.4304
 -15412099.359 8 -11996494.256 7  21766252.563
 -15935818.715 7 -12401229.409 7  21733256.555
  -9502400.33447  -7366285.48544  22868382.7584                   22868383.6844
 -13155230.853 8 -10230274.150 7  22266509.797
 -21188306.715 8 -16473996.051 7  20717974.813
  -4485024.981 6  -3478815.677 6  23793641.781
   -537498.774 5                  25084544.914
 -14998009.85347 -11639135.10445  21985932.1564                   21985930.6684
 11  8 13  3 10 30.0000000  0  9G10G25G29G26G12G05G15G21G02
     98677.27546    161244.16742  24551147.5234                   24551148.7384
 -15380659.230 8 -11971995.450 7  21772235.672
 -16009493.742 7 -12458638.471 7  21719236.555
  -9591354.34747  -7435600.24244  22851454.9614                   22851455.5824
 -13072507.536 7 -10165814.389 7  22282251.164
 -21140197.785 8 -16436508.566 8  20727129.828
  -4582535.720 6  -3554797.967 6  23775086.461
   -595830.56246    550193.30543  25073445.6954                   25073447.1334
 -14953658.95347 -11604575.96645  21994371.7424                   21994370.0204
 11  8 13  3 11  0.0000000  0  9G10G25G29G26G12G05G15G21G02
    207743.68646    246231.02142  24571901.5944                   24571903.0434
 -15348704.466 8 -11947095.627 7  21778316.328
 -16082971.857 7 -12515894.103 7  21705254.469
  -9680069.22747  -7504728.66244  22834573.2664                   22834574.0354
 -12989511.528 8 -10101142.174 7  22298044.914
 -21091666.394 8 -16398691.896 8  20736364.719
  -4680046.847 7  -3630780.579 6  23756530.844
   -654157.30746    504744.04442  25062346.1564                   25062348.5704
 -14909212.98247 -11569942.75245  22002829.5234                   22002827.8164
 11  8 13  3 11 30.0000000  0  9G10G25G29G26G12G05G15G21G02
    316853.96746    331252.05642  24592665.1174                   24592666.3244
 -15316231.383 8 -11921791.920 7  21784495.414
 -16156245.361 7 -12572990.296 7  21691310.680
  -9768535.96646  -7573663.73444  22817738.6094                   22817739.4024
 -12906240.470 7 -10036255.605 7  22313890.938
 -21042709.317 8 -16360543.522 8  20745681.039
  -4777550.086 7  -3706757.092 6  23737976.688
   -712473.77846    459302.78042  25051248.1884                   25051251.3164
 -14864666.32047 -11535231.06845  22011306.4064                   22011304.6804
 11  8 13  3 12  0.0000000  0  8G25G29G26G12G05G15G21G02
 -15283247.102 8 -11896089.877 7  21790771.977
 -16229317.046 8 -12629929.213 7  21677405.195
  -9856756.02347  -7642406.60044  22800950.9304                   22800951.7384
 -12822702.306 7  -9971160.921 7  22329787.117
 -20993333.927 8 -16322069.183 8  20755076.438
  -4875047.953 6  -3782729.388 6  23719423.266
   -770786.07046    413864.85142  25040152.3914                   25040153.8634
 -14820024.29248 -11500445.06845  22019801.9534                   22019799.6374
 11  8 13  3 12 30.0000000  0  8G25G29G26G12G05G15G21G02
 -15249752.147 8 -11869989.903 7  21797145.914
 -16302183.542 7 -12686708.271 7  21663539.516
  -9944724.64347  -7710953.53444  22784211.5634                   22784211.7974
 -12738898.703 7  -9905859.405 7  22345735.430
 -20943541.242 8 -16283269.702 7  20764552.031
  -4972535.987 7  -3858694.045 6  23700871.609
   -829093.10146    368430.91842  25029056.5004                   25029058.4574
 -14775285.68947 -11465583.83145  22028315.1724                   22028313.3554
 11  8 13  3 13  0.0000000  0  8G25G29G26G12G05G15G21G02
 -15215747.950 8 -11843493.125 7  21803616.938
 -16374842.404 7 -12743325.523 7  21649713.078
 -10032437.37947  -7779301.08144  22767519.6024                   22767520.5434
 -12654832.485 7  -9840353.242 7  22361732.383
 -20893333.266 8 -16244146.592 8  20774106.422
  -5070010.935 6  -3934648.521 6  23682322.922
   -887395.21646    323000.87343  25017961.2344                   25017963.1914
 -14730449.97647 -11430646.91145  22036847.0084                   22036845.3364
 11  8 13  3 13 30.0000000  0  8G25G29G26G12G05G15G21G02
 -15181236.280 8 -11816600.912 7  21810184.523
 -16447290.887 7 -12799778.818 7  21635926.813
 -10119890.61647  -7847446.45444  22750877.8134                   22750878.8134
 -12570506.669 7  -9774644.822 7  22377778.828
 -20842711.953 8 -16204701.419 8  20783739.344
  -5167469.971 7  -4010590.573 6  23663776.680
   -945692.96246    277574.17242  25006868.6884                   25006869.9774
 -14685516.59647 -11395633.87645  22045397.7894                   22045395.8364
 11  8 13  3 14  0.0000000  0  8G25G29G26G12G05G15G21G02
 -15146218.038 8 -11789313.975 7  21816847.969
 -16519525.859 7 -12856065.771 7  21622180.789
 -10207079.60047  -7915385.90844  22734286.5944                   22734286.9614
 -12485923.102 7  -9708735.541 7  22393874.258
 -20791678.575 8 -16164935.147 8  20793450.469
  -5264909.003 6  -4086517.057 6  23645234.898
  -1003985.63346    232151.47042  24995774.6884                   24995777.2734
 -14640484.26947 -11360543.74645  22053966.7664                   22053964.8134
 11  8 13  3 14 30.0000000  0  8G25G29G26G12G05G15G21G02
 -15110697.317 8 -11761635.476 7  21823607.070
 -16591547.326 8 -12912186.352 7  21608475.664
 -10294002.56147  -7983118.06944  22717745.5394                   22717746.2384
 -12401087.000 7  -9642629.491 7  22410018.039
 -20740237.411 8 -16124851.113 7  20803239.758
  -5362327.173 6  -4162427.296 6  23626696.703
  -1062275.69546    186730.79443  24984683.0554                   24984684.5824
 -14595355.27747 -11325378.29045  22062554.6564                   22062552.7074
 11  8 13  3 15  0.0000000  0  8G25G29G26G12G05G15G21G02
 -15074674.812 8 -11733565.994 7  21830462.148
 -16663351.466 8 -12968137.592 7  21594811.828
 -10380654.86747  -8050639.31744  22701255.7344                   22701257.3134
 -12316000.010 7  -9576327.928 7  22426209.719
 -20688389.782 8 -16084450.366 7  20813105.625
  -5459720.421 6  -4238318.101 6  23608163.063
  -1120562.83346    141312.41842  24973591.4924                   24973593.1134
 -14550128.31847 -11290136.50645  22071161.1414                   22071159.3244
 11  8 13  3 15 30.0000000  0  8G25G29G26G12G05G15G21G02
 -15038153.048 8 -11705107.484 7  21837411.852
 -16734936.971 8 -13023918.475 7  21581189.609
 -10467033.13447  -8117947.06444  22684819.2814                   22684819.9144
 -12230665.826 7  -9509833.770 7  22442448.234
 -20636138.275 8 -16043734.903 7  20823048.648
  -5557086.214 7  -4314187.517 6  23589635.078
  -1178847.75146     95895.74042  24962499.9774                   24962501.2814
 -14504803.50447 -11254818.45345  22079786.1334                   22079783.9494
 11  8 13  3 16  0.0000000  0  8G25G29G26G12G05G15G21G02
 -15001134.207 8 -11676261.626 7  21844456.742
 -16806301.104 8 -13079526.868 7  21567609.195
 -10553134.02347  -8185038.64944  22668434.3914                   22668435.0084
 -12145087.884 7  -9443149.661 7  22458732.992
 -20583485.686 8 -16002706.914 7  20833068.523
  -5654421.906 7  -4390033.502 6  23571112.930
  -1237131.23546     50480.15242  24951408.7584                   24951410.4844
 -14459380.95047 -11219424.26345  22088429.4144                   22088427.8244
 11  8 13  3 16 30.0000000  0  8G25G29G26G12G05G15G21G02
 -14963619.679 8 -11647029.528 7  21851595.359
 -16877441.385 8 -13134960.818 7  21554071.602
 -10638953.29347  -8251910.77644  22652103.6254                   22652103.6374
 -12059268.476 7  -9376277.396 7  22475064.555
 -20530433.555 8 -15961367.577 8  20843164.023
  -5751723.768 6  -4465853.121 6  23552596.742
  -1295413.50046      5065.54442  24940317.8204                   24940318.7344
 -14413860.00047 -11183953.37745  22097091.9774                   22097089.9304
 11  8 13  3 17  0.0000000  0  8G25G29G26G12G05G15G21G02
 -14925611.048 8 -11617412.407 7  21858828.242
 -16948355.192 8 -13190218.283 7  21540577.063
 -10724486.60747  -8318560.09544  22635826.7274                   22635828.5124
 -11973210.274 7  -9309219.049 7  22491440.688
 -20476984.087 8 -15919718.633 7  20853335.023
  -5848988.779 7  -4541643.985 6  23534087.688
  -1353694.40546    -40348.06342  24929227.0394                   24929228.4924
 -14368239.86747 -11148405.22645  22105773.1724                   22105771.1484
 11  8 13  3 17 30.0000000  0  8G25G29G26G12G05G15G21G02
 -14887111.022 8 -11587412.402 7  21866155.031
 -17019040.681 8 -13245297.848 7  21527126.586
 -10809731.19247  -8384984.44544  22619605.5164                   22619605.9694
 -11886916.826 7  -9241977.385 7  22507861.297
 -20423139.588 8 -15877761.872 7  20863581.227
  -5946214.177 6  -4617404.029 6  23515586.727
  -1411975.27646    -85761.65243  24918136.5864                   24918138.0044
 -14322520.94047 -11112780.07045  22114473.4694                   22114470.8874
 11  8 13  3 18  0.0000000  0  8G25G29G26G12G05G15G21G02
 -14848121.136 8 -11557030.655 7  21873574.234
 -17089495.179 8 -13300197.443 7  21513719.406
 -10894682.43047  -8451180.19044  22603439.9534                   22603440.4304
 -11800390.764 7  -9174554.500 7  22524326.813
 -20368902.078 8 -15835498.868 7  20873902.359
  -6043396.974 6  -4693130.863 6  23497093.297
  -1470255.71646   -131174.84842  24907046.1804                   24907047.4454
 -14276702.83648 -11077077.63645  22123192.0634                   22123190.0234
 11  8 13  3 18 30.0000000  0  8G25G29G26G12G05G15G21G02
 -14808644.545 8 -11526269.698 7  21881086.328
 -17159717.313 8 -13354915.970 7  21500356.039
 -10979337.97047  -8517145.50444  22587330.5944                   22587331.0864
 -11713636.190 7  -9106953.525 7  22540835.852
 -20314275.168 8 -15792932.427 7  20884297.203
  -6140534.779 7  -4768822.629 6  23478608.719
  -1528537.47346   -176589.13442  24895955.3364                   24895956.6024
 -14230786.29648 -11041298.51745  22131929.5084                   22131927.6484
 11  8 13  3 19  0.0000000  0  8G25G29G26G12G05G15G21G02
 -14768682.276 8 -11495130.249 7  21888690.930
 -17229703.965 8 -13409451.009 7  21487038.117
 -11063693.03047  -8582876.70245  22571277.9694                   22571279.3834
 -11626654.999 7  -9039175.965 7  22557388.250
 -20259259.972 8 -15750063.434 7  20894766.656
  -6237623.619 6  -4844476.247 6  23460133.633
  -1586819.98146   -222003.92643  24884865.3444                   24884865.2664
 -14184769.97348 -11005441.64245  22140686.0474                   22140684.2234
 11  8 13  3 19 30.0000000  0  8G25G29G26G12G05G15G21G02
 -14728237.765 8 -11463615.066 7  21896387.242
 -17299453.917 8 -13463801.589 7  21473764.758
 -11147745.24147  -8648371.89044  22555283.4614                   22555284.3484
 -11539451.726 7  -8971225.351 7  22573982.375
 -20203860.377 8 -15706894.906 7  20905308.641
  -6334661.777 7  -4920090.386 6  23441667.359
  -1645104.98146   -267420.71843  24873772.6024                   24873774.0394
 -14138654.72947 -10969507.68545  22149461.8134                   22149459.4804
 11  8 13  3 20  0.0000000  0  8G25G29G26G12G05G15G21G02
 -14687311.576 8 -11431724.536 7  21904174.914
 -17368963.088 8 -13517964.562 7  21460537.875
 -11231489.29847  -8713626.97744  22539347.5634                   22539348.5744
 -11452027.910 7  -8903102.881 7  22590618.055
 -20148077.020 8 -15663427.342 7  20915924.203
  -6431644.964 7  -4995661.672 6  23423212.492
  -1703391.47046   -312838.65043  24862681.4924                   24862682.2154
 -14092439.60347 -10933495.88345  22158256.5234                   22158254.3204
 11  8 13  3 20 30.0000000  0  8G25G29G26G12G05G15G21G02
 -14645907.204 8 -11399461.390 7  21912054.422
 -17438230.781 8 -13571939.363 7  21447356.914
 -11314922.99147  -8778640.19944  22523470.9064                   22523471.6644
 -11364387.858 7  -8834811.950 7  22607295.461
 -20091913.714 8 -15619663.721 7  20926611.258
  -6528571.269 7  -5071188.650 6  23404768.219
  -1761681.13146   -358259.08443  24851589.7974                   24851590.5864
 -14046125.00548 -10897406.57245  22167070.1174                   22167067.3634
 11  8 13  3 21  0.0000000  0  8G25G29G26G12G05G15G21G02
 -14604026.370 8 -11366826.979 7  21920024.008
 -17507254.114 8 -13625723.757 7  21434222.055
 -11398042.11147  -8843408.32544  22507653.5704                   22507654.3204
 -11276534.148 7  -8766354.510 7  22624013.656
 -20035372.090 8 -15575605.313 7  20937370.734
  -6625437.324 7  -5146668.659 6  23386334.789
  -1819974.25146   -403682.21843  24840496.7114                   24840498.0084
 -13999710.42648 -10861239.36245  22175902.0164                   22175900.0394
 11  8 13  3 21 30.0000000  0  8G25G29G26G12G05G15G21G02
 -14561670.957 8 -11333822.773 7  21928083.648
 -17576030.629 8 -13679315.809 7  21421134.039
 -11480842.72647  -8907928.25845  22491897.4924                   22491898.7424
 -11188469.404 7  -8697732.637 7  22640771.539
 -19978454.217 8 -15531253.704 7  20948201.891
  -6722239.699 7  -5222099.083 6  23367913.898
  -1878270.83146   -449108.00443  24829402.7664                   24829404.0664
 -13953195.09848 -10824993.63845  22184753.6254                   22184751.3674
 11  8 13  3 22  0.0000000  0  8G25G29G26G12G05G15G21G02
 -14518842.817 8 -11300450.190 7  21936233.641
 -17644557.563 8 -13732713.392 7  21408093.539
 -11563320.65047  -8972196.76945  22476202.2424                   22476203.0474
 -11100196.360 7  -8628948.453 7  22657569.781
 -19921162.242 8 -15486610.607 7  20959104.359
  -6818975.117 7  -5297477.311 6  23349505.391
  -1936570.99946   -494536.64643  24818308.1414                   24818309.4574
 -13906578.73647 -10788669.20245  22193623.9774                   22193622.2854
 11  8 13  3 22 30.0000000  0  8G25G29G26G12G05G15G21G02
 -14475544.946 8 -11266711.582 7  21944472.883
 -17712833.127 8 -13785915.101 7  21395101.438
 -11645473.03047  -9036211.57645  22460568.9774                   22460569.6914
 -11011719.059 7  -8560005.102 7  22674406.359
 -19863499.396 8 -15441678.517 7  20970077.258
  -6915641.183 7  -5372801.509 6  23331110.445
  -1994876.02946   -539969.01843  24807213.5944                   24807214.5314
 -13859861.86647 -10752266.42845  22202514.3674                   22202512.2544
 11  8 13  3 23  0.0000000  0  8G25G29G26G12G05G15G21G02
 -14431779.103 8 -11232608.329 7  21952801.156
 -17780854.573 8 -13838918.809 7  21382157.430
 -11727295.68847  -9099969.47144  22444997.9384                   22444999.4574
 -10923039.939 7  -8490904.497 7  22691280.945
 -19805467.377 8 -15396458.760 7  20981120.258
  -7012234.346 7  -5448068.885 6  23312729.367
  -2053185.85246   -585405.11843  24796117.6334                   24796118.1374
 -13813043.75348 -10715784.76845  22211423.5704                   22211421.1644
 11  8 13  3 23 30.0000000  0  8G25G29G26G12G05G15G21G02
 -14387548.034 8 -11198142.568 7  21961218.578
 -17848620.238 8 -13891723.195 7  21369261.938
 -11808785.60947  -9163468.07545  22429492.1094                   22429492.6724
 -10834162.585 7  -8421649.428 7  22708193.617
 -19747069.032 8 -15350953.552 7  20992233.313
  -7108752.278 7  -5523277.645 6  23294362.570
  -2111501.41646   -630845.67842  24785019.9774                   24785021.2854
 -13766124.65647 -10679224.44345  22220352.0864                   22220350.5704
 11  8 13  3 24  0.0000000  0  8G25G29G26G12G05G15G21G02
 -14342853.919 8 -11163315.988 7  21969723.281
 -17916127.620 8 -13944326.318 7  21356415.539
 -11889938.75647  -9226704.27745  22414048.1094                   22414049.5394
 -10745089.866 7  -8352242.109 7  22725144.242
 -19688306.702 8 -15305164.715 7  21003415.047
  -7205191.855 7  -5598425.337 6  23276011.258
  -2169823.14346   -676291.08043  24773921.6644                   24773923.2894
 -13719104.21747 -10642585.16145  22229299.8984                   22229297.6134
 11  8 13  3 24 30.0000000  0  8G25G29G26G12G05G15G21G02
 -14297698.903 8 -11128130.275 7  21978315.734
 -17983374.226 8 -13996726.233 7  21343618.805
 -11970751.61947  -9289675.29545  22398670.6484                   22398671.3524
 -10655824.782 7  -8282684.900 7  22742130.898
 -19629182.933 8 -15259094.240 7  21014665.883
  -7301549.776 7  -5673509.434 6  23257674.609
  -2228151.57046   -721741.66342  24762821.6254                   24762823.5354
 -13671982.05348 -10605866.62045  22238266.9224                   22238264.9344
 11  8 13  3 25  0.0000000  0  8G25G29G26G12G05G15G21G02
 -14252086.086 8 -11092587.828 7  21986995.836
 -18050358.469 8 -14048921.709 7  21330872.492
 -12051221.21747  -9352378.87745  22383357.2734                   22383358.6804
 -10566371.095 7  -8212980.757 6  22759153.352
 -19569700.308 8 -15212744.134 7  21025985.391
  -7397823.691 7  -5748528.088 6  23239354.125
  -2286487.66246   -767198.26743  24751720.8594                   24751721.7624
 -13624758.46148 -10569069.03745  22247253.1334                   22247250.7074
 11  8 13  3 25 30.0000000  0  8G25G29G26G12G05G15G21G02
 -14206016.062 8 -11056689.108 7  21995762.352
 -18117076.022 8 -14100909.395 7  21318176.477
 -12131342.10547  -9414810.70745  22368111.0944                   22368111.6684
 -10476730.308 7  -8143130.788 7  22776211.758
 -19509859.748 8 -15166115.124 7  21037372.469
  -7494008.906 7  -5823477.561 6  23221051.211
  -2344830.34046   -812659.97942  24740619.3284                   24740619.3874
 -13577431.51547 -10532190.91745  22256258.9614                   22256257.0824
 11  8 13  3 26  0.0000000  0  8G25G29G26G12G05G15G21G02
 -14159492.602 8 -11020437.096 7  22004615.945
 -18183526.080 8 -14152688.642 7  21305531.266
 -12211112.23647  -9476969.23145  22352931.2814                   22352932.2934
 -10386907.097 7  -8073138.671 6  22793304.484
 -19449665.490 8 -15119210.485 7  21048827.078
  -7590104.086 7  -5898356.928 6  23202764.289
  -2403181.46946   -858128.31343  24729515.1024                   24729514.9734
 -13530002.45148 -10495233.21845  22265284.2344                   22265283.0824
 11  8 13  3 26 30.0000000  0  8G25G29G26G12G05G15G21G02
 -14112518.382 8 -10983833.812 7  22013554.414
 -18249706.839 8 -14204258.045 7  21292937.555
 -12290528.14947  -9538851.74745  22337818.9454                   22337820.3634
 -10296904.263 7  -8003006.560 6  22810431.438
 -19389119.791 8 -15072032.010 7  21060348.211
  -7686105.730 7  -5973163.379 6  23184496.219
  -2461541.77046   -903603.78343  24718409.5784                   24718408.7424
 -13482471.36748 -10458196.02345  22274329.2664                   22274327.7624
 11  8 13  3 27  0.0000000  0  8G25G29G26G12G05G15G21G02
 -14065094.160 8 -10946879.865 7  22022579.477
 -18315614.196 8 -14255614.423 7  21280395.680
 -12369584.55747  -9600454.12745  22322775.2974                   22322775.9104
 -10206723.483 7  -7932735.831 6  22827592.227
 -19328223.434 8 -15024580.302 7  21071936.773
  -7782009.442 7  -6047893.512 6  23166246.484
  -2519909.83446   -949085.31343  24707302.6174                   24707302.3444
 -13434836.32248 -10421077.81345  22283393.6174                   22283392.0434
 11  8 13  3 27 30.0000000  0  8G25G29G26G12G05G15G21G02
 -14017223.618 8 -10909578.159 7  22031688.523
 -18381247.196 8 -14306756.993 7  21267906.367
 -12448279.18647  -9661774.59345  22307800.4144                   22307800.5704
 -10116369.486 7  -7862330.128 6  22844786.242
 -19266980.275 8 -14976858.348 7  21083590.805
  -7877813.817 7  -6122546.229 6  23148015.656
  -2578287.66346   -994574.46643  24696193.4694                   24696192.9614
 -13387098.37047 -10383879.42045  22292478.3054                   22292476.3054
 11  8 13  3 28  0.0000000  0  8G25G29G26G12G05G15G21G02
 -13968910.584 8 -10871931.648 7  22040882.641
 -18446604.809 8 -14357684.977 7  21255468.969
 -12526609.86147  -9722811.45645  22292894.1174                   22292895.0004
 -10025846.226 7  -7791792.523 7  22862012.039
 -19205393.941 8 -14928868.992 7  21095310.438
  -7973516.805 7  -6197119.981 6  23129803.344
  -2636676.70546  -1040072.31243  24685082.0864                   24685081.4884
 -13339258.44948 -10346601.56345  22301582.3364                   22301579.9414
 11  8 13  3 28 30.0000000  0  8G25G29G26G12G05G15G21G02
 -13920153.982 8 -10833939.490 7  22050160.516
 -18511681.379 8 -14408393.984 7  21243085.531
 -12604569.49847  -9783559.20945  22278058.8444                   22278059.5784
  -9935153.673 7  -7721123.013 6  22879270.375
 -19143463.377 8 -14880611.405 7  21107095.438
  -8069112.033 7  -6271609.746 6  23111612.250
  -2695074.28546  -1085576.81543  24673969.7814                   24673969.0664
 -13291312.81848 -10309241.33145  22310705.7274                   22310703.8954
 11  8 13  3 29  0.0000000  0  8G25G29G26G12G05G15G21G02
 -13870959.138 8 -10795605.868 7  22059521.711
 -18576477.079 8 -14458884.123 7  21230755.266
 -12682157.24547  -9844017.17245  22263294.6724                   22263294.6024
  -9844297.600 7  -7650326.073 7  22896559.148
 -19081194.030 7 -14832089.844 7  21118944.984
  -8164599.220 7  -6346015.265 6  23093442.195
  -2753484.05346  -1131090.81743  24662854.7194                   24662853.7584
 -13243264.37147 -10271801.00145  22319849.1644                   22319846.8014
 11  8 13  3 29 30.0000000  0  8G25G29G26G12G05G15G21G02
 -13821326.673 8 -10756931.226 7  22068966.477
 -18640987.646 8 -14509152.085 7  21218479.461
 -12759367.72647  -9904181.14045  22248601.7664                   22248602.7384
  -9753279.014 7  -7579402.512 7  22913880.008
 -19018586.892 8 -14783305.060 7  21130858.641
  -8259973.365 7  -6420332.770 6  23075292.750
  -2811904.33546  -1176613.07243  24651737.1484                   24651737.2154
 -13195111.06448 -10234278.96645  22329012.3364                   22329010.2464
 11  8 13  3 30  0.0000000  0  8G25G29G26G12G05G15G21G02
 -13771260.897 8 -10717918.931 7  22078493.836
 -18705212.790 8 -14559197.630 7  21206257.305
 -12836199.35147  -9964049.92745  22233980.9384                   22233981.6024
  -9662103.291 7  -7508356.490 7  22931229.992
 -18955645.483 8 -14734259.811 7  21142835.898
  -8355233.258 7  -6494561.228 6  23057165.383
  -2870337.34146  -1222145.18143  24640617.1644                   24640617.3984
 -13146853.94548 -10196676.01945  22338195.7894                   22338193.6764
 11  8 13  3 30 30.0000000  0  8G25G29G26G12G05G15G21G02
 -13720761.486 7 -10678568.752 7  22088103.508
 -18769147.557 8 -14609016.908 7  21194090.875
 -12912645.44047 -10023618.28645  22219434.0084                   22219434.6414
  -9570770.357 7  -7437187.987 7  22948609.742
 -18892369.503 8 -14684953.857 7  21154876.570
  -8450373.017 7  -6568696.081 6  23039060.953
  -2928780.78046  -1267685.44243  24629495.8834                   24629495.9144
 -13098490.04847 -10158989.88245  22347399.0634                   22347396.9534
 11  8 13  3 31  0.0000000  0  8G25G29G26G12G05G15G21G02
 -13669834.135 8 -10638885.098 7  22097794.672
 -18832792.382 8 -14658610.263 7  21181980.133
 -12988705.74347 -10082886.05745  22204959.9844                   22204960.6764
  -9479286.190 7  -7365901.615 6  22966018.320
 -18828764.733 8 -14635391.694 7  21166980.766
  -8545392.788 7  -6642737.397 6  23020978.586
  -2987238.10946  -1313236.53843  24618372.9384                   24618371.9534
 -13050022.30347 -10121222.81445  22356621.8594                   22356619.7424
 11  8 13  3 31 30.0000000  0  8G25G29G26G12G05G15G21G02
 -13618479.733 8 -10598868.685 7  22107566.719
 -18896143.354 8 -14707974.636 7  21169925.000
 -13064375.07347 -10141849.15645  22190560.7584                   22190561.5554
  -9387652.671 7  -7294498.900 6  22983455.961
 -18764831.905 8 -14585573.887 7  21179146.633
  -8640287.716 7  -6716681.489 6  23002920.742
  -3045708.02646  -1358797.40243  24607246.0164                   24607246.2234
 -13001448.66847 -10083373.25045  22365864.8594                   22365863.2234
 11  8 13  3 32  0.0000000  0  8G25G29G26G12G05G15G21G02
 -13566701.656 8 -10558522.136 7  22117419.859
 -18959199.012 8 -14757108.898 7  21157925.695
 -13139650.54447 -10200505.36045  22176236.3914                   22176237.0274
  -9295873.663 7  -7222982.783 6  23000920.570
 -18700574.521 8 -14535503.196 7  21191374.047
  -8735055.657 7  -6790526.587 6  22984887.164
  -3104191.95846  -1404369.18643  24596115.9774                   24596116.9184
 -12952769.89147 -10045441.74645  22375128.4064                   22375126.7854
 11  8 13  3 32 30.0000000  0  9G18G25G29G26G12G05G15G21G02
   -282787.008 5                  24688891.984
 -13514501.227 8 -10517846.480 7  22127353.805
 -19021955.871 8 -14806010.338 7  21145983.227
 -13214527.71147 -10258851.19745  22161987.3284                   22161988.1684
  -9203950.660 7  -7151354.478 6  23018412.492
 -18635993.616 8 -14485180.407 7  21203663.719
  -8829692.141 7  -6864269.285 6  22966878.453
  -3162689.00646  -1449951.19543  24584984.5164                   24584984.6174
 -12903984.30747 -10007427.02245  22384411.3444                   22384409.3014
 11  8 13  3 33  0.0000000  0  9G18G25G29G26G12G05G15G21G02
   -372686.375 5                  24671785.305
 -13461884.678 8 -10476846.574 7  22137366.492
 -19084415.105 8 -14854679.845 7  21134097.625
 -13289006.61147 -10316886.70245  22147815.0634                   22147815.5004
  -9111890.810 7  -7079619.549 6  23035931.500
 -18571095.301 8 -14434610.296 7  21216013.422
  -8924197.837 7  -6937910.074 6  22948894.492
  -3221203.12846  -1495546.53443  24573850.1254                   24573849.8014
 -12855095.09947  -9969331.53545  22393715.9534                   22393713.5704
 11  8 13  3 33 30.0000000  0  8G25G29G26G12G05G15G21G02
 -13408847.613 8 -10435518.985 7  22147458.516
 -19146567.420 8 -14903110.202 7  21122270.664
 -13363076.57447 -10374603.55745  22133719.5394                   22133720.2854
  -9019689.924 7  -7007774.710 6  23053476.945
 -18505874.985 8 -14383789.285 7  21228424.414
  -9018562.700 7  -7011441.089 6  22930937.383
  -3279728.06146  -1541150.29943  24562712.8984                   24562712.7384
 -12806095.41347  -9931149.96445  22403039.8204                   22403037.5784
 11  8 13  3 34  0.0000000  0  8G25G29G26G12G05G15G21G02
 -13355397.760 8 -10393869.750 7  22157629.969
 -19208415.648 8 -14951303.610 7  21110501.203
 -13436739.31447 -10432003.07945  22119701.8284                   22119702.8754
  -8927356.022 7  -6935826.214 6  23071047.266
 -18440340.160 8 -14332723.192 7  21240895.070
  -9112788.500 7  -7084863.770 6  22913007.000
  -3338269.39846  -1586766.83243  24551572.9454                   24551572.8284
 -12756989.84447  -9892885.88045  22412384.1094                   22412381.9264
 11  8 13  3 34 30.0000000  0  9G18G25G29G26G12G05G15G21G02
   -641407.733 5                  24620647.383
 -13301536.858 8 -10351900.226 7  22167879.648
 -19269956.582 8 -14999257.558 7  21098790.563
 -13509990.41947 -10489081.85345  22105762.5474                   22105763.3874
  -8834891.545 7  -6863775.967 6  23088642.547
 -18374492.374 8 -14281413.213 7  21253425.742
  -9206871.306 7  -7158174.994 6  22895104.141
  -3396826.61146  -1632395.72943  24540429.9534                   24540429.5314
 -12707777.08647  -9854538.25745  22421749.2974                   22421747.3284
 11  8 13  3 35  0.0000000  0  9G18G25G29G26G12G05G15G21G02
   -730658.120 6                  24603664.008
 -13247267.551 8 -10309612.464 7  22178206.648
 -19331187.675 8 -15046970.065 7  21087138.773
 -13582826.43547 -10545837.17245  22091902.8134                   22091902.7854
  -8742299.831 7  -6791626.583 6  23106262.586
 -18308334.520 8 -14229861.636 7  21266015.250
  -9300808.389 7  -7231372.695 7  22877227.750
  -3455400.37346  -1678037.55143  24529282.9144                   24529283.2734
 -12658457.06647  -9816107.08145  22431134.8834                   22431132.7074
 11  8 13  3 35 30.0000000  0  9G18G25G29G26G12G05G15G21G02
   -819743.21146    181572.01742  24586711.8134                   24586712.9964
 -13192591.995 8 -10267008.121 7  22188611.172
 -19392106.481 8 -15094439.237 7  21075545.922
 -13655243.36347 -10602265.93545  22078122.2194                   22078122.6334
  -8649583.171 7  -6719379.850 6  23123904.672
 -18241868.330 8 -14178069.796 7  21278662.898
  -9394596.034 7  -7304453.966 6  22859380.641
  -3513990.11446  -1723691.80343  24518134.4454                   24518133.1644
 -12609028.82247  -9777591.56645  22440540.3444                   22440538.2194
 11  8 13  3 36  0.0000000  0  9G18G25G29G26G12G05G15G21G02
   -908661.95446    112284.77842  24569790.0084                   24569791.2154
 -13137512.956 8 -10224089.376 7  22199092.227
 -19452710.466 8 -15141663.102 7  21064013.570
 -13727237.72247 -10658365.42545  22064422.2114                   22064422.8874
  -8556744.879 7  -6647038.329 6  23141572.391
 -18175096.109 8 -14126039.489 7  21291369.313
  -9488230.922 7  -7377416.187 7  22841562.219
  -3572596.54046  -1769359.03443  24506981.5164                   24506980.4384
 -12559492.06547  -9738991.50645  22449966.7664                   22449964.1764
 11  8 13  3 36 30.0000000  0  9G18G25G29G26G12G05G15G21G02
   -997413.70545     43127.60242  24552901.1024                   24552902.3834
 -13082033.516 8 -10180858.632 7  22209649.711
 -19512997.714 8 -15188640.141 7  21052541.227
 -13798806.59547 -10714133.37445  22050802.8364                   22050803.1094
  -8463788.246 7  -6574604.596 6  23159261.664
 -18108020.946 8 -14073773.143 7  21304133.430
  -9581710.635 7  -7450257.500 7  22823773.641
  -3631220.59546  -1815040.07343  24495825.6724                   24495824.6884
 -12509846.88347  -9700306.94745  22459413.9534                   22459412.1884
 11  8 13  3 37  0.0000000  0  9G18G25G29G26G12G05G15G21G02
  -1085996.73146    -25898.05442  24536045.1334                   24536045.5664
 -13026155.630 8 -10137317.458 7  22220283.133
 -19572965.481 8 -15235368.237 7  21041129.781
 -13869945.84447 -10769566.54745  22037265.3754                   22037266.0744
  -8370715.767 7  -6502080.624 6  23176972.563
 -18040644.436 8 -14021271.965 7  21316954.578
  -9675031.269 7  -7522974.837 7  22806015.609
  -3689861.98846  -1860734.54843  24484665.5314                   24484665.7274
 -12460092.48847  -9661537.29645  22468881.9304                   22468879.7934
 11  8 13  3 37 30.0000000  0  9G18G25G29G26G12G05G15G21G02
  -1174408.75046    -94790.47742  24519219.1724                   24519221.6094
 -12969881.626 8 -10093467.562 7  22230991.398
 -19632610.341 8 -15281844.727 7  21029779.695
 -13940651.58847 -10824661.89845  22023810.5234                   22023811.2814
  -8277529.853 7  -6429468.241 6  23194705.789
 -17972968.623 8 -13968537.580 7  21329833.266
  -9768189.257 7  -7595565.416 7  22788288.117
  -3748520.60546  -1906442.50043  24473503.3364                   24473502.9924
 -12410227.96248  -9622681.82945  22478371.2344                   22478368.9344
 11  8 13  3 38  0.0000000  0  9G18G25G29G26G12G05G15G21G02
  -1262650.45846   -163550.20643  24502429.0554                   24502430.2664
 -12913215.696 8 -10049312.308 7  22241774.219
 -19691932.153 8 -15328069.500 7  21018491.086
 -14010921.94848 -10879418.01145  22010438.7974                   22010439.0314
  -8184234.918 7  -6356770.907 6  23212458.531
 -17904997.732 8 -13915573.239 7  21342767.852
  -9861183.207 7  -7668028.209 7  22770591.727
  -3807198.38946  -1952165.35243  24462337.3364                   24462336.4224
 -12360254.52747  -9583741.50445  22487880.8054                   22487878.5984
 11  8 13  3 38 30.0000000  0  9G18G25G29G26G12G05G15G21G02
  -1350720.00846   -232175.75742  24485669.6174                   24485670.3954
 -12856160.231 8 -10004853.514 7  22252631.500
 -19750927.668 8 -15374040.004 7  21007264.555
 -14080753.07848 -10933831.86045  21997150.5004                   21997150.9774
  -8090834.075 7  -6283991.048 6  23230232.883
 -17836734.020 8 -13862380.738 7  21355757.594
  -9954009.417 7  -7740360.252 7  22752926.992
  -3865895.36446  -1997903.19143  24451168.1334                   24451167.7154
 -12310171.41847  -9544715.72345  22497410.9534                   22497409.0984
 11  8 13  3 39  0.0000000  0  9G18G25G29G26G12G05G15G21G02
  -1438616.27446   -300666.26142  24468942.7194                   24468944.8984
 -12798717.339 8  -9960092.826 7  22263562.602
 -19809594.733 8 -15419754.588 7  20996100.477
 -14150141.15447 -10987900.47845  21983945.7974                   21983946.2704
  -7997329.478 7  -6211130.364 6  23248025.641
 -17768178.596 8 -13808960.927 7  21368803.633
 -10046664.027 7  -7812558.603 6  22735295.922
  -3924611.05046  -2043655.60143  24439994.9304                   24439994.7154
 -12259977.64647  -9505603.72445  22506962.3594                   22506960.6994
 11  8 13  3 39 30.0000000  0  9G18G25G29G26G12G05G15G21G02
  -1526337.91446   -369020.75642  24452250.6024                   24452252.0314
 -12740890.127 8  -9915032.677 7  22274566.664
 -19867931.000 8 -15465211.394 7  20984999.211
 -14219082.92247 -11041621.32145  21970826.7274                   21970827.6884
  -7903724.767 7  -6138191.635 6  23265837.711
 -17699334.734 8 -13755316.360 7  21381904.000
 -10139144.577 7  -7884621.337 7  22717697.297
  -3983346.50346  -2089423.42143  24428817.7584                   24428818.3244
 -12209673.27147  -9466405.54045  22516534.8754                   22516533.0594
 11  8 13  3 40  0.0000000  0  9G18G25G29G26G12G05G15G21G02
  -1613884.29646   -437238.66142  24435589.8984                   24435592.3554
 -12682682.117 8  -9869675.805 7  22285643.367
 -19925934.992 8 -15510409.281 7  20973961.398
 -14287575.75947 -11094992.32345  21957793.0394                   21957793.1994
  -7810023.714 7  -6065177.842 6  23283668.742
 -17630205.324 8 -13701449.276 7  21395058.805
 -10231448.737 7  -7956546.625 6  22700132.508
  -4042102.89346  -2135207.58743  24417637.5784                   24417637.2234
 -12159258.87547  -9427121.58745  22526128.7584                   22526126.5864
 11  8 13  3 40 30.0000000  0  9G18G25G29G26G12G05G15G21G02
  -1701253.40746   -505318.38342  24418963.8914                   24418966.5314
 -12624094.959 7  -9824023.479 7  22296792.430
 -19983603.010 8 -15555345.386 7  20962987.430
 -14355615.21747 -11148010.07145  21944845.2734                   21944846.1214
  -7716227.749 7  -5992090.114 6  23301518.461
 -17560792.001 8 -13647360.980 7  21408267.836
 -10323571.976 7  -8028330.878 7  22682602.086
  -4100879.45446  -2181007.45843  24406452.0554                   24406452.5084
 -12108732.94247  -9387750.74645  22535743.2974                   22535741.2934
 11  8 13  3 41  0.0000000  0  9G18G25G29G26G12G05G15G21G02
  -1788444.08146   -573259.20942  24402373.2504                   24402373.7854
 -12565131.695 7  -9778078.079 7  22308012.828
 -20040932.844 8 -15600017.966 7  20952078.391
 -14423198.39047 -11200672.25845  21931984.7664                   21931986.0784
  -7622340.687 7  -5918931.377 6  23319383.484
 -17491097.615 8 -13593053.676 7  21421529.992
 -10415511.523 7  -8099971.962 6  22665106.547
  -4159676.80546  -2226823.50843  24395264.1564                   24395263.3914
 -12058095.30947  -9348292.86745  22545379.4454                   22545377.4654
 11  8 13  3 41 30.0000000  0  9G18G25G29G26G12G05G15G21G02
  -1875454.49046   -641059.47742  24385815.3834                   24385815.9654
 -12505794.281 8  -9731841.141 7  22319304.313
 -20097921.630 8 -15644424.797 7  20941233.617
 -14490320.67947 -11252975.31445  21919212.3054                   21919212.6524
  -7528364.543 7  -5845703.247 6  23337267.211
 -17421123.509 8 -13538528.389 7  21434845.914
 -10507263.479 7  -8171466.867 6  22647646.867
  -4218494.34246  -2272655.30643  24384070.1724                   24384071.1414
 -12007344.75847  -9308746.99245  22555037.0554                   22555034.9104
 11  8 13  3 42  0.0000000  0  9G18G25G29G26G12G05G15G21G02
  -1962284.66946   -708719.31642  24369292.0084                   24369292.5744
 -12446086.655 7  -9685315.724 7  22330666.164
 -20154568.105 8 -15688564.880 7  20930453.938
 -14556980.28547 -11304917.84445  21906527.3364                   21906527.6054
  -7434303.567 7  -5772408.987 6  23355165.852
 -17350873.470 8 -13483788.085 7  21448214.250
 -10598825.832 7  -8242814.082 6  22630222.930
  -4277333.55946  -2318503.98743  24372873.4844                   24372874.1644
 -11956482.11447  -9269113.78445  22564715.0004                   22564713.5354
 11  8 13  3 42 30.0000000  0  9G18G25G29G26G12G05G15G21G02
  -2048932.80146   -776237.40043  24352803.1884                   24352803.9064
 -12386011.102 7  -9638503.631 7  22342098.648
 -20210869.575 8 -15732436.133 7  20919740.547
 -14623173.30647 -11356496.78445  21893930.9224                   21893931.3954
  -7340160.413 7  -5699050.699 6  23373081.695
 -17280349.070 8 -13428834.017 7  21461634.172
 -10690195.004 7  -8314010.691 7  22612835.617
  -4336194.63946  -2364369.68143  24361672.5554                   24361672.8754
 -11905506.64147  -9229392.64945  22574415.9224                   22574414.1564
 11  8 13  3 43  0.0000000  0  9G18G25G29G26G12G05G15G21G02
  -2135398.38946   -843613.05743  24336349.2424                   24336348.9884
 -12325571.088 7  -9591407.524 7  22353599.813
 -20266824.062 8 -15776037.010 7  20909092.391
 -14688896.95248 -11407709.98745  21881423.7584                   21881424.5394
  -7245938.599 7  -5625631.130 6  23391011.906
 -17209553.695 8 -13373668.785 7  21475105.961
 -10781368.779 7  -8385055.115 7  22595485.563
  -4395078.31546  -2410252.98843  24350467.6724                   24350467.3364
 -11854418.46047  -9189583.69345  22584137.7974                   22584136.2854
 11  8 13  3 43 30.0000000  0  9G18G25G29G26G12G05G15G21G02
  -2221679.42846   -910844.98143  24319930.6644                   24319930.8164
 -12264768.544 7  -9544028.943 7  22365170.117
 -20322428.883 8 -15819365.422 7  20898510.859
 -14754147.16347 -11458554.25745  21869007.4844                   21869008.0554
  -7151639.867 7  -5552151.637 6  23408955.398
 -17138488.759 8 -13318293.493 7  21488629.406
 -10872342.686 7  -8455943.838 7  22578173.922
  -4453984.00946  -2456153.49643  24339258.1884                   24339257.6094
 -11803216.44847  -9149686.05545  22593882.0234                   22593879.6564
 11  8 13  3 44  0.0000000  0  9G18G25G29G26G12G05G15G21G02
  -2307775.65846   -977932.92843  24303547.5864                   24303547.2274
 -12203607.114 7  -9496370.691 7  22376808.594
 -20377682.147 8 -15862419.904 7  20887996.852
 -14818921.29847 -11509027.57445  21856681.0864                   21856681.7894
  -7057268.208 7  -5478615.290 6  23426913.398
 -17067157.222 8 -13262710.486 7  21502203.180
 -10963114.509 7  -8526675.034 7  22560901.063
  -4512913.08546  -2502072.20543  24328044.0944                   24328044.0044
 -11751900.76847  -9109699.80945  22603646.4304                   22603644.3324
 11  8 13  3 44 30.0000000  0  9G18G25G29G26G12G05G15G21G02
  -2393684.24446  -1044874.64443  24287198.8284                   24287199.1054
 -12142088.217 7  -9448433.891 7  22388515.234
 -20432580.370 8 -15905197.711 7  20877550.141
 -14883214.77047 -11559126.35145  21844446.5474                   21844447.3404
  -6962825.398 7  -5405023.536 6  23444886.203
 -16995560.449 8 -13206920.791 7  21515828.000
 -11053680.100 7  -8597245.623 7  22543666.352
  -4571864.48946  -2548008.26243  24316826.4304                   24316826.8874
 -11700469.57747  -9069623.54145  22613433.4774                   22613431.5594
 11  8 13  3 45  0.0000000  0  9G18G25G29G26G12G05G15G21G02
  -2479406.44246  -1111671.09343  24270887.3054                   24270886.8914
 -12080216.851 7  -9400222.469 7  22400288.641
 -20487123.424 8 -15947698.788 7  20867171.023
 -14947026.50847 -11608849.75645  21832303.6644                   21832303.7774
  -6868316.435 7  -5331380.248 6  23462869.867
 -16923702.909 8 -13150927.893 7  21529501.891
 -11144038.047 7  -8667654.451 7  22526472.242
  -4630840.32246  -2593963.31643  24305603.2974                   24305603.1054
 -11648925.17147  -9029459.08445  22623242.3914                   22623239.8754
 11  8 13  3 45 30.0000000  0  9G18G25G29G26G12G05G15G21G02
  -2564940.92646  -1178321.31543  24254610.1024                   24254610.6914
 -12017995.265 7  -9351738.134 7  22412129.094
 -20541308.103 8 -15989920.600 7  20856860.023
 -15010352.50347 -11658194.66845  21820252.9534                   21820253.3094
  -6773743.887 7  -5257687.357 6  23480866.680
 -16851586.386 8 -13094733.193 7  21543224.984
 -11234184.719 7  -8737898.623 7  22509317.680
  -4689840.27346  -2639937.23243  24294375.3284                   24294375.9024
 -11597266.25847  -8989205.38745  22633072.4614                   22633070.2894
 11  8 13  3 46  0.0000000  0  9G18G25G29G26G12G05G15G21G02
  -2650285.45846  -1244823.49843  24238369.3444                   24238369.3594
 -11955425.739 7  -9302982.666 7  22424036.125
 -20595131.664 8 -16031861.023 7  20846617.547
 -15073189.07247 -11707158.21345  21808295.4844                   21808296.1954
  -6679110.020 7  -5183946.702 6  23498875.227
 -16779212.889 8 -13038338.264 7  21556997.352
 -11324116.473 7  -8807975.401 7  22492203.922
  -4748864.35646  -2685929.96243  24283143.8444                   24283143.4064
 -11545491.82347  -8948861.67845  22642924.8444                   22642922.7234
 11  8 13  3 46 30.0000000  0  9G18G25G29G26G12G05G15G21G02
  -2735438.09746  -1311176.16243  24222165.7194                   24222165.6724
 -11892510.394 7  -9253957.745 7  22436008.148
 -20648591.080 8 -16073517.691 7  20836444.641
 -15135532.26847 -11755737.28645  21796432.1884                   21796432.3914
  -6584416.988 7  -5110159.984 6  23516894.766
 -16706583.861 8 -12981744.224 7  21570818.102
 -11413829.167 7  -8877881.400 7  22475132.672
  -4807912.08346  -2731941.08343  24271907.3754                   24271907.0984
 -11493600.82047  -8908427.13345  22652798.7114                   22652797.4804
 11  8 13  3 47  0.0000000  0  9G18G25G29G26G12G05G15G21G02
  -2820399.19746  -1377379.53043  24205997.8524                   24205998.2704
 -11829253.101 7  -9204666.348 7  22448045.352
 -20701684.724 8 -16114889.359 7  20826341.117
 -15197379.94747 -11803930.26145  21784662.8984                   21784663.5944
  -6489668.569 7  -5036330.076 6  23534924.031
 -16633702.818 8 -12924953.796 7  21584687.031
 -11503320.695 7  -8947615.035 7  22458103.266
  -4866984.73146  -2777971.64943  24260666.1414                   24260665.6954
 -11441593.75547  -8867902.15645  22662696.3984                   22662694.4454
 11  8 13  3 47 30.0000000  0  9G18G25G29G26G12G05G15G21G02
  -2905168.17746  -1443433.24243  24189866.7664                   24189867.2424
 -11765657.570 7  -9155111.416 7  22460147.656
 -20754411.581 8 -16155975.223 7  20816307.500
 -15258729.34647 -11851734.96745  21772988.5784                   21772988.8914
  -6394869.008 7  -4962460.320 6  23552964.367
 -16560572.648 8 -12867969.238 7  21598603.141
 -11592588.856 7  -9017174.609 7  22441115.781
  -4926083.49446  -2824022.58243  24249420.1334                   24249420.1024
 -11389471.07247  -8827287.08245  22672614.7974                   22672612.3054
 11  8 13  3 48  0.0000000  0  9G18G25G29G26G12G05G15G21G02
  -2989742.08646  -1509335.00843  24173773.3054                   24173773.3444
 -11701724.699 7  -9105293.624 7  22472313.813
 -20806767.169 8 -16196771.764 7  20806344.711
 -15319575.69647 -11899147.68945  21761409.8444                   21761410.4064
  -6300018.970 7  -4888551.253 6  23571013.617
 -16487193.995 8 -12810791.056 7  21612566.578
 -11681628.391 7  -9086556.014 7  22424172.500
  -4985206.50346  -2870092.35743  24238169.0784                   24238169.0554
 -11337230.28147  -8786579.97345  22682556.0634                   22682553.5984
 11  8 13  3 48 30.0000000  0  9G18G25G29G26G12G05G15G21G02
  -3074121.62346  -1575085.21043  24157716.2664                   24157716.5634
 -11637459.573 7  -9055216.914 7  22484543.227
 -20858751.480 8 -16237279.014 7  20796452.594
 -15379918.01947 -11946167.64645  21749926.8594                   21749927.2304
  -6205123.510 7  -4814606.796 6  23589071.797
 -16413571.536 8 -12753422.901 7  21626576.211
 -11770438.769 7  -9155758.964 7  22407272.250
  -5044356.16046  -2916182.95143  24226913.5394                   24226912.8634
 -11284873.42747  -8745782.43445  22692518.5554                   22692516.5124
 11  8 13  3 49  0.0000000  0  9G18G25G29G26G12G05G15G21G02
  -3158304.09346  -1640681.94643  24141696.1954                   24141696.7034
 -11572863.225 7  -9004882.112 7  22496835.727
 -20910360.319 8 -16277493.691 7  20786631.734
 -15439750.97947 -11992790.72145  21738541.0394                   21738541.4924
  -6110183.741 7  -4740627.780 6  23607138.281
 -16339705.570 8 -12695865.015 7  21640632.672
 -11859014.493 7  -9224779.014 7  22390416.602
  -5103531.10946  -2962293.20843  24215652.7194                   24215652.4414
 -11232398.18147  -8704892.65245  22702504.4614                   22702502.9534
 11  8 13  3 49 30.0000000  0  9G18G25G29G26G12G05G15G21G02
  -3242290.55746  -1706125.96043  24125714.4454                   24125714.4734
 -11507940.350 7  -8954292.887 7  22509189.750
 -20961593.425 8 -16317415.583 7  20776882.203
 -15499073.43247 -12039015.99445  21727252.4304                   21727252.5474
  -6015204.524 6  -4666618.077 6  23625211.469
 -16265600.530 8 -12638120.819 7  21654734.859
 -11947354.281 7  -9293615.234 7  22373606.125
  -5162733.34147  -3008424.70843  24204387.2194                   24204386.6994
 -11179805.78447  -8663911.56444  22712512.1484                   22712510.2384
 11  8 13  3 50  0.0000000  0  9G18G25G29G26G12G05G15G21G02
  -3326078.58347  -1771415.30043  24109770.7274                   24109769.9064
 -11442692.963 8  -8903450.788 7  22521606.258
 -21012447.204 8 -16357041.892 8  20767204.992
 -15557881.38747 -12084840.35045  21716061.6334                   21716062.0514
  -5920187.740 7  -4592579.092 6  23643293.172
 -16191257.539 8 -12580191.221 7  21668881.664
 -12035454.331 7  -9362264.653 7  22356841.258
  -5221962.36347  -3054577.08944  24193116.3524                   24193115.7774
 -11127094.89247  -8622838.17444  22722542.8444                   22722540.9804
 11  8 13  3 50 30.0000000  0  9G18G25G29G26G12G05G15G21G02
  -3409666.65746  -1836548.80643  24093863.7664                   24093863.9734
 -11377123.404 7  -8852357.662 7  22534083.172
 -21062918.900 8 -16396370.478 7  20757600.578
 -15616171.03947 -12130260.82245  21704969.2274                   21704969.7814
  -5825135.598 6  -4518512.548 6  23661380.859
 -16116678.631 8 -12522077.788 7  21683073.695
 -12123310.656 7  -9430724.114 6  22340122.758
  -5281217.46747  -3100749.84444  24181840.2814                   24181839.8954
 -11074264.46147  -8581671.61144  22732595.8524                   22732594.3244
 11  8 13  3 51  0.0000000  0  9G18G25G29G26G12G05G15G21G02
  -3493054.83746  -1901526.64543  24077994.7734                   24077995.4924
 -11311235.625 7  -8801016.558 7  22546621.484
 -21113007.384 8 -16435400.463 8  20748069.250
 -15673940.50247 -12175275.96545  21693976.1804                   21693976.6214
  -5730052.085 6  -4444421.532 6  23679474.969
 -16041867.054 8 -12463783.040 7  21697309.547
 -12210921.248 7  -9498992.105 7  22323450.727
  -5340500.24747  -3146944.13343  24170559.0704                   24170558.7034
 -11021315.34647  -8540412.56544  22742672.5164                   22742670.7154
 11  8 13  3 51 30.0000000  0  9G18G25G29G26G12G05G15G21G02
  -3576241.58846  -1966347.47943  24062164.9924                   24062164.7464
 -11245031.943 7  -8749429.302 7  22559219.734
 -21162709.709 8 -16474129.541 7  20738610.922
 -15731185.87247 -12219882.71845  21683083.0864                   21683083.5554
  -5634939.594 6  -4370307.960 6  23697574.172
 -15966824.562 8 -12405308.378 7  21711589.305
 -12298282.420 7  -9567065.677 7  22306827.102
  -5399810.28947  -3193159.66943  24159272.9534                   24159272.1954
 -10968246.20147  -8499060.01644  22752771.4694                   22752769.4924
 11  8 13  3 52  0.0000000  0  9G18G25G29G26G12G05G15G21G02
  -3659226.52346  -2031011.06143  24046373.3594                   24046373.5664
 -11178516.181 7  -8697598.871 7  22571877.664
 -21212024.612 8 -16512556.708 7  20729226.820
 -15787905.17147 -12264079.53645  21672289.1414                   21672289.6094
  -5539802.009 6  -4296174.838 6  23715677.703
 -15891554.329 8 -12346656.236 7  21725912.852
 -12385391.814 7  -9634943.091 7  22290250.398
  -5459148.27847  -3239397.00344  24147980.7114                   24147980.8524
 -10915057.85247  -8457614.56844  22762892.2974                   22762890.8054
 11  8 13  3 52 30.0000000  0  9G18G25G29G26G12G05G15G21G02
  -3742007.63546  -2095515.78643  24030621.8754                   24030621.1724
 -11111690.261 7  -8645526.753 7  22584593.766
 -21260948.281 8 -16550679.030 7  20719916.789
 -15844094.17047 -12307863.14345  21661596.9694                   21661597.4804
  -5444640.863 7  -4222023.308 6  23733787.305
 -15816057.883 8 -12287827.845 7  21740279.523
 -12472245.179 7  -9702621.025 7  22273722.469
  -5518513.86346  -3285655.85044  24136683.8834                   24136683.2464
 -10861748.56747  -8416074.88045  22773037.1254                   22773034.8754
 11  8 13  3 53  0.0000000  0  9G18G25G29G26G12G05G15G21G02
  -3824585.45646  -2159862.05843  24014907.3594                   24014907.4384
 -11044558.633 7  -8593216.395 7  22597368.758
 -21309480.873 8 -16588496.628 8  20710681.281
 -15899751.30647 -12351232.30845  21651005.9454                   21651005.8524
  -5349460.843 7  -4147857.106 6  23751899.672
 -15740338.788 8 -12228825.949 7  21754688.195
 -12558841.338 7  -9770098.521 7  22257243.859
  -5577908.61747  -3331937.41444  24125381.9224                   24125380.6844
 -10808319.58647  -8374441.90944  22783204.5314                   22783202.1644
 11  8 13  3 53 30.0000000  0  9G18G25G29G26G12G05G15G21G02
  -3906957.07046  -2224047.68543  23999232.5474                   23999232.8094
 -10977122.353 7  -8540668.671 7  22610200.625
 -21357617.885 8 -16626005.972 8  20701520.945
 -15954871.95247 -12394183.42345  21640516.3754                   21640517.0314
  -5254262.774 7  -4073676.794 6  23770015.375
 -15664397.601 8 -12169650.992 7  21769139.555
 -12645174.622 7  -9837371.127 7  22240815.383
  -5637331.01046  -3378240.54243  24114074.1094                   24114072.8754
 -10754768.45647  -8332713.78644  22793394.6644                   22793392.4964
 11  8 13  3 54  0.0000000  0  9G18G25G29G26G12G05G15G21G02
  -3989124.02246  -2288073.81243  23983595.4694                   23983596.4574
 -10909386.765 7  -8487887.706 7  22623090.516
 -21405359.150 8 -16663206.951 8  20692436.305
 -16009455.23847 -12436715.81445  21630129.5944                   21630130.3524
  -5159051.877 7  -3999486.502 6  23788133.359
 -15588238.632 8 -12110306.326 7  21783632.063
 -12731244.577 7  -9904438.540 7  22224436.805
  -5696783.31947  -3424566.98843  24102760.0474                   24102759.3984
 -10701097.08547  -8290891.94444  22803608.2504                   22803606.0474
 11  8 13  3 54 30.0000000  0  9G18G25G29G26G12G05G15G21G02
  -4071082.55346  -2351937.56343  23968000.6024                   23968000.4144
 -10841352.410 7  -8434873.947 7  22636037.219
 -21452700.184 8 -16700096.058 8  20683427.773
 -16063495.99147 -12478825.45345  21619846.7424                   21619846.2504
  -5063828.839 7  -3925286.720 6  23806252.625
 -15511862.367 8 -12050792.362 7  21798166.117
 -12817045.514 7  -9971296.284 7  22208109.430
  -5756263.61746  -3470915.21943  24091441.5784                   24091440.3094
 -10647302.84347  -8248974.37345  22813844.3914                   22813842.3444
 11  8 13  3 55  0.0000000  0  9G18G25G29G26G12G05G15G21G02
  -4152833.44346  -2415639.55143  23952443.4224                   23952443.1024
 -10773023.855 7  -8381630.924 7  22649040.148
 -21499640.503 8 -16736672.911 8  20674494.914
 -16116992.71347 -12520511.17645  21609665.9384                   21609666.3014
  -4968597.733 7  -3851080.693 6  23824375.781
 -15435272.542 8 -11991111.972 7  21812740.398
 -12902576.112 7 -10037943.391 7  22191832.789
  -5815773.54847  -3517286.54743  24080117.1804                   24080115.9844
 -10593386.53847  -8206961.70245  22824104.9064                   22824102.4654
 11  8 13  3 55 30.0000000  0  9G18G25G29G26G12G05G15G21G02
  -4234375.52646  -2479178.79743  23936926.3204                   23936927.0394
 -10704404.090 7  -8328160.999 7  22662097.680
 -21546177.840 8 -16772935.750 8  20665638.984
 -16169942.57547 -12561770.78445  21599590.2194                   21599590.3484
  -4873361.791 7  -3776870.894 6  23842497.961
 -15358471.405 8 -11931266.931 7  21827355.055
 -12987833.392 7 -10104377.566 7  22175609.398
  -5875313.21747  -3563681.04443  24068787.4614                   24068786.1994
 -10539347.98147  -8164853.74444  22834387.3204                   22834385.8054
 11  8 13  3 56  0.0000000  0  9G18G25G29G26G12G05G15G21G02
  -4315707.63546  -2542554.40643  23921450.3134                   23921449.1914
 -10635495.774 7  -8274466.260 7  22675210.313
 -21592309.731 8 -16808882.666 8  20656860.602
 -16222342.45247 -12602601.82845  21589619.0084                   21589618.8094
  -4778123.351 6  -3702659.133 6  23860621.344
 -15281461.034 7 -11871258.840 7  21842010.008
 -13072813.973 7 -10170596.194 7  22159437.961
  -5934882.67047  -3610098.74443  24057451.3134                   24057450.3014
 -10485186.18747  -8122649.76444  22844694.3674                   22844692.0704
 11  8 13  3 56 30.0000000  0  9G18G25G29G26G12G05G15G21G02
  -4396828.35446  -2605765.32943  23906013.1334                   23906012.5004
 -10566301.561 7  -8220548.707 7  22688377.750
 -21638033.507 8 -16844511.568 7  20648159.758
 -16274188.94047 -12643001.64145  21579752.5864                   21579753.2384
  -4682884.746 6  -3628447.232 6  23878744.500
 -15204243.309 8 -11811089.189 7  21856704.180
 -13157514.156 7 -10236596.361 7  22143320.102
  -5994481.77047  -3656539.56843  24046109.8984                   24046108.8674
 -10430900.70847  -8080349.42745  22855024.7664                   22855022.8094
 11  8 13  3 57  0.0000000  0  9G18G25G29G26G12G05G15G21G02
  -4477736.87247  -2668810.89343  23890616.8984                   23890616.8134
 -10496824.612 8  -8166410.834 7  22701598.813
 -21683346.969 8 -16879820.759 8  20639536.859
 -16325479.35147 -12682968.16845  21569992.4064                   21569992.6214
  -4587648.956 7  -3554237.526 6  23896867.266
 -15126820.724 8 -11750759.908 7  21871437.023
 -13241930.765 7 -10302375.523 7  22127256.125
  -6054110.60847  -3703003.53844  24034763.0864                   24034761.6914
 -10376491.18747  -8037952.40345  22865378.3524                   22865376.7734
 11  8 13  3 57 30.0000000  0  9G18G25G29G26G12G05G15G21G02
  -4558433.87547  -2731691.63943  23875260.2584                   23875260.2034
 -10427068.896 7  -8112055.747 7  22714872.813
 -21728249.302 8 -16914809.569 7  20630991.906
 -16376211.86448 -12722499.97045  21560338.6414                   21560338.8954
  -4492419.916 6  -3480033.091 6  23914988.133
 -15049196.624 7 -11690273.602 7  21886208.063
 -13326061.984 7 -10367932.421 7  22111246.305
  -6113770.18247  -3749491.46943  24023409.8444                   24023408.6484
 -10321958.03347  -7995459.06944  22875755.9384                   22875753.8284
 11  8 13  3 58  0.0000000  0  9G18G25G29G26G12G05G15G21G02
  -4638915.92946  -2794404.93043  23859944.8364                   23859944.9694
 -10357035.467 7  -8057484.261 7  22728200.063
 -21772736.015 8 -16949474.536 7  20622526.625
 -16426381.75948 -12761593.35045  21550791.2814                   21550791.1214
  -4397198.358 6  -3405834.515 6  23933108.211
 -14971371.072 8 -11629630.315 7  21901018.031
 -13409902.295 7 -10433262.541 7  22095291.867
  -6173459.39347  -3796002.46544  24012051.1484                   24012050.7734
 -10267298.73147  -7952867.40144  22886157.0164                   22886155.3714
 11  8 13  3 58 30.0000000  0  9G18G25G29G26G12G05G15G21G02
  -4719184.00547  -2856951.45243  23844670.9614                   23844669.8914
 -10286729.212 7  -8002700.159 7  22741578.766
 -21816807.362 8 -16983815.837 8  20614139.797
 -16475988.13248 -12800247.62845  21541351.2814                   21541351.5164
  -4301989.007 6  -3331645.427 6  23951227.086
 -14893348.288 8 -11568833.362 7  21915865.414
 -13493451.095 7 -10498365.498 7  22079393.484
  -6233179.87947  -3842537.85544  24000686.9144                   24000686.3594
 -10212514.85947  -7910178.68244  22896582.3364                   22896579.7234
 11  8 13  3 59  0.0000000  0  9G18G25G29G26G12G05G15G21G02
  -4799237.23547  -2919330.58543  23829436.8364                   23829435.9454
 -10216153.119 7  -7947705.797 7  22755009.383
 -21860460.658 8 -17017831.388 8  20605833.391
 -16525027.96848 -12838460.44545  21532019.3524                   21532019.4384
  -4206795.021 7  -3257468.290 6  23969341.461
 -14815130.605 8 -11507884.527 7  21930749.836
 -13576704.913 8 -10563238.562 7  22063551.000
  -6292931.59047  -3889097.62844  23989316.5554                   23989316.1764
 -10157606.06247  -7867392.59344  22907030.6954                   22907029.1374
 11  8 13  3 59 30.0000000  0  9G18G25G29G26G12G05G15G21G02
  -4879073.86946  -2981540.94343  23814244.3524                   23814244.5124
 -10145309.739 7  -7892503.207 7  22768489.680
 -21903693.336 8 -17051519.183 8  20597606.195
 -16573498.13948 -12876229.39345  21522795.4924                   21522796.0124
  -4111618.388 7  -3183304.715 6  23987452.930
 -14736719.628 8 -11446785.065 7  21945670.977
 -13659660.096 7 -10627878.871 7  22047764.773
  -6352714.22447  -3935681.43044  23977940.1094                   23977940.3754
 -10102571.34747  -7824508.40644  22917503.0234                   22917501.6024
 11  8 13  4  0  0.0000000  0  9G18G25G29G26G12G05G15G21G02
  -4958692.07246  -3043581.00043  23799093.5474                   23799093.2934
 -10074201.016 7  -7837093.788 7  22782021.688
 -21946502.343 8 -17084876.851 8  20589460.039
 -16621395.02148 -12913551.58545  21513681.0084                   21513681.6414
  -4016461.039 7  -3109156.117 6  24005561.016
 -14658116.965 8 -11385536.220 7  21960628.547
 -13742312.768 7 -10692283.507 7  22032036.367
  -6412527.04147  -3982288.80444  23966557.8754                   23966558.1134
 -10047409.13147  -7781524.88944  22928000.4844                   22927998.5664
 11  8 13  4  0 30.0000000  0  9G18G25G29G26G12G05G15G21G02
  -5038094.10846  -3105452.71743  23783984.0004                   23783983.8404
 -10002832.680 7  -7781482.096 7  22795603.172
 -21988888.339 8 -17117904.896 8  20581394.266
 -16668718.39448 -12950426.91145  21504675.7194                   21504676.1564
  -3921328.132 6  -3035026.611 6  24023664.273
 -14579326.888 7 -11324141.371 7  21975621.000
 -13824662.550 7 -10756452.163 7  22016365.633
  -6472372.75347  -4028921.79343  23955170.7424                   23955169.9384
  -9992121.67347  -7738443.74544  22938522.0864                   22938519.4344
 11  8 13  4  1  0.0000000  0  9G18G25G29G26G12G05G15G21G02
  -5117276.34846  -3167153.16843  23768916.5234                   23768915.7854
  -9931205.356 7  -7725668.625 7  22809233.086
 -22030846.313 8 -17150599.413 8  20573409.930
 -16715463.25648 -12986851.45345  21495780.6174                   21495780.7734
  -3826219.993 6  -2960916.382 6  24041762.070
 -14500349.840 7 -11262600.832 7  21990650.164
 -13906703.597 7 -10820380.240 7  22000753.766
  -6532249.38847  -4075578.85043  23943775.8674                   23943774.8674
  -9936705.98947  -7695262.70544  22949066.8364                   22949065.4964
 11  8 13  4  1 30.0000000  0  9G18G25G29G26G12G05G15G21G02
  -5196238.82346  -3228682.29743  23753890.2114                   23753889.1214
  -9859323.058 7  -7669656.482 7  22822911.336
 -22072375.534 8 -17182959.832 8  20565507.031
 -16761627.91248 -13022823.87845  21486995.5944                   21486995.7384
  -3731140.603 7  -2886828.541 6  24059855.531
 -14421188.840 7 -11200916.944 7  22005714.234
 -13988434.191 7 -10884066.405 7  21985201.281
  -6592157.67947  -4122260.61343  23932375.8594                   23932374.2734
  -9881162.94347  -7651982.41144  22959636.3054                   22959634.2774
 11  8 13  4  2  0.0000000  0  9G18G25G29G26G12G05G15G21G02
  -5274981.33546  -3290040.01143  23738905.4694                   23738904.9264
  -9787189.318 7  -7613448.407 7  22836637.969
 -22113474.548 8 -17214985.036 8  20557686.320
 -16807210.33748 -13058342.61845  21478321.6884                   21478321.9534
  -3636093.074 7  -2812765.569 6  24077942.164
 -14341846.570 8 -11139091.817 7  22020812.711
 -14069851.820 8 -10947508.690 7  21969707.797
  -6652098.20547  -4168967.48943  23920969.5944                   23920968.1214
  -9825492.35247  -7608602.74644  22970230.2894                   22970228.5354
 11  8 13  4  2 30.0000000  0  9G18G25G29G26G12G05G15G21G02
  -5353501.86547  -3351224.80043  23723963.4924                   23723963.3054
  -9714806.209 7  -7557046.020 7  22850412.250
 -22154139.981 8 -17246672.376 8  20549948.125
 -16852206.65947 -13093404.66645  21469758.9454                   21469759.1134
  -3541079.410 7  -2738728.946 6  24096023.016
 -14262324.541 8 -11077126.611 7  22035945.070
 -14150952.075 8 -11010703.608 7  21954274.953
  -6712070.19947  -4215698.85343  23909557.0164                   23909555.5824
  -9769693.04047  -7565122.76444  22980848.4694                   22980846.3834
 11  8 13  4  3  0.0000000  0  9G18G25G29G26G12G05G15G21G02
  -5431800.31446  -3412236.54543  23709063.8284                   23709063.7734
  -9642177.358 7  -7500452.140 7  22864232.844
 -22194370.406 8 -17278020.768 8  20542292.781
 -16896615.08848 -13128008.60845  21461308.3914                   21461308.7544
  -3446102.835 6  -2664721.233 6  24114095.563
 -14182625.123 8 -11015023.164 7  22051111.484
 -14231733.070 8 -11073649.797 7  21938902.977
  -6772074.53947  -4262455.42944  23898138.0704                   23898136.6054
  -9713765.31747  -7521542.71444  22991491.3984                   22991489.1174
 11  8 13  4  3 30.0000000  0  9G18G25G29G26G12G05G15G21G02
  -5509876.71846  -3473075.28243  23694205.7814                   23694205.9844
  -9569306.384 7  -7443669.579 7  22878099.930
 -22234164.344 8 -17309029.020 8  20534719.594
 -16940433.45247 -13162152.76345  21452969.7974                   21452970.3244
  -3351166.617 7  -2590744.986 6  24132162.781
 -14102751.302 7 -10952783.825 7  22066310.781
 -14312191.681 8 -11136344.807 7  21923591.969
  -6832111.67047  -4309237.56443  23886714.0864                   23886712.4694
  -9657708.77947  -7477862.31244  23002158.6804                   23002156.7664
 11  8 13  4  4  0.0000000  0  9G18G25G29G26G12G05G15G21G02
  -5587729.73846  -3533739.93843  23679391.0784                   23679391.3094
  -9496196.069 7  -7386700.508 7  22892012.500
 -22273519.591 8 -17339695.446 8  20527230.469
 -16983659.22348 -13195835.14445  21444744.3984                   21444744.8094
  -3256273.106 7  -2516802.006 6  24150220.422
 -14022704.954 7 -10890410.056 7  22081543.133
 -14392324.662 8 -11198786.032 7  21908342.852
  -6892181.19047  -4356044.95444  23875282.8284                   23875281.4734
  -9601522.71147  -7434080.95144  23012850.5084                   23012848.2274
 11  8 13  4  4 30.0000000  0  9G18G25G29G26G12G05G15G21G02
  -5665357.81446  -3594229.33243  23664618.7034                   23664618.7234
  -9422848.780 7  -7329546.774 7  22905969.406
 -22312433.183 8 -17370017.723 8  20519825.797
 -17026288.91648 -13229053.06445  21436631.9534                   21436632.6844
  -3161424.497 6  -2442894.067 6  24168268.711
 -13942487.897 7 -10827903.276 7  22096807.836
 -14472128.549 8 -11260970.796 7  21893156.898
  -6952282.50947  -4402877.10744  23863845.8834                   23863845.2424
  -9545206.11147  -7390197.91745  23023567.2424                   23023565.1764
 11  8 13  4  5  0.0000000  0  9G18G25G29G26G12G05G15G21G02
  -5742760.88047  -3654543.38243  23649890.3754                   23649889.4224
  -9349268.458 7  -7272211.460 7  22919972.086
 -22350904.257 8 -17399995.179 8  20512504.789
 -17068321.29548 -13261805.54645  21428633.7894                   21428633.8524
  -3066624.500 6  -2369023.964 6  24186308.906
 -13862103.131 7 -10765265.790 7  22112104.906
 -14551601.151 7 -11322897.492 7  21878033.805
  -7012416.99347  -4449735.12744  23852402.8674                   23852402.0554
  -9488759.74447  -7346213.74444  23034308.0864                   23034306.2974
 11  8 13  4  5 30.0000000  0  9G18G25G29G26G12G05G15G21G02
  -5819938.37747  -3714681.65343  23635203.9924                   23635203.0084
  -9275458.487 7  -7214697.217 7  22934017.891
 -22388930.901 8 -17429626.326 8  20505268.398
 -17109753.84948 -13294090.63345  21420749.4924                   21420749.1914
  -2971876.013 6  -2295193.994 6  24204338.922
 -13781552.969 7 -10702499.450 7  22127432.719
 -14630739.992 8 -11384564.082 7  21862974.055
  -7072584.97147  -4496619.23744  23840953.2424                   23840951.9184
  -9432183.08247  -7302128.04644  23045074.0314                   23045073.1334
 11  8 13  4  6  0.0000000  0  9G18G25G29G26G12G05G15G21G02
  -5896888.32747  -3774642.63544  23620560.3524                   23620559.9104
  -9201420.770 7  -7157005.503 7  22948105.813
 -22426509.868 8 -17458908.641 8  20498117.609
 -17150582.94947 -13325905.48245  21412979.6254                   21412979.7304
  -2877180.158 6  -2221405.057 6  24222358.781
 -13700838.442 7 -10639605.010 7  22142792.922
 -14709540.709 8 -11445967.198 7  21847978.258
  -7132784.90747  -4543528.19344  23829497.0784                   23829496.1564
  -9375474.86147  -7257939.81744  23055866.2734                   23055864.0274
 11  8 13  4  6 30.0000000  0  9G18G25G29G26G12G05G15G21G02
  -5973611.51447  -3834426.92044  23605960.6254                   23605960.0474
  -9127159.749 7  -7099139.771 7  22962238.039
 -22463640.508 8 -17487841.598 8  20491051.914
 -17190807.78748 -13357249.48745  21405325.1414                   21405325.3524
  -2782541.587 6  -2147660.704 6  24240367.602
 -13619962.966 7 -10576585.169 7  22158182.672
 -14788001.618 7 -11507105.536 7  21833047.797
  -7193018.29547  -4590463.26844  23818035.3054                   23818034.7384
  -9318635.73447  -7213649.60444  23066682.0474                   23066679.8634
 11  8 13  4  7  0.0000000  0  9G18G25G29G26G12G05G15G21G02
  -6050106.21147  -3894033.15944  23591404.1564                   23591403.5314
  -9052677.337 7  -7041101.548 7  22976410.914
 -22500319.844 8 -17516422.891 8  20484072.195
 -17230424.63648 -13388119.73245  21397786.1564                   21397786.5084
  -2687961.607 6  -2073962.085 6  24258365.625
 -13538927.450 8 -10513440.620 7  22173603.422
 -14866118.513 8 -11567975.803 7  21818182.805
  -7253284.63747  -4637424.01544  23806567.1884                   23806566.4734
  -9261664.34047  -7169256.32144  23077523.2424                   23077521.3954
 11  8 13  4  7 30.0000000  0  9G18G25G29G26G12G05G15G21G02
  -6126371.96147  -3953460.97844  23576891.0084                   23576891.0594
  -8977976.989 7  -6982893.511 7  22990626.641
 -22536546.462 8 -17544651.430 8  20477178.313
 -17269431.58747 -13418514.73045  21390363.5164                   21390363.7704
  -2593443.355 6  -2000311.496 6  24276351.797
 -13457734.927 7 -10450173.726 7  22189053.578
 -14943889.213 8 -11628576.321 7  21803383.656
  -7313584.01047  -4684410.46144  23795091.9384                   23795091.0394
  -9204560.38347  -7124759.75644  23088390.0864                   23088387.6684
 11  8 13  4  8  0.0000000  0  9G18G25G29G26G12G05G15G21G02
  -6202408.23347  -4012710.00344  23562421.9384                   23562421.5704
  -8903062.197 7  -6924518.398 7  23004882.305
 -22572318.555 8 -17572525.785 8  20470370.602
 -17307826.62947 -13448432.92445  21383057.3984                   21383057.8634
  -2498989.871 7  -1926711.437 6  24294326.906
 -13376387.502 8 -10386786.146 7  22204533.023
 -15021310.377 8 -11688904.460 7  21788650.672
  -7373916.52247  -4731422.75143  23783612.0234                   23783609.9414
  -9147324.10247  -7080160.05944  23099281.1724                   23099279.0904
 11  8 13  4  8 30.0000000  0  9G18G25G29G26G12G05G15G21G02
  -6278213.63446  -4071779.15844  23547996.0944                   23547996.3164
  -8827935.315 7  -6865977.984 6  23019178.359
 -22607633.484 8 -17600043.910 8  20463650.492
 -17345606.93848 -13477872.10145  21375867.9844                   21375868.0864
  -2404603.326 6  -1853163.521 6  24312287.633
 -13294886.821 7 -10323279.134 7  22220042.961
 -15098379.030 8 -11748957.918 7  21773985.242
  -7434282.18647  -4778460.85844  23772124.1414                   23772123.6684
  -9089954.23447  -7035456.29044  23110198.7974                   23110196.4184
 11  8 13  4  9  0.0000000  0  9G18G25G29G26G12G05G15G21G02
  -6353789.01346  -4130669.00943  23533614.5004                   23533614.8444
  -8752600.805 7  -6807275.829 7  23033513.906
 -22642490.657 8 -17627205.340 8  20457018.070
 -17382771.33147 -13506831.33545  21368795.7114                   21368795.9844
  -2310287.468 7  -1779670.652 6  24330235.391
 -13213236.481 7 -10259655.500 7  22235579.914
 -15175093.244 7 -11808735.209 7  21759387.000
  -7494681.79547  -4825525.40644  23760630.5784                   23760629.0634
  -9032451.46947  -6990648.97644  23121140.3914                   23121138.8914
 11  8 13  4  9 30.0000000  0  9G18G25G29G26G12G05G15G21G02
  -6429132.50847  -4189378.17644  23519277.8054                   23519277.1994
  -8677060.870 7  -6748413.580 6  23047888.266
 -22676887.387 8 -17654007.978 8  20450472.156
 -17419317.16648 -13535308.58945  21361841.2894                   21361841.3914
  -2216044.100 7  -1706234.288 6  24348169.492
 -13131437.978 7 -10195916.400 7  22251145.383
 -15251449.167 8 -11868233.307 7  21744857.016
  -7555114.53247  -4872615.82244  23749130.0944                   23749129.3594
  -8974814.81447  -6945737.31344  23132108.8834                   23132106.7854
 11  8 13  4 10  0.0000000  0  9G18G25G29G26G12G05G15G21G02
  -6504242.55747  -4247905.47243  23504984.6094                   23504984.1764
  -8601317.480 7  -6689392.791 7  23062302.336
 -22710820.439 8 -17680449.308 8  20444014.906
 -17455240.61648 -13563300.86845  21355005.2504                   21355005.6134
  -2121874.885 7  -1632855.715 6  24366088.969
 -13049491.939 7 -10132062.359 7  22266739.547
 -15327443.055 8 -11927449.312 7  21730395.617
  -7615579.67647  -4919731.45544  23737624.1724                   23737622.7274
  -8917042.88947  -6900720.25844  23143102.1484                   23143100.3874
 11  8 13  4 10 30.0000000  0  9G18G25G29G26G12G05G15G21G02
  -6579119.79447  -4306251.29243  23490735.5704                   23490735.1024
  -8525375.602 7  -6630217.320 6  23076753.539
 -22744290.151 8 -17706529.600 8  20437645.953
 -17490541.77447 -13590808.24545  21348287.3754                   21348287.7584
  -2027784.237 6  -1559538.370 6  24383993.688
 -12967402.366 7 -10068096.471 7  22282360.656
 -15403073.787 8 -11986382.317 7  21716003.633
  -7676079.06547  -4966873.79544  23726111.3674                   23726109.8014
  -8859136.80546  -6855598.64844  23154122.0474                   23154120.5354
 11  8 13  4 11  0.0000000  0  9G18G25G29G26G12G05G15G21G02
  -6653763.86147  -4364415.47743  23476531.5234                   23476531.0354
  -8449237.975 7  -6570889.294 6  23091241.844
 -22777293.945 8 -17732246.839 8  20431365.477
 -17525217.77047 -13617828.48845  21341688.7664                   21341689.1564
  -1933774.413 7  -1486284.014 6  24401883.867
 -12885171.294 7 -10004020.331 7  22298008.555
 -15478338.071 8 -12045029.795 7  21701681.242
  -7736612.08447  -5014042.31744  23714593.0234                   23714591.4104
  -8801095.65346  -6810371.79744  23165166.2034                   23165164.5744
 11  8 13  4 11 30.0000000  0  9G18G25G29G26G12G05G15G21G02
  -6728173.66647  -4422397.12843  23462371.7504                   23462370.7934
  -8372907.510 7  -6511410.970 6  23105766.875
 -22809830.031 8 -17757599.637 8  20425174.305
 -17559266.59347 -13644360.01445  21335209.5784                   21335209.7584
  -1839847.912 6  -1413094.528 6  24419756.023
 -12802800.624 7  -9939835.402 7  22313683.273
 -15553232.661 8 -12103389.196 7  21687429.188
  -7797178.58147  -5061236.95644  23703066.8914                   23703066.1054
  -8742919.07547  -6765039.43544  23176236.9614                   23176235.1214
 11  8 13  4 12  0.0000000  0  9G18G25G29G26G12G05G15G21G02
  -6802348.23847  -4480195.51543  23448256.4384                   23448256.1024
  -8296387.109 7  -6451784.694 7  23120328.281
 -22841896.532 8 -17782586.518 8  20419072.008
 -17592685.65647 -13670400.81845  21328850.1954                   21328850.4964
  -1746007.454 6  -1339972.143 6  24437614.734
 -12720291.823 7  -9875542.834 7  22329384.664
 -15627754.559 8 -12161458.186 7  21673248.578
  -7857778.40147  -5108457.57144  23691535.1804                   23691534.5394
  -8684606.39846  -6719600.99344  23187333.9694                   23187331.9144
 11  8 13  4 12 30.0000000  0  9G18G25G29G26G12G05G15G21G02
  -6876287.43547  -4537810.48643  23434186.6414                   23434186.3244
  -8219680.469 7  -6392013.254 7  23134925.656
 -22873491.756 8 -17807206.171 8  20413059.969
 -17625473.58348 -13695949.83545  21322610.7734                   21322610.9734
  -1652255.868 6  -1266919.018 6  24455453.875
 -12637648.024 8  -9811145.096 7  22345110.867
 -15701901.717 8 -12219235.175 7  21659138.406
  -7918412.13847  -5155704.59544  23679996.6414                   23679996.3914
  -8626158.13347  -6674056.91344  23198455.7114                   23198453.9614
 11  8 13  4 13  0.0000000  0  9G18G25G29G26G12G05G15G21G02
  -6949989.88847  -4595240.93744  23420161.8284                   23420160.7544
  -8142789.715 7  -6332098.402 7  23149557.289
 -22904612.836 8 -17831456.361 8  20407137.367
 -17657627.21948 -13721004.61645  21316492.1094                   21316492.2114
  -1558594.771 6  -1193936.406 6  24473277.828
 -12554869.956 8  -9746642.717 7  22360863.297
 -15775669.916 8 -12276716.861 7  21645100.617
  -7979078.70447  -5202977.19344  23668452.7894                   23668452.0044
  -8567572.55447  -6628405.83344  23209604.2734                   23209602.3364
 11  8 13  4 13 30.0000000  0  9G18G25G29G26G12G05G15G21G02
  -7023455.88247  -4652487.11644  23406181.2814                   23406180.9384
  -8065718.948 7  -6272043.270 7  23164222.734
 -22935259.461 8 -17855336.851 8  20401305.922
 -17689145.83748 -13745564.55045  21310493.9924                   21310494.5084
  -1465027.984 6  -1121027.237 6  24491083.000
 -12471961.061 8  -9682038.384 7  22376639.898
 -15849057.412 8 -12333901.902 7  21631135.648
  -8039779.37547  -5250276.39544  23656901.8594                   23656900.2424
  -8508850.59847  -6582648.48544  23220778.9534                   23220777.8244
 11  8 13  4 14  0.0000000  0  9G18G25G29G26G12G05G15G21G02
  -7096684.36947  -4709548.28244  23392246.4064                   23392245.9144
  -7988470.901 7  -6211850.070 7  23178923.063
 -22965429.462 8 -17878845.933 8  20395564.438
 -17720026.98148 -13769627.74845  21304618.1094                   21304618.3244
  -1371557.758 6  -1048193.374 5  24508869.867
 -12388923.044 7  -9617333.440 7  22392441.797
 -15922060.845 8 -12390787.687 7  21617243.438
  -8100513.74747  -5297601.85744  23645343.9224                   23645342.8834
  -8449991.08146  -6536783.96744  23231979.5234                   23231978.0044
 11  8 13  4 14 30.0000000  0  9G18G25G29G26G12G05G15G21G02
  -7169674.98047  -4766424.11643  23378357.3054                   23378356.3244
  -7911048.722 7  -6151521.130 7  23193655.930
 -22995120.646 8 -17901981.923 8  20389914.586
 -17750268.62548 -13793192.65745  21298862.8834                   21298863.2974
  -1278186.380 6   -975436.455 6  24526637.773
 -12305757.903 7  -9552529.446 7  22408267.063
 -15994677.388 8 -12447371.967 7  21603424.914
  -8161281.42447  -5344953.25044  23633780.3134                   23633779.1024
  -8390993.55546  -6490811.88644  23243205.8134                   23243204.3054
 11  8 13  4 15  0.0000000  0  9G18G25G29G26G12G05G15G21G02
  -7242426.51847  -4823113.58544  23364512.7034                   23364511.9614
  -7833455.249 7  -6091058.742 7  23208421.500
 -23024331.313 8 -17924743.480 8  20384355.734
 -17779868.63548 -13816257.57345  21293230.5234                   21293230.7894
  -1184916.158 6   -902758.443 6  24544386.523
 -12222467.266 8  -9487627.671 7  22424116.883
 -16066904.267 8 -12503652.650 7  21589680.758
  -8222082.21947  -5392330.46644  23622210.1414                   23622209.0744
  -8331857.56646  -6444731.93644  23254460.2274                   23254457.3444
 11  8 13  4 15 30.0000000  0  9G18G25G29G26G12G05G15G21G02
  -7314939.87047  -4879617.48644  23350713.4224                   23350713.0904
  -7755694.708 7  -6030466.147 7  23223219.352
 -23053060.578 8 -17947129.915 8  20378888.664
 -17808826.21948 -13838821.90945  21287719.7274                   21287720.1024
  -1091751.083 6   -830162.345 6  24562114.695
 -12139054.447 7  -9422630.688 7  22439990.641
 -16138739.903 8 -12559628.438 7  21576010.953
  -8282917.18946  -5439734.29744  23610633.6484                   23610632.6884
  -8272583.99946  -6398544.80244  23265738.3754                   23265737.1914
 11  8 13  4 16  0.0000000  0  9G18G25G29G26G12G05G15G21G02
  -7387213.08247  -4935934.30144  23336961.5004                   23336960.5124
  -7677768.870 7  -5969744.739 7  23238048.586
 -23081305.788 8 -17969139.177 8  20373513.711
 -17837138.25047 -13860883.21145  21282332.5394                   21282332.6884
   -998692.607 6   -757649.284 6  24579824.852
 -12055520.434 7  -9357539.268 7  22455886.609
 -16210179.834 8 -12615295.888 7  21562416.180
  -8343785.03847  -5487163.75244  23599050.8284                   23599050.6454
  -8213171.17046  -6352249.13844  23277044.6954                   23277042.9384
 11  8 13  4 16 30.0000000  0  9G18G25G29G26G12G05G15G21G02
  -7459246.02347  -4992063.85544  23323252.9384                   23323253.0984
  -7599681.453 7  -5908897.424 7  23252907.055
 -23109065.694 8 -17990770.272 8  20368231.281
 -17864803.49248 -13882440.52745  21277067.7274                   21277068.0204
   -905743.357 6   -685221.383 6  24597510.914
 -11971867.480 7  -9292355.154 7  22471804.766
 -16281222.120 8 -12670653.484 7  21548896.984
  -8404685.98546  -5534619.01344  23587462.1884                   23587461.4774
  -8153619.14246  -6305844.98744  23288376.7734                   23288375.6684
 11  8 13  4 17  0.0000000  0  9G18G25G29G26G12G05G15G21G02
  -7531038.83646  -5048006.32844  23309591.7114                   23309590.6844
  -7521436.303 7  -5847927.246 6  23267797.633
 -23136339.181 8 -18012022.340 8  20363041.547
 -17891820.93348 -13903493.05645  21271926.5084                   21271926.7274
   -812906.869 6   -612881.303 6  24615178.117
 -11888098.764 7  -9227080.818 7  22487745.688
 -16351864.519 7 -12725699.487 7  21535454.547
  -8465620.78647  -5582100.67344  23575866.8594                   23575865.5664
  -8093928.10246  -6259332.50844  23299736.3914                   23299734.4924
 11  8 13  4 17 30.0000000  0  9G18G25G29G26G12G05G15G21G02
  -7602589.69647  -5103760.23443  23295975.8594                   23295975.2304
  -7443035.084 7  -5786835.384 6  23282716.805
 -23163123.503 8 -18032893.235 8  20357944.398
 -17918187.28248 -13924038.25345  21266909.1724                   21266908.9654
   -720184.422 6   -540630.123 6  24632821.922
 -11804214.623 7  -9161716.561 7  22503707.953
 -16422102.673 8 -12780430.493 7  21522088.492
  -8526588.61447  -5629608.03644  23564264.6884                   23564264.1954
  -8034096.36647  -6212710.42444  23311121.8054                   23311120.3094
 11  8 13  4 18  0.0000000  0  9G18G25G29G26G12G05G15G21G02
  -7673899.13847  -5159326.05644  23282406.3364                   23282405.6254
  -7364481.892 7  -5725625.137 6  23297664.609
 -23189417.494 8 -18053382.061 8  20352941.234
 -17943901.90448 -13944075.60145  21262015.6334                   21262015.5904
   -627579.381 6   -468470.321 6  24650444.609
 -11720218.137 7  -9096264.752 7  22519691.781
 -16491935.172 8 -12834845.406 7  21508799.789
  -8587590.27947  -5677141.77844  23552656.7034                   23552655.7734
  -7974124.95747  -6165979.49944  23322534.0474                   23322532.5664
 11  8 13  4 18 30.0000000  0  9G18G25G29G26G12G05G15G21G02
  -7744965.76347  -5214702.61944  23268882.8134                   23268882.1214
  -7285779.117 7  -5664298.317 6  23312640.906
 -23215218.847 8 -18073487.004 8  20348031.203
 -17968962.16748 -13963603.05645  21257247.2814                   21257247.1764
   -535093.924 6   -396403.758 6  24668043.695
 -11636110.582 7  -9030726.429 7  22535697.086
 -16561358.451 8 -12888941.450 7  21495589.156
  -8648624.45447  -5724700.84944  23541042.1954                   23541040.2664
  -7914012.03147  -6119138.26444  23333973.2734                   23333971.4774
 11  8 13  4 19  0.0000000  0  9G18G25G29G26G12G05G15G21G02
  -7815789.78347  -5269890.11644  23255405.1024                   23255404.6994
  -7206930.732 7  -5602858.062 6  23327645.531
 -23240527.397 8 -18093207.953 8  20343215.367
 -17993367.48248 -13982620.16345  21252602.8524                   21252602.5824
   -442730.834 6   -324432.557 6  24685620.008
 -11551894.763 7  -8965103.719 7  22551723.023
 -16630370.753 8 -12942717.255 7  21482456.289
  -8709691.94647  -5772285.84244  23529420.7974                   23529419.2304
  -7853758.63247  -6072187.58244  23345440.0314                   23345437.5394
 11  8 13  4 19 30.0000000  0  9G18G25G29G26G12G05G15G21G02
  -7886370.31347  -5324887.88244  23241974.3134                   23241974.0664
  -7127939.069 7  -5541306.103 7  23342677.461
 -23265340.342 8 -18112542.718 8  20338493.375
 -18017115.44448 -14001125.05645  21248083.5004                   21248083.4184
   -350491.938 6   -252558.130 6  24703173.195
 -11467571.993 7  -8899397.687 7  22567769.398
 -16698968.504 8 -12996170.024 7  21469402.609
  -8770792.12647  -5819896.30244  23517793.8134                   23517793.0664
  -7793363.41947  -6025126.36744  23356931.5634                   23356930.4184
 11  8 13  4 20  0.0000000  0  9G18G25G29G26G12G05G15G21G02
  -7956707.52547  -5379696.03444  23228589.8834                   23228589.2544
  -7048808.173 7  -5479645.693 6  23357735.430
 -23289657.204 8 -18131490.927 8  20333866.023
 -18040205.06147 -14019116.94545  21243689.9924                   21243689.5864
   -258380.894 6   -180783.320 5  24720701.297
 -11383145.049 7  -8833610.468 7  22583835.195
 -16767149.781 8 -13049298.283 7  21456428.523
  -8831925.59547  -5867532.76844  23506161.2664                   23506159.4774
  -7732826.91947  -5977955.08744  23368452.0554                   23368450.2624
 11  8 13  4 20 30.0000000  0  9G18G25G29G26G12G05G15G21G02
  -8026800.01847  -5434313.52044  23215251.3984                   23215250.6954
  -6969540.084 7  -5417878.350 6  23372819.938
 -23313475.115 8 -18150050.339 8  20329333.664
 -18062634.00248 -14036594.01645  21239421.4844                   21239421.6994
   -166398.996 5   -109109.139 5  24738203.789
 -11298615.060 7  -8767742.948 7  22599920.625
 -16834911.004 8 -13102099.214 7  21443533.789
  -8893091.26347  -5915194.29244  23494521.9924                   23494520.6914
  -7672147.67047  -5930672.58244  23379999.0234                   23379996.6484
 11  8 13  4 21  0.0000000  0  9G18G25G29G26G12G05G15G21G02
  -8096648.41247  -5488740.81644  23201959.7114                   23201959.1764
  -6890138.777 7  -5356007.208 6  23387929.273
 -23336793.544 8 -18168220.541 8  20324896.539
 -18084401.57748 -14053555.75645  21235279.2114                   21235279.0594
    -74549.765 6    -37538.323 5  24755683.422
 -11213984.872 7  -8701797.369 7  22616025.109
 -16902250.531 8 -13154571.555 7  21430719.289
  -8954289.93847  -5962881.54344  23482875.7664                   23482875.0204
  -7611326.44147  -5883279.43244  23391572.8914                   23391571.0704
 11  8 13  4 21 30.0000000  0  8G18G25G29G26G05G15G21G02
  -8166250.46547  -5542976.11744  23188714.7034                   23188714.4694
  -6810606.174 7  -5294033.758 6  23403063.969
 -23359609.695 8 -18185999.371 8  20320554.383
 -18105504.90548 -14069999.89545  21231263.6804                   21231263.2194
 -11129255.276 7  -8635774.329 7  22632148.563
 -16969164.145 8 -13206712.024 7  21417985.961
  -9015520.15747  -6010593.36644  23471224.0234                   23471222.8524
  -7550361.38347  -5835774.22144  23403173.7664                   23403172.3054
 11  8 13  4 22  0.0000000  0  8G18G25G29G26G05G15G21G02
  -8235606.89847  -5597020.04444  23175517.2664                   23175516.4224
  -6730946.270 7  -5231961.130 7  23418222.539
 -23381922.973 8 -18203386.343 8  20316308.484
 -18125943.60448 -14085926.13845  21227374.3204                   21227374.6994
 -11044428.942 7  -8569675.911 6  22648290.430
 -17035650.642 8 -13258519.668 7  21405334.086
  -9076782.98747  -6058330.60844  23459565.9144                   23459564.3674
  -7489253.34247  -5788157.60244  23414802.1484                   23414800.8484
 11  8 13  4 22 30.0000000  0  8G18G25G29G26G05G15G21G02
  -8304718.45047  -5650873.12044  23162364.8054                   23162364.5124
  -6651163.273 7  -5169792.564 7  23433405.219
 -23403733.110 8 -18220381.258 8  20312158.336
 -18145717.15448 -14101334.08045  21223611.5004                   21223611.3054
 -10959508.927 7  -8503504.486 7  22664450.430
 -17101708.037 8 -13309992.942 7  21392763.750
  -9138079.14747  -6106093.79844  23447901.6954                   23447900.2234
  -7428002.67447  -5740429.84444  23426457.9304                   23426456.3714
 11  8 13  4 23  0.0000000  0  8G18G25G29G26G05G15G21G02
  -8373582.41947  -5704533.30144  23149260.2034                   23149259.8954
  -6571258.002 7  -5107528.695 6  23448610.008
 -23425036.094 8 -18236980.992 8  20308104.188
 -18164821.95048 -14116220.91145  21219975.8674                   21219975.8634
 -10874494.979 7  -8437259.857 7  22680627.953
 -17167331.417 8 -13361128.025 7  21380276.367
  -9199406.15947  -6153881.07444  23436231.3444                   23436229.6054
  -7366607.03047  -5692589.12344  23438141.2664                   23438139.3014
 11  8 13  4 23 30.0000000  0  8G18G25G29G26G05G15G21G02
  -8442200.33047  -5758001.71644  23136203.5004                   23136202.0704
  -6491235.430 7  -5045173.440 7  23463837.875
 -23445832.474 8 -18253185.964 8  20304146.672
 -18183258.53048 -14130587.07345  21216467.6564                   21216467.5944
 -10789390.986 7  -8370945.088 7  22696822.719
 -17232520.200 8 -13411924.466 7  21367871.094
  -9260765.77347  -6201693.72344  23424555.2504                   23424553.6604
  -7305068.18046  -5644636.83244  23449851.5784                   23449849.6644
 11  8 13  4 24  0.0000000  0  8G18G25G29G26G05G15G21G02
  -8510569.73847  -5811276.52344  23123192.6644                   23123191.6994
  -6411096.710 7  -4982727.692 7  23479088.086
 -23466118.834 8 -18268993.515 8  20300286.578
 -18201023.40848 -14144429.82545  21213087.4774                   21213087.1644
 -10704196.845 7  -8304560.053 7  22713034.891
 -17297269.841 8 -13462378.722 7  21355549.828
  -9322155.98547  -6249530.23244  23412872.4534                   23412870.4064
  -7243383.41946  -5596570.83543  23461589.3444                   23461587.5314
 11  8 13  4 24 30.0000000  0  8G18G25G29G26G05G15G21G02
  -8578692.50347  -5864359.20444  23110229.4844                   23110228.3794
  -6330846.859 7  -4920195.336 6  23494358.828
 -23485895.829 8 -18284404.160 8  20296522.867
 -18218117.37348 -14157749.77845  21209834.2504                   21209834.0664
 -10618916.319 7  -8238107.717 7  22729263.383
 -17361579.688 8 -13512490.266 7  21343312.000
  -9383578.53247  -6297391.92444  23401184.6884                   23401182.7154
  -7181554.67147  -5548392.61244  23473355.4774                   23473353.8134
 11  8 13  4 25  0.0000000  0  8G18G25G29G26G05G15G21G02
  -8646567.21147  -5917248.61044  23097313.0634                   23097312.7734
  -6250488.336 7  -4857578.292 7  23509650.805
 -23505161.282 8 -18299416.212 8  20292856.938
 -18234538.68148 -14170545.59045  21206709.4614                   21206709.3834
 -10533551.038 7  -8171589.347 7  22745507.422
 -17425446.666 7 -13562256.736 7  21331158.625
  -9445032.76347  -6345278.29944  23389490.0394                   23389488.4804
  -7119580.73347  -5500101.29944  23485149.1254                   23485147.4184
 11  8 13  4 25 30.0000000  0  8G18G25G29G26G05G15G21G02
  -8714193.07647  -5969944.04144  23084444.4064                   23084444.0594
  -6170023.733 7  -4794878.604 7  23524962.586
 -23523913.493 8 -18314028.323 8  20289288.398
 -18250285.20448 -14182815.59045  21203712.6954                   21203712.6214
 -10448102.171 7  -8105005.829 7  22761768.063
 -17488867.735 8 -13611675.732 7  21319089.422
  -9506517.86847  -6393188.74844  23377790.1414                   23377788.5704
  -7057460.77646  -5451696.22043  23496969.0314                   23496968.1524
 11  8 13  4 26  0.0000000  0  8G18G25G29G26G05G15G21G02
  -8781569.73747  -6022445.30144  23071623.5634                   23071622.6414
  -6089456.292 7  -4732098.783 6  23540294.039
 -23542150.983 8 -18328239.355 8  20285818.188
 -18265355.99847 -14194559.05245  21200845.1254                   21200844.9264
 -10362571.692 7  -8038358.728 7  22778044.031
 -17551840.338 8 -13660745.281 7  21307106.461
  -9568033.31247  -6441122.81744  23366083.6174                   23366082.6764
  -6995194.75946  -5403177.32244  23508818.4924                   23508817.0944
 11  8 13  4 26 30.0000000  0  8G18G25G29G26G05G15G21G02
  -8848697.84647  -6074752.93344  23058849.4064                   23058848.1564
  -6008789.822 7  -4669241.815 6  23555644.445
 -23559873.056 8 -18342048.768 8  20282445.688
 -18279750.53448 -14205775.56945  21198106.2894                   21198105.7734
 -10276962.235 7  -7971650.068 6  22794334.570
 -17614362.874 8 -13709464.136 7  21295208.742
  -9629580.06347  -6489081.32344  23354372.2894                   23354370.5274
  -6932782.94946  -5354544.79043  23520695.4844                   23520693.6564
 11  8 13  4 27  0.0000000  0  8G18G25G29G26G05G15G21G02
  -8915576.16647  -6126865.86744  23046122.7734                   23046121.6094
  -5928026.713 7  -4606309.527 7  23571013.211
 -23577077.876 8 -18355455.123 8  20279171.773
 -18293467.14448 -14216463.82846  21195495.9694                   21195495.3874
 -10191274.888 7  -7904880.723 6  22810640.898
 -17676432.031 8 -13757829.695 7  21283397.469
  -9691157.42347  -6537063.65144  23342653.8594                   23342652.9304
  -6870224.60046  -5305798.10044  23532599.5234                   23532598.5124
 11  8 13  4 27 30.0000000  0  8G18G25G29G26G05G15G21G02
  -8982204.79047  -6178784.15544  23033443.0864                   23033442.8134
  -5847170.429 7  -4543304.603 7  23586399.063
 -23593764.345 8 -18368457.568 8  20275996.531
 -18306504.97348 -14226623.16545  21193014.8204                   21193014.3594
 -10105512.127 7  -7838052.588 7  22826961.125
 -17738046.280 8 -13805840.794 7  21271672.844
  -9752765.15447  -6585069.64744  23330930.5864                   23330929.0354
  -6807519.38847  -5256936.98644  23544532.5004                   23544531.2584
 11  8 13  4 28  0.0000000  0  8G18G25G29G26G05G15G21G02
  -9048583.22047  -6230507.53244  23020812.3204                   23020811.2344
  -5766223.472 7  -4480229.071 7  23601802.617
 -23609930.826 8 -18381054.831 8  20272919.680
 -18318862.71348 -14236252.55945  21190663.2194                   21190662.8444
 -10019675.155 7  -7771166.638 7  22843295.414
 -17799201.707 8 -13853494.348 7  21260034.992
  -9814402.51347  -6633098.69444  23319201.5004                   23319200.3954
  -6744666.66347  -5207960.91144  23556492.7274                   23556491.7774
 11  8 13  4 28 30.0000000  0  8G18G25G29G26G05G15G21G02
  -9114711.67347  -6282036.14044  23008228.2034                   23008227.5204
  -5685189.871 6  -4417086.029 6  23617223.555
 -23625577.152 8 -18393246.779 8  20269942.656
 -18330539.84547 -14245351.61145  21188440.9144                   21188441.3014
  -9933766.725 7  -7704225.035 7  22859643.031
 -17859896.987 8 -13900789.377 7  21248485.023
  -9876070.57047  -6681151.71644  23307466.6884                   23307465.1414
  -6681667.23946  -5158870.48944  23568481.2894                   23568479.2734
 11  8 13  4 29  0.0000000  0  8G18G25G29G26G05G15G21G02
  -9180588.08647  -6333368.38744  22995692.3834                   22995691.6644
  -5604071.046 6  -4353876.557 6  23632659.227
 -23640700.133 8 -18405030.925 8  20267064.695
 -18341533.82848 -14253918.34645  21186348.9384                   21186348.6174
  -9847786.955 7  -7637227.830 7  22876004.266
 -17920128.553 8 -13947723.042 7  21237023.234
  -9937767.00647  -6729226.82344  23295725.8754                   23295724.6954
  -6618518.68646  -5109663.91044  23580498.0394                   23580496.6094
 11  8 13  4 29 30.0000000  0  8G18G25G29G26G05G15G21G02
  -9246214.48747  -6384505.77244  22983203.9614                   22983203.3674
  -5522871.944 7  -4290604.511 6  23648110.930
 -23655300.430 8 -18416407.783 8  20264286.602
 -18351845.70448 -14261953.56445  21184386.5004                   21184386.4924
  -9761739.620 7  -7570177.968 7  22892378.188
 -17979895.731 8 -13994294.847 7  21225650.617
  -9999493.81247  -6777325.59444  23283979.6024                   23283978.1484
  -6555223.01046  -5060342.67544  23592542.7814                   23592541.9574
 11  8 13  4 30  0.0000000  0  8G18G25G29G26G05G15G21G02
  -9311589.64347  -6435447.39844  22970763.4384                   22970762.5084
  -5441594.958 7  -4227271.788 6  23663578.156
 -23669376.139 8 -18427375.869 8  20261608.250
 -18361473.74948 -14269455.93445  21182554.3674                   21182554.7424
  -9675625.927 7  -7503076.419 7  22908765.086
 -18039195.123 8 -14040502.179 7  21214366.141
 -10061249.81647  -6825447.13044  23272227.8524                   23272226.0434
  -6491778.94747  -5010905.78244  23604616.2274                   23604614.6644
 11  8 13  4 30 30.0000000  0  8G18G25G29G26G05G15G21G02
  -9376712.65247  -6486192.56344  22958371.0314                   22958370.1524
  -5360242.391 7  -4163880.112 6  23679058.219
 -23682925.365 8 -18437933.708 8  20259029.797
 -18370416.28948 -14276424.14145  21180852.9064                   21180852.6214
  -9589446.951 7  -7435923.991 6  22925164.883
 -18098023.639 8 -14086342.563 7  21203171.023
 -10123034.19247  -6873590.78844  23260470.3134                   23260468.8324
  -6428185.70846  -4961352.66444  23616716.8984                   23616715.9924
 11  8 13  4 31  0.0000000  0  8G18G25G29G26G05G15G21G02
  -9441584.18547  -6536741.76444  22946026.2504                   22946025.3674
  -5278818.342 7  -4100432.759 6  23694553.125
 -23695947.856 8 -18448081.102 8  20256551.383
 -18378673.63248 -14282858.43145  21179281.4924                   21179281.4384
  -9503205.508 7  -7368722.902 7  22941576.391
 -18156380.428 8 -14131815.376 7  21192066.469
 -10184847.37547  -6921756.88644  23248708.1254                   23248705.5904
  -6364443.87147  -4911683.73744  23628847.2894                   23628845.7774
 11  8 13  4 31 30.0000000  0  8G18G25G29G26G05G15G21G02
  -9506203.47347  -6587094.42544  22933729.3444                   22933729.1294
  -5197324.960 7  -4036931.366 6  23710061.344
 -23708441.594 8 -18457816.480 8  20254174.016
 -18386243.84848 -14288757.29545  21177840.2344                   21177841.3484
  -9416902.535 7  -7301473.817 6  22957999.219
 -18214262.022 8 -14176917.910 7  21181051.930
 -10246688.56447  -6969944.77344  23236939.7584                   23236938.0784
  -6300552.41347  -4861898.22944  23641005.7344                   23641004.2974
